[[{"header":{"parameterUnit":"m.s-1","parameterCategory":1,"la1":31.0,"la2":29.5877,"lo1":-88.7671,"lo2":-86.6584,"dy":0.0162,"dx":0.0185,"nx":115,"ny":88,"refTime":"2024-02-06T06:00:00:Z","depth":0,"parameterNumber":2,"parameterNumberName":"U-component_of_WINDS"},"data":[0.0,0.0,0.0,0.0,0.0,0.0,0.0,0.0,0.0,0.0,0.0,0.0,0.0,0.0,0.0,0.0,0.0,0.0,0.0,0.0,0.0,0.0,0.0,0.0,0.0,0.0,0.0,0.0,0.0,0.0,0.0,0.0,0.0,0.0,0.0,0.0,0.0,0.0,0.0,0.0,0.0,0.0,0.0,0.0,0.0,0.0,0.0,0.0,0.0,0.0,0.0,0.0,0.0,0.0,0.0,0.0,0.0,0.0,0.0,0.0,0.0,0.0,0.0,0.0,0.0,0.0,0.0,0.0,0.0,0.0,0.0,0.0,0.0,0.0,0.0,0.0,0.0,0.0,0.0,0.0,0.0,0.0,0.0,0.0,0.0,0.0,0.0,0.0,0.0,0.0,0.0,0.0,0.0,0.0,0.0,0.0,0.0,0.0,0.0,0.0,0.0,0.0,0.0,0.0,0.0,0.0,0.0,0.0,0.0,0.0,0.0,0.0,0.0,0.0,0.0,0.0,0.0,0.0,0.0,0.0,0.0,0.0,0.0,0.0,0.0,0.0,0.0,0.0,0.0,0.0,0.0,0.0,0.0,0.0,0.0,0.0,0.0,0.0,0.0,0.0,0.0,0.0,0.0,0.0,0.0,0.0,0.0,0.0,0.0,0.0,0.0,0.0,0.0,0.0,0.0,0.0,0.0,0.0,0.0,0.0,0.0,0.0,0.0,0.0,0.0,0.0,0.0,0.0,0.0,0.0,0.0,0.0,0.0,0.0,0.0,0.0,0.0,0.0,0.0,0.0,0.0,0.0,0.0,0.0,0.0,0.0,0.0,0.0,0.0,0.0,0.0,0.0,0.0,0.0,0.0,0.0,0.0,0.0,0.0,0.0,0.0,0.0,0.0,0.0,0.0,0.0,0.0,0.0,0.0,0.0,0.0,0.0,0.0,0.0,0.0,0.0,0.0,0.0,0.0,0.0,0.0,0.0,0.0,0.0,0.0,0.0,0.0,0.0,0.0,0.0,0.0,0.0,0.0,0.0,0.0,0.0,0.0,0.0,0.0,0.0,0.0,0.0,0.0,0.0,0.0,0.0,0.0,0.0,0.0,0.0,0.0,0.0,0.0,0.0,0.0,0.0,0.0,0.0,0.0,0.0,0.0,0.0,0.0,0.0,0.0,0.0,0.0,0.0,0.0,0.0,0.0,0.0,0.0,0.0,0.0,0.0,0.0,0.0,0.0,0.0,0.0,0.0,0.0,0.0,0.0,0.0,0.0,0.0,0.0,0.0,0.0,0.0,0.0,0.0,0.0,0.0,0.0,0.0,0.0,0.0,0.0,0.0,0.0,0.0,0.0,0.0,0.0,0.0,0.0,0.0,0.0,0.0,0.0,0.0,0.0,0.0,0.0,0.0,0.0,0.0,0.0,0.0,0.0,0.0,0.0,0.0,0.0,0.0,0.0,0.0,0.0,0.0,0.0,0.0,0.0,0.0,0.0,0.0,0.0,0.0,0.0,0.0,0.0,0.0,0.0,0.0,0.0,0.0,0.0,0.0,0.0,0.0,0.0,0.0,0.0,0.0,0.0,0.0,0.0,0.0,0.0,0.0,0.0,0.0,0.0,0.0,0.0,0.0,0.0,0.0,0.0,0.0,0.0,0.0,0.0,0.0,0.0,0.0,0.0,0.0,0.0,0.0,0.0,0.0,0.0,0.0,0.0,0.0,0.0,0.0,0.0,0.0,0.0,0.0,0.0,0.0,0.0,0.0,0.0,0.0,0.0,0.0,0.0,0.0,0.0,0.0,0.0,0.0,0.0,0.0,0.0,0.0,0.0,0.0,0.0,0.0,0.0,0.0,0.0,0.0,0.0,0.0,0.0,0.0,0.0,0.0,0.0,0.0,0.0,0.0,0.0,0.0,0.0,0.0,0.0,0.0,0.0,0.0,0.0,0.0,0.0,0.0,0.0,0.0,0.0,0.0,0.0,0.0,0.0,0.0,0.0,0.0,0.0,0.0,0.0,0.0,0.0,0.0,0.0,0.0,0.0,0.0,0.0,0.0,0.0,0.0,0.0,0.0,0.0,0.0,0.0,0.0,0.0,0.0,0.0,0.0,0.0,0.0,0.0,0.0,0.0,0.0,0.0,0.0,0.0,0.0,0.0,0.0,0.0,0.0,0.0,0.0,0.0,0.0,0.0,0.0,0.0,0.0,0.0,0.0,0.0,0.0,0.0,0.0,0.0,0.0,0.0,0.0,0.0,0.0,0.0,0.0,0.0,0.0,0.0,0.0,0.0,0.0,0.0,0.0,0.0,0.0,0.0,0.0,0.0,0.0,0.0,0.0,0.0,0.0,0.0,0.0,0.0,0.0,0.0,0.0,0.0,0.0,0.0,0.0,0.0,0.0,0.0,0.0,0.0,0.0,0.0,0.0,0.0,0.0,0.0,0.0,0.0,0.0,0.0,0.0,0.0,0.0,0.0,0.0,0.0,0.0,0.0,0.0,0.0,0.0,0.0,0.0,0.0,0.0,0.0,0.0,0.0,0.0,0.0,0.0,0.0,0.0,0.0,0.0,0.0,0.0,0.0,0.0,0.0,0.0,0.0,0.0,0.0,0.0,0.0,0.0,0.0,0.0,0.0,0.0,0.0,0.0,0.0,0.0,0.0,0.0,0.0,0.0,0.0,0.0,0.0,0.0,0.0,0.0,0.0,0.0,0.0,0.0,0.0,0.0,0.0,0.0,0.0,0.0,0.0,0.0,0.0,0.0,0.0,0.0,0.0,0.0,0.0,0.0,0.0,0.0,0.0,0.0,0.0,0.0,0.0,0.0,0.0,0.0,0.0,0.0,0.0,0.0,0.0,0.0,0.0,0.0,0.0,0.0,0.0,0.0,0.0,0.0,0.0,0.0,0.0,0.0,0.0,0.0,0.0,0.0,0.0,0.0,0.0,0.0,0.0,0.0,0.0,0.0,0.0,0.0,0.0,0.0,0.0,0.0,0.0,0.0,0.0,0.0,0.0,0.0,0.0,0.0,0.0,0.0,0.0,0.0,0.0,0.0,0.0,0.0,0.0,0.0,0.0,0.0,0.0,0.0,0.0,0.0,0.0,0.0,0.0,0.0,0.0,0.0,0.0,0.0,0.0,0.0,0.0,0.0,0.0,0.0,0.0,0.0,0.0,0.0,0.0,0.0,0.0,0.0,0.0,0.0,0.0,0.0,0.0,0.0,0.0,0.0,0.0,0.0,0.0,0.0,0.0,0.0,0.0,0.0,0.0,0.0,0.0,0.0,0.0,0.0,0.0,0.0,0.0,0.0,0.0,0.0,0.0,0.0,0.0,0.0,0.0,0.0,0.0,0.0,0.0,0.0,0.0,0.0,0.0,0.0,0.0,0.0,0.0,0.0,0.0,0.0,0.0,0.0,0.0,0.0,0.0,0.0,0.0,0.0,0.0,0.0,0.0,0.0,0.0,0.0,0.0,0.0,0.0,0.0,0.0,0.0,0.0,0.0,0.0,0.0,0.0,0.0,0.0,0.0,0.0,0.0,0.0,0.0,0.0,0.0,0.0,0.0,0.0,0.0,0.0,0.0,0.0,0.0,0.0,0.0,0.0,0.0,0.0,0.0,0.0,0.0,0.0,0.0,0.0,0.0,0.0,0.0,0.0,0.0,0.0,0.0,0.0,0.0,0.0,0.0,0.0,0.0,0.0,0.0,0.0,0.0,0.0,0.0,0.0,0.0,0.0,0.0,0.0,0.0,0.0,0.0,0.0,0.0,0.0,0.0,0.0,0.0,0.0,0.0,0.0,0.0,0.0,0.0,0.0,0.0,0.0,0.0,0.0,0.0,0.0,0.0,0.0,0.0,0.0,0.0,0.0,0.0,0.0,0.0,0.0,0.0,0.0,0.0,0.0,0.0,0.0,0.0,0.0,0.0,0.0,0.0,0.0,0.0,0.0,0.0,0.0,0.0,0.0,0.0,0.0,0.0,0.0,0.0,0.0,0.0,0.0,0.0,0.0,0.0,0.0,0.0,0.0,0.0,0.0,0.0,0.0,0.0,0.0,0.0,0.0,0.0,0.0,0.0,0.0,0.0,0.0,0.0,0.0,0.0,0.0,0.0,0.0,0.0,0.0,0.0,0.0,0.0,0.0,0.0,0.0,0.0,0.0,0.0,0.0,0.0,0.0,0.0,0.0,0.0,0.0,0.0,0.0,0.0,0.0,0.0,0.0,0.0,0.0,0.0,0.0,0.0,0.0,0.0,0.0,0.0,0.0,0.0,-2.032,0.0,0.0,0.0,0.0,0.0,0.0,0.0,0.0,0.0,0.0,0.0,0.0,0.0,0.0,0.0,0.0,0.0,0.0,0.0,0.0,0.0,0.0,0.0,0.0,0.0,0.0,0.0,0.0,0.0,0.0,0.0,0.0,0.0,0.0,0.0,0.0,0.0,0.0,0.0,0.0,0.0,0.0,0.0,0.0,0.0,0.0,0.0,0.0,0.0,0.0,0.0,0.0,0.0,0.0,0.0,0.0,0.0,0.0,0.0,0.0,0.0,0.0,0.0,0.0,0.0,0.0,0.0,0.0,0.0,0.0,0.0,0.0,0.0,0.0,0.0,0.0,0.0,0.0,0.0,0.0,0.0,0.0,0.0,0.0,0.0,0.0,0.0,0.0,0.0,0.0,0.0,0.0,0.0,0.0,0.0,0.0,0.0,0.0,0.0,0.0,0.0,0.0,0.0,0.0,0.0,0.0,0.0,0.0,0.0,0.0,-2.3177,-2.2458,-2.2092,-2.1574,-2.0844,0.0,0.0,0.0,0.0,0.0,0.0,0.0,0.0,0.0,0.0,0.0,0.0,0.0,0.0,0.0,0.0,0.0,0.0,0.0,0.0,0.0,0.0,0.0,0.0,0.0,0.0,0.0,0.0,0.0,0.0,0.0,0.0,0.0,0.0,0.0,0.0,0.0,0.0,0.0,0.0,0.0,0.0,0.0,0.0,0.0,0.0,0.0,0.0,0.0,0.0,0.0,0.0,0.0,0.0,0.0,0.0,0.0,0.0,0.0,0.0,0.0,0.0,0.0,0.0,0.0,0.0,0.0,0.0,0.0,0.0,0.0,0.0,0.0,0.0,0.0,0.0,0.0,0.0,0.0,0.0,0.0,0.0,0.0,0.0,0.0,0.0,0.0,0.0,0.0,0.0,0.0,0.0,0.0,0.0,0.0,0.0,0.0,0.0,0.0,0.0,0.0,0.0,0.0,0.0,0.0,0.0,0.0,0.0,0.0,0.0,0.0,0.0,-2.273,-2.1976,-2.1164,0.0,0.0,0.0,0.0,0.0,0.0,0.0,0.0,0.0,0.0,0.0,0.0,0.0,0.0,0.0,0.0,0.0,0.0,0.0,0.0,0.0,0.0,0.0,0.0,0.0,0.0,0.0,0.0,0.0,0.0,0.0,0.0,0.0,0.0,0.0,0.0,0.0,0.0,0.0,0.0,0.0,0.0,0.0,0.0,0.0,0.0,0.0,0.0,0.0,0.0,0.0,0.0,0.0,0.0,0.0,0.0,0.0,0.0,0.0,0.0,0.0,0.0,0.0,0.0,0.0,0.0,0.0,0.0,0.0,0.0,0.0,0.0,0.0,0.0,0.0,0.0,0.0,0.0,0.0,0.0,0.0,0.0,0.0,0.0,0.0,0.0,0.0,0.0,0.0,0.0,0.0,0.0,0.0,0.0,0.0,0.0,0.0,0.0,0.0,0.0,0.0,0.0,0.0,0.0,0.0,0.0,0.0,0.0,0.0,0.0,-2.4443,-2.3446,-2.3606,0.0,-2.0824,0.0,0.0,0.0,0.0,0.0,0.0,0.0,0.0,0.0,0.0,0.0,0.0,0.0,0.0,0.0,0.0,0.0,0.0,0.0,0.0,0.0,0.0,0.0,0.0,0.0,0.0,0.0,0.0,0.0,0.0,0.0,0.0,0.0,0.0,0.0,0.0,0.0,0.0,0.0,0.0,0.0,0.0,0.0,0.0,0.0,0.0,0.0,0.0,0.0,0.0,0.0,0.0,0.0,0.0,0.0,0.0,0.0,0.0,0.0,0.0,0.0,0.0,0.0,0.0,0.0,0.0,0.0,0.0,0.0,0.0,0.0,0.0,0.0,0.0,0.0,0.0,0.0,0.0,0.0,0.0,0.0,0.0,0.0,0.0,0.0,0.0,0.0,0.0,0.0,0.0,0.0,0.0,0.0,0.0,0.0,0.0,0.0,0.0,0.0,0.0,0.0,0.0,0.0,0.0,0.0,0.0,0.0,0.0,0.0,0.0,-2.5382,-2.4725,-2.3522,-2.2186,0.0,0.0,0.0,0.0,0.0,0.0,0.0,0.0,0.0,0.0,0.0,0.0,0.0,0.0,0.0,0.0,0.0,0.0,0.0,0.0,0.0,0.0,0.0,0.0,0.0,0.0,0.0,0.0,0.0,0.0,0.0,0.0,0.0,0.0,0.0,0.0,0.0,0.0,0.0,0.0,0.0,0.0,0.0,0.0,0.0,0.0,0.0,0.0,0.0,0.0,0.0,0.0,0.0,0.0,0.0,0.0,0.0,0.0,0.0,0.0,0.0,0.0,0.0,0.0,0.0,0.0,0.0,0.0,0.0,0.0,0.0,0.0,0.0,0.0,0.0,0.0,0.0,0.0,0.0,0.0,0.0,0.0,0.0,0.0,0.0,0.0,0.0,0.0,0.0,0.0,0.0,0.0,0.0,0.0,0.0,0.0,0.0,0.0,0.0,0.0,0.0,0.0,0.0,0.0,0.0,0.0,0.0,0.0,0.0,0.0,-2.5546,-2.5855,-2.5072,-2.3214,-2.1679,-2.0589,0.0,0.0,0.0,0.0,0.0,0.0,0.0,0.0,0.0,0.0,0.0,0.0,0.0,0.0,0.0,0.0,0.0,0.0,0.0,0.0,0.0,0.0,0.0,0.0,0.0,0.0,0.0,0.0,0.0,0.0,0.0,0.0,0.0,0.0,0.0,0.0,0.0,0.0,0.0,0.0,0.0,0.0,0.0,0.0,0.0,0.0,0.0,0.0,0.0,0.0,0.0,0.0,0.0,0.0,0.0,0.0,0.0,0.0,0.0,0.0,0.0,0.0,0.0,0.0,0.0,0.0,0.0,0.0,0.0,0.0,0.0,0.0,0.0,0.0,0.0,0.0,0.0,0.0,0.0,0.0,0.0,0.0,0.0,0.0,0.0,0.0,0.0,0.0,0.0,0.0,0.0,0.0,0.0,0.0,0.0,0.0,0.0,0.0,0.0,0.0,0.0,0.0,0.0,0.0,0.0,0.0,0.0,0.0,-2.4353,-2.5529,-2.5448,-2.3967,-2.2778,-2.1626,0.0,0.0,0.0,0.0,0.0,0.0,0.0,0.0,0.0,0.0,0.0,0.0,0.0,0.0,0.0,0.0,0.0,0.0,0.0,0.0,0.0,0.0,0.0,0.0,0.0,0.0,0.0,0.0,0.0,0.0,0.0,0.0,0.0,0.0,0.0,0.0,0.0,0.0,0.0,0.0,0.0,0.0,0.0,0.0,0.0,0.0,0.0,0.0,0.0,0.0,0.0,0.0,0.0,0.0,0.0,0.0,0.0,0.0,0.0,0.0,0.0,0.0,0.0,0.0,0.0,0.0,0.0,0.0,0.0,0.0,0.0,0.0,0.0,0.0,0.0,0.0,0.0,0.0,0.0,0.0,0.0,0.0,0.0,0.0,0.0,0.0,0.0,0.0,0.0,0.0,0.0,0.0,0.0,0.0,0.0,0.0,0.0,0.0,0.0,0.0,0.0,0.0,0.0,0.0,0.0,0.0,0.0,0.0,0.0,-2.4417,-2.5236,-2.5097,-2.3828,-2.2624,-2.1467,0.0,0.0,0.0,0.0,0.0,0.0,0.0,0.0,0.0,0.0,0.0,0.0,0.0,0.0,0.0,0.0,0.0,0.0,0.0,0.0,0.0,0.0,0.0,0.0,0.0,0.0,0.0,0.0,0.0,0.0,0.0,0.0,0.0,0.0,0.0,0.0,0.0,0.0,0.0,0.0,0.0,0.0,0.0,0.0,0.0,0.0,0.0,0.0,0.0,0.0,0.0,0.0,0.0,0.0,0.0,0.0,0.0,0.0,0.0,0.0,0.0,0.0,0.0,0.0,0.0,0.0,0.0,0.0,0.0,0.0,0.0,0.0,0.0,0.0,0.0,0.0,0.0,0.0,0.0,0.0,0.0,0.0,0.0,0.0,0.0,0.0,0.0,0.0,0.0,0.0,0.0,0.0,0.0,0.0,0.0,0.0,0.0,0.0,0.0,0.0,0.0,0.0,0.0,0.0,0.0,0.0,0.0,0.0,0.0,-2.4977,0.0,-2.4853,-2.3755,-2.2508,-2.1331,0.0,0.0,0.0,0.0,0.0,0.0,0.0,0.0,0.0,0.0,0.0,0.0,0.0,0.0,0.0,0.0,0.0,0.0,0.0,0.0,0.0,0.0,0.0,0.0,0.0,0.0,0.0,0.0,0.0,0.0,0.0,0.0,0.0,0.0,0.0,0.0,0.0,0.0,0.0,0.0,0.0,0.0,0.0,0.0,0.0,0.0,0.0,0.0,0.0,0.0,0.0,0.0,0.0,0.0,0.0,0.0,0.0,0.0,0.0,0.0,0.0,0.0,0.0,0.0,0.0,0.0,0.0,0.0,0.0,0.0,0.0,0.0,0.0,0.0,0.0,0.0,0.0,0.0,0.0,0.0,0.0,0.0,0.0,0.0,0.0,0.0,0.0,0.0,0.0,0.0,0.0,0.0,0.0,0.0,0.0,0.0,0.0,0.0,0.0,0.0,0.0,0.0,0.0,0.0,0.0,0.0,0.0,0.0,-2.5172,-2.6106,-2.5647,-2.4796,-2.3608,-2.2356,-2.1178,0.0,0.0,0.0,0.0,0.0,0.0,0.0,0.0,0.0,0.0,0.0,0.0,0.0,0.0,0.0,0.0,0.0,0.0,0.0,0.0,0.0,0.0,0.0,0.0,0.0,0.0,0.0,0.0,0.0,0.0,0.0,0.0,0.0,0.0,0.0,0.0,0.0,0.0,0.0,0.0,0.0,0.0,0.0,0.0,0.0,0.0,0.0,0.0,0.0,0.0,0.0,0.0,0.0,0.0,0.0,0.0,0.0,0.0,0.0,0.0,0.0,0.0,0.0,0.0,0.0,0.0,0.0,0.0,0.0,0.0,0.0,0.0,0.0,0.0,0.0,0.0,0.0,0.0,0.0,0.0,0.0,0.0,0.0,0.0,0.0,0.0,0.0,0.0,0.0,0.0,0.0,0.0,0.0,0.0,0.0,0.0,0.0,0.0,0.0,0.0,0.0,0.0,0.0,0.0,0.0,0.0,0.0,0.0,0.0,-2.5957,-2.5381,-2.4512,-2.3429,-2.2159,-2.0995,0.0,0.0,0.0,0.0,0.0,0.0,0.0,0.0,0.0,0.0,0.0,0.0,0.0,0.0,0.0,0.0,0.0,0.0,0.0,0.0,0.0,0.0,0.0,0.0,0.0,0.0,0.0,0.0,0.0,0.0,0.0,0.0,0.0,0.0,0.0,0.0,0.0,0.0,0.0,0.0,0.0,0.0,0.0,0.0,0.0,0.0,0.0,0.0,0.0,0.0,0.0,0.0,0.0,0.0,0.0,0.0,0.0,0.0,0.0,0.0,0.0,0.0,0.0,0.0,0.0,0.0,0.0,0.0,0.0,0.0,0.0,0.0,0.0,0.0,0.0,0.0,0.0,0.0,0.0,0.0,0.0,0.0,0.0,0.0,0.0,0.0,0.0,0.0,0.0,0.0,0.0,0.0,0.0,0.0,0.0,0.0,0.0,0.0,0.0,0.0,0.0,0.0,0.0,0.0,0.0,0.0,0.0,0.0,0.0,-2.5866,-2.5218,-2.4565,-2.3943,-2.2207,-2.089,-2.0002,0.0,0.0,0.0,0.0,0.0,0.0,0.0,0.0,0.0,0.0,0.0,0.0,0.0,0.0,0.0,0.0,0.0,0.0,0.0,0.0,0.0,0.0,0.0,0.0,0.0,0.0,0.0,0.0,0.0,0.0,0.0,0.0,0.0,0.0,0.0,0.0,0.0,0.0,0.0,0.0,0.0,0.0,0.0,0.0,0.0,0.0,0.0,0.0,0.0,0.0,0.0,0.0,0.0,0.0,0.0,0.0,0.0,0.0,0.0,0.0,0.0,0.0,0.0,0.0,0.0,0.0,0.0,0.0,0.0,0.0,0.0,0.0,0.0,0.0,0.0,0.0,0.0,0.0,0.0,0.0,0.0,0.0,0.0,0.0,0.0,0.0,0.0,0.0,0.0,0.0,0.0,0.0,0.0,0.0,0.0,0.0,0.0,0.0,0.0,0.0,0.0,0.0,0.0,0.0,0.0,0.0,0.0,0.0,-2.5994,-2.523,-2.4875,-2.4886,-2.2505,-2.0909,0.0,0.0,0.0,0.0,0.0,0.0,0.0,0.0,0.0,0.0,0.0,0.0,0.0,0.0,0.0,0.0,0.0,0.0,0.0,0.0,0.0,0.0,0.0,0.0,0.0,0.0,0.0,0.0,0.0,0.0,0.0,0.0,0.0,0.0,0.0,0.0,0.0,0.0,0.0,0.0,0.0,0.0,0.0,0.0,0.0,0.0,0.0,0.0,0.0,0.0,0.0,0.0,0.0,0.0,0.0,0.0,0.0,0.0,0.0,0.0,0.0,0.0,0.0,0.0,0.0,0.0,0.0,0.0,0.0,0.0,0.0,0.0,0.0,0.0,0.0,0.0,0.0,0.0,0.0,0.0,0.0,0.0,0.0,0.0,0.0,0.0,0.0,0.0,0.0,0.0,0.0,0.0,0.0,0.0,0.0,0.0,0.0,0.0,0.0,0.0,0.0,0.0,0.0,0.0,0.0,0.0,0.0,0.0,0.0,-2.6877,-2.5856,-2.5018,-2.4394,-2.2881,-2.1346,0.0,0.0,0.0,0.0,0.0,0.0,0.0,0.0,0.0,0.0,0.0,0.0,0.0,0.0,0.0,0.0,0.0,0.0,0.0,0.0,0.0,0.0,0.0,0.0,0.0,0.0,0.0,0.0,0.0,0.0,0.0,0.0,0.0,0.0,0.0,0.0,0.0,0.0,0.0,0.0,0.0,0.0,0.0,0.0,0.0,0.0,0.0,0.0,0.0,0.0,0.0,0.0,0.0,0.0,0.0,0.0,0.0,0.0,0.0,0.0,0.0,0.0,0.0,0.0,0.0,0.0,0.0,0.0,0.0,0.0,0.0,0.0,0.0,0.0,0.0,0.0,0.0,0.0,0.0,0.0,0.0,0.0,0.0,0.0,0.0,0.0,0.0,0.0,0.0,0.0,0.0,0.0,0.0,0.0,0.0,0.0,0.0,0.0,0.0,0.0,0.0,0.0,0.0,0.0,0.0,0.0,0.0,0.0,-2.6581,-2.7433,-2.6563,-2.5722,-2.4939,-2.3174,-2.1514,0.0,0.0,0.0,0.0,0.0,0.0,0.0,0.0,0.0,0.0,0.0,0.0,0.0,0.0,0.0,0.0,0.0,0.0,0.0,0.0,0.0,0.0,0.0,0.0,0.0,0.0,0.0,0.0,0.0,0.0,0.0,0.0,0.0,0.0,0.0,0.0,0.0,0.0,0.0,0.0,0.0,0.0,0.0,0.0,0.0,0.0,0.0,0.0,0.0,0.0,0.0,0.0,0.0,0.0,0.0,0.0,0.0,0.0,0.0,0.0,0.0,0.0,0.0,0.0,0.0,0.0,0.0,0.0,0.0,0.0,0.0,0.0,0.0,0.0,0.0,0.0,0.0,0.0,0.0,0.0,0.0,0.0,0.0,0.0,0.0,0.0,0.0,0.0,0.0,0.0,0.0,0.0,0.0,0.0,0.0,0.0,0.0,0.0,0.0,0.0,0.0,0.0,0.0,0.0,0.0,0.0,0.0,0.0,-2.6894,-2.7725,-2.7225,-2.6635,-2.5892,-2.3468,-2.1485,0.0,0.0,0.0,0.0,0.0,0.0,0.0,0.0,0.0,0.0,0.0,0.0,0.0,0.0,0.0,0.0,0.0,0.0,0.0,0.0,0.0,0.0,0.0,0.0,0.0,0.0,0.0,0.0,0.0,0.0,0.0,0.0,0.0,0.0,0.0,0.0,0.0,0.0,0.0,0.0,0.0,0.0,0.0,0.0,0.0,0.0,0.0,0.0,0.0,0.0,0.0,0.0,0.0,0.0,0.0,0.0,0.0,0.0,0.0,0.0,0.0,0.0,0.0,0.0,0.0,0.0,0.0,0.0,0.0,0.0,0.0,0.0,0.0,0.0,0.0,0.0,0.0,0.0,0.0,0.0,0.0,0.0,0.0,0.0,0.0,0.0,0.0,0.0,0.0,0.0,0.0,0.0,0.0,0.0,0.0,0.0,0.0,0.0,0.0,0.0,0.0,0.0,0.0,0.0,0.0,0.0,0.0,0.0,-2.708,-2.7994,-2.749,-2.6916,-2.6314,-2.4066,-2.1837,0.0,0.0,0.0,0.0,0.0,0.0,0.0,0.0,0.0,0.0,0.0,0.0,0.0,0.0,0.0,0.0,0.0,0.0,0.0,0.0,0.0,0.0,0.0,0.0,0.0,0.0,0.0,0.0,0.0,0.0,0.0,0.0,0.0,0.0,0.0,0.0,0.0,0.0,0.0,0.0,0.0,0.0,0.0,0.0,0.0,0.0,0.0,0.0,-0.4237,0.0,0.0,0.0,0.0,0.0,0.0,0.0,0.0,0.0,0.0,0.0,0.0,0.0,0.0,0.0,0.0,0.0,0.0,0.0,0.0,0.0,0.0,0.0,0.0,0.0,0.0,0.0,0.0,0.0,0.0,0.0,0.0,0.0,0.0,0.0,0.0,0.0,0.0,0.0,0.0,0.0,0.0,0.0,0.0,0.0,0.0,0.0,0.0,0.0,0.0,0.0,0.0,0.0,0.0,0.0,0.0,0.0,0.0,0.0,-2.7,-2.8071,-2.7384,-2.6833,-2.6419,-2.401,-2.1799,0.0,0.0,0.0,0.0,0.0,0.0,0.0,0.0,0.0,0.0,0.0,0.0,0.0,0.0,0.0,0.0,0.0,0.0,0.0,0.0,0.0,0.0,0.0,0.0,0.0,0.0,0.0,0.0,0.0,0.0,0.0,0.0,0.0,0.0,0.0,0.0,0.0,0.0,0.0,0.0,0.0,0.0,0.0,0.0,0.0,0.0,0.0,0.0,0.0,0.0,0.0,0.0,0.0,0.0,0.0,0.0,0.0,0.0,0.0,0.0,0.0,0.0,0.0,0.0,0.0,0.0,0.0,0.0,0.0,0.0,0.0,0.0,0.0,0.0,0.0,0.0,0.0,0.0,0.0,0.0,0.0,0.0,0.0,0.0,0.0,0.0,0.0,0.0,0.0,0.0,0.0,0.0,0.0,0.0,0.0,0.0,0.0,0.0,0.0,0.0,0.0,0.0,0.0,0.0,0.0,0.0,0.0,-2.5879,-2.6753,-2.7968,-2.7128,-2.6591,-2.6485,-2.3677,-2.1559,-2.0322,0.0,0.0,0.0,0.0,0.0,0.0,0.0,0.0,0.0,0.0,0.0,0.0,0.0,0.0,0.0,0.0,0.0,0.0,0.0,0.0,0.0,0.0,0.0,0.0,0.0,0.0,0.0,0.0,0.0,0.0,0.0,0.0,0.0,0.0,0.0,0.0,0.0,0.0,-0.6484,-0.6734,0.0,0.0,0.0,0.0,0.0,0.0,0.0,0.0,-0.3959,0.0,0.0,0.0,0.0,0.0,0.0,0.0,0.0,0.0,0.0,0.0,0.0,0.0,0.0,0.0,0.0,0.0,0.0,0.0,0.0,0.0,0.0,0.0,0.0,0.0,0.0,0.0,0.0,0.0,0.0,0.0,0.0,0.0,0.0,0.0,0.0,0.0,0.0,0.0,0.0,0.0,0.0,0.0,0.0,0.0,0.0,0.0,0.0,0.0,0.0,0.0,0.0,0.0,0.0,0.0,0.0,-2.4903,-2.5802,-2.6675,-2.7502,-2.7033,-2.6597,-2.6135,-2.3491,-2.1345,-1.9874,0.0,0.0,0.0,0.0,0.0,0.0,0.0,0.0,0.0,0.0,0.0,0.0,0.0,0.0,0.0,0.0,0.0,0.0,0.0,0.0,0.0,0.0,0.0,0.0,0.0,0.0,0.0,0.0,0.0,0.0,0.0,0.0,0.0,0.0,0.0,0.0,0.0,0.0,0.0,-0.695,-0.6996,0.0,0.0,0.0,0.0,0.0,0.0,0.0,0.0,-0.3475,0.0,0.0,0.0,0.0,0.0,0.0,0.0,0.0,0.0,0.0,0.0,0.0,0.0,0.0,0.0,0.0,0.0,0.0,0.0,0.0,0.0,0.0,0.0,0.0,0.0,0.0,0.0,0.0,0.0,0.0,0.0,0.0,0.0,0.0,0.0,0.0,0.0,0.0,0.0,0.0,0.0,0.0,0.0,0.0,0.0,0.0,0.0,0.0,0.0,0.0,0.0,0.0,0.0,0.0,0.0,-2.4209,-2.5235,-2.5924,-2.6342,-2.5965,-2.544,-2.4745,-2.2735,-2.084,0.0,0.0,0.0,0.0,0.0,0.0,0.0,0.0,0.0,0.0,0.0,0.0,0.0,0.0,0.0,0.0,0.0,0.0,0.0,0.0,0.0,0.0,0.0,0.0,0.0,0.0,0.0,0.0,0.0,0.0,0.0,0.0,0.0,0.0,0.0,0.0,0.0,0.0,0.0,0.0,-0.6995,-0.7062,-0.6959,0.0,0.0,0.0,0.0,0.0,0.0,-0.4133,-0.3571,0.0,0.0,0.0,0.0,0.0,0.0,0.0,0.0,0.0,0.0,0.0,0.0,0.0,0.0,0.0,0.0,0.0,0.0,0.0,0.0,0.0,0.0,0.0,0.0,0.0,0.0,0.0,0.0,0.0,0.0,0.0,0.0,0.0,0.0,0.0,0.0,0.0,0.0,0.0,0.0,0.0,0.0,0.0,0.0,0.0,0.0,0.0,0.0,0.0,0.0,0.0,0.0,0.0,0.0,0.0,-2.3565,-2.4532,-2.5076,-2.5213,-2.4832,-2.421,-2.3373,-2.1927,-2.0281,0.0,0.0,0.0,0.0,0.0,0.0,0.0,0.0,0.0,0.0,0.0,0.0,0.0,0.0,0.0,0.0,0.0,0.0,0.0,0.0,0.0,0.0,0.0,0.0,0.0,0.0,0.0,0.0,0.0,0.0,0.0,0.0,0.0,0.0,0.0,0.0,0.0,0.0,0.0,0.0,0.0,-0.7161,-0.7128,-0.6896,0.0,0.0,0.0,0.0,-0.4743,-0.4235,0.0,0.0,0.0,0.0,0.0,0.0,0.0,0.0,0.0,0.0,0.0,0.0,0.0,0.0,0.0,0.0,0.0,0.0,0.0,0.0,0.0,0.0,0.0,0.0,0.0,0.0,0.0,0.0,0.0,0.0,0.0,0.0,0.0,0.0,0.0,0.0,0.0,0.0,0.0,0.0,0.0,0.0,0.0,0.0,0.0,0.0,0.0,0.0,0.0,0.0,0.0,0.0,0.0,0.0,0.0,0.0,-2.2884,-2.3922,-2.4452,-2.4576,-2.414,-2.3579,-2.286,-2.1462,-1.9884,0.0,0.0,0.0,0.0,0.0,0.0,0.0,0.0,0.0,0.0,0.0,0.0,0.0,0.0,0.0,0.0,0.0,0.0,0.0,0.0,0.0,0.0,0.0,0.0,0.0,0.0,0.0,0.0,0.0,0.0,0.0,0.0,0.0,0.0,0.0,0.0,0.0,0.0,0.0,0.0,0.0,-0.7319,-0.7228,-0.6948,-0.6662,0.0,0.0,-0.5347,-0.4775,-0.4347,0.0,0.0,0.0,0.0,0.0,0.0,0.0,0.0,0.0,0.0,0.0,0.0,0.0,0.0,0.0,0.0,0.0,0.0,0.0,0.0,0.0,0.0,0.0,0.0,0.0,0.0,0.0,0.0,0.0,0.0,0.0,0.0,0.0,0.0,0.0,0.0,0.0,0.0,0.0,0.0,0.0,0.0,0.0,0.0,0.0,0.0,0.0,0.0,0.0,0.0,0.0,0.0,0.0,0.0,0.0,-2.1127,-2.2254,-2.3084,-2.3479,-2.3416,-2.2904,-2.2194,-2.1284,-2.0482,-1.9146,0.0,0.0,0.0,0.0,0.0,0.0,0.0,0.0,0.0,0.0,0.0,0.0,0.0,0.0,0.0,0.0,0.0,0.0,0.0,0.0,0.0,0.0,0.0,0.0,0.0,0.0,0.0,0.0,0.0,0.0,0.0,0.0,0.0,0.0,0.0,0.0,0.0,0.0,0.0,0.0,0.0,0.0,-0.6959,-0.6637,0.0,0.0,0.0,-0.5106,-0.4859,0.0,0.0,0.0,0.0,0.0,0.0,0.0,0.0,0.0,0.0,0.0,0.0,0.0,0.0,0.0,0.0,0.0,0.0,0.0,0.0,0.0,0.0,0.0,0.0,0.0,0.0,0.0,0.0,0.0,0.0,0.0,0.0,0.0,0.0,0.0,0.0,0.0,0.0,0.0,0.0,0.0,0.0,0.0,0.0,0.0,0.0,0.0,0.0,0.0,0.0,0.0,0.0,0.0,0.0,0.0,0.0,0.0,-2.1663,-2.2337,-2.2561,-2.2365,-2.1745,-2.0912,-1.9913,-1.9543,0.0,0.0,0.0,0.0,0.0,0.0,0.0,0.0,0.0,0.0,0.0,0.0,0.0,0.0,0.0,0.0,0.0,0.0,0.0,0.0,0.0,0.0,0.0,0.0,0.0,0.0,0.0,-0.7915,0.0,0.0,0.0,0.0,0.0,0.0,0.0,0.0,0.0,0.0,0.0,0.0,0.0,0.0,-0.6801,-0.676,-0.6454,-0.6126,0.0,0.0,-0.5011,-0.4787,-0.4263,-0.3738,0.0,0.0,0.0,0.0,0.0,0.0,0.0,0.0,0.0,0.0,0.0,0.0,0.0,0.0,0.0,0.0,0.0,0.0,0.0,0.0,0.0,0.0,0.0,0.0,0.0,0.0,0.0,0.0,0.0,0.0,0.0,0.0,0.0,0.0,0.0,0.0,0.0,0.0,0.0,0.0,0.0,0.0,0.0,0.0,0.0,0.0,0.0,0.0,0.0,0.0,0.0,0.0,0.0,0.0,-2.0605,-2.1043,-2.1656,-2.1889,-2.1745,-2.1051,-2.0216,-1.9298,-1.8917,-1.7867,0.0,0.0,0.0,0.0,0.0,0.0,0.0,0.0,0.0,0.0,0.0,0.0,0.0,0.0,0.0,0.0,0.0,0.0,0.0,0.0,0.0,0.0,0.0,0.0,0.0,0.0,0.0,0.0,0.0,0.0,0.0,0.0,0.0,0.0,0.0,0.0,0.0,0.0,0.0,0.0,0.0,-0.6962,-0.6644,-0.658,-0.6436,0.0,-0.5734,-0.5256,-0.4459,-0.4205,-0.3799,-0.2964,0.0,0.0,0.0,0.0,0.0,0.0,0.0,0.0,0.0,0.0,0.0,0.0,0.0,0.0,0.0,0.0,0.0,0.0,0.0,0.0,0.0,0.0,0.0,0.0,0.0,0.0,0.0,0.0,0.0,0.0,0.0,0.0,0.0,0.0,0.0,0.0,0.0,0.0,0.0,0.0,0.0,0.0,0.0,0.0,0.0,0.0,0.0,0.0,0.0,0.0,0.0,0.0,0.0,-1.9893,-2.0326,-2.0815,-2.1071,-2.0987,-2.0453,-1.9659,-1.8596,-1.8384,-1.7358,0.0,0.0,0.0,0.0,0.0,0.0,0.0,0.0,0.0,0.0,0.0,0.0,0.0,0.0,0.0,0.0,0.0,0.0,0.0,0.0,0.0,0.0,0.0,0.0,0.0,0.0,0.0,0.0,-0.9356,-0.9403,-0.932,0.0,0.0,0.0,0.0,0.0,0.0,0.0,0.0,0.0,0.0,-0.6759,-0.6613,-0.631,0.0,0.0,-0.5259,-0.4827,-0.4325,-0.384,-0.3426,-0.3038,-0.2611,0.0,0.0,0.0,0.0,0.0,0.0,0.0,0.0,0.0,0.0,0.0,0.0,0.0,0.0,0.0,0.0,0.0,0.0,0.0,0.0,0.0,0.0,0.0,0.0,0.0,0.0,0.0,0.0,0.0,0.0,0.0,0.0,0.0,0.0,0.0,0.0,0.0,0.0,0.0,0.0,0.0,0.0,0.0,0.0,0.0,0.0,0.0,0.0,0.0,0.0,0.0,0.0,-1.9304,-1.9595,-2.01,-2.0345,-2.0291,-1.99,-1.9179,-1.8217,-1.7916,-1.6965,0.0,0.0,0.0,0.0,0.0,0.0,0.0,0.0,0.0,0.0,0.0,0.0,0.0,0.0,0.0,0.0,0.0,0.0,0.0,0.0,0.0,0.0,0.0,0.0,0.0,0.0,0.0,0.0,-0.965,-0.9681,-0.9639,0.0,0.0,0.0,0.0,0.0,0.0,0.0,0.0,0.0,0.0,-0.657,-0.6452,-0.6047,-0.5666,-0.5341,-0.4874,-0.4458,-0.4058,-0.3587,-0.3169,-0.2917,0.0,0.0,0.0,0.0,0.0,0.0,0.0,0.0,0.0,0.0,0.0,0.0,0.0,0.0,0.0,0.0,0.0,0.0,0.0,0.0,0.0,0.0,0.0,0.0,0.0,0.0,0.0,-1.5182,0.0,0.0,-1.4553,0.0,0.0,0.0,0.0,0.0,0.0,0.0,0.0,0.0,0.0,0.0,0.0,0.0,0.0,0.0,0.0,0.0,0.0,0.0,0.0,0.0,0.0,-1.9056,-1.8947,-1.9563,-1.9802,-1.9605,-1.9308,-1.8814,-1.8114,-1.7538,-1.6769,-1.5845,0.0,0.0,0.0,0.0,0.0,0.0,0.0,0.0,0.0,0.0,0.0,0.0,0.0,0.0,0.0,0.0,0.0,0.0,0.0,0.0,0.0,0.0,0.0,0.0,0.0,0.0,-0.9871,-1.0017,-1.0021,0.0,0.0,0.0,0.0,0.0,0.0,0.0,0.0,0.0,0.0,-0.6689,-0.6483,-0.608,-0.583,-0.5501,-0.5049,-0.4705,-0.4298,-0.3691,-0.3475,-0.3159,0.0,0.0,0.0,0.0,0.0,0.0,0.0,0.0,0.0,0.0,0.0,0.0,0.0,0.0,0.0,0.0,0.0,0.0,0.0,0.0,0.0,0.0,0.0,0.0,0.0,0.0,0.0,-1.6205,-1.6196,0.0,0.0,0.0,0.0,0.0,0.0,0.0,0.0,0.0,0.0,0.0,-1.775,-1.8064,0.0,0.0,0.0,0.0,0.0,0.0,0.0,0.0,0.0,0.0,0.0,0.0,-1.8554,-1.87,-1.8993,-1.9142,-1.9075,-1.8808,-1.8395,-1.7778,-1.7231,-1.6263,-1.4868,0.0,0.0,0.0,0.0,0.0,0.0,0.0,0.0,0.0,0.0,0.0,0.0,0.0,0.0,0.0,0.0,0.0,0.0,0.0,0.0,0.0,0.0,0.0,0.0,0.0,-1.0127,0.0,0.0,0.0,0.0,0.0,0.0,0.0,0.0,0.0,0.0,0.0,-0.7496,-0.6892,-0.6669,-0.6463,-0.6054,-0.5578,-0.5153,0.0,0.0,0.0,0.0,0.0,0.0,0.0,0.0,0.0,0.0,0.0,0.0,0.0,0.0,0.0898,0.1348,0.1882,0.2315,0.2548,0.0,0.0,0.0,0.0,0.0,0.0,0.0,0.0,0.0,0.0,0.0,0.0,0.0,0.0,-1.7162,-1.7143,-1.7008,0.0,0.0,0.0,0.0,0.0,0.0,0.0,0.0,-1.8124,-1.8299,-1.8343,-1.8631,-1.8611,-1.8333,-1.814,-1.774,0.0,0.0,0.0,0.0,0.0,0.0,0.0,0.0,-1.8218,-1.837,-1.8583,-1.8674,-1.8607,-1.8506,-1.8164,-1.7635,-1.6925,-1.5875,-1.4505,-1.3745,-1.3047,0.0,0.0,0.0,0.0,0.0,0.0,0.0,0.0,0.0,0.0,0.0,0.0,0.0,0.0,0.0,0.0,0.0,0.0,0.0,0.0,0.0,0.0,0.0,-1.0176,0.0,0.0,0.0,0.0,0.0,0.0,0.0,0.0,0.0,-0.7971,-0.7735,-0.7404,-0.6907,-0.6565,-0.6271,-0.5913,0.0,0.0,0.0,0.0,0.0,0.0,0.0,-0.2745,-0.2553,-0.2349,-0.2097,-0.1706,-0.1036,-0.0369,0.0132,0.0,0.0,0.1399,0.1852,0.2243,0.2513,0.2821,0.3155,0.3561,0.3935,0.434,0.0,0.0,0.0,0.0,-1.8155,0.0,0.0,0.0,-1.8258,-1.8078,0.0,-1.7663,0.0,0.0,0.0,0.0,-1.7196,-1.7571,0.0,0.0,-1.9111,-1.9326,-1.9346,-1.9412,-1.9365,-1.9316,-1.8916,-1.8536,-1.8202,-1.7596,0.0,0.0,0.0,0.0,0.0,0.0,-1.8025,-1.7976,-1.8302,-1.8444,-1.8329,-1.8309,-1.811,-1.7614,-1.6571,-1.5573,-1.4712,-1.4066,-1.3331,-1.2448,-1.2018,0.0,0.0,0.0,0.0,0.0,0.0,0.0,0.0,0.0,0.0,0.0,0.0,0.0,0.0,0.0,0.0,0.0,0.0,0.0,0.0,-0.9755,0.0,0.0,0.0,0.0,0.0,0.0,0.0,0.0,0.0,0.0,-0.8168,-0.7503,-0.7001,-0.6927,0.0,0.0,0.0,0.0,-0.4633,-0.4438,-0.4042,-0.3653,-0.3183,-0.3043,-0.2879,-0.2498,0.0,0.0,-0.1604,-0.1019,-0.04,0.0182,0.0533,0.0958,0.142,0.1736,0.2037,0.2408,0.2705,0.3073,0.3564,0.3912,0.4315,-1.9878,0.0,0.0,0.0,0.0,-1.8903,-1.9058,-1.9088,-1.9276,-1.9364,-1.9335,-1.8938,0.0,0.0,0.0,0.0,0.0,0.0,-1.8761,-1.9321,-1.9782,-2.0255,-2.0644,-2.0996,-2.0977,-2.0664,-2.0225,-1.9822,-1.9429,-1.8792,-1.8075,-1.7273,0.0,0.0,0.0,0.0,-1.8012,-1.8576,-1.8572,-1.8639,-1.8818,-1.8527,-1.7829,-1.6723,-1.6006,-1.526,-1.4435,-1.3593,-1.2931,-1.2416,-1.2043,0.0,0.0,0.0,0.0,0.0,0.0,0.0,0.0,0.0,0.0,0.0,0.0,0.0,0.0,0.0,0.0,0.0,0.0,0.0,-0.9863,-1.0066,-1.0196,0.0,0.0,0.0,0.0,0.0,0.0,0.0,0.0,0.0,-0.827,-0.7816,-0.7372,0.0,0.0,-0.6046,-0.59,-0.5227,-0.4692,-0.4611,-0.4061,0.0,-0.3498,-0.3235,-0.3031,-0.2913,-0.2549,-0.2084,-0.172,-0.1056,-0.0437,0.0036,0.0398,0.0853,0.1503,0.1833,0.2042,0.2321,0.2658,0.2987,0.3291,0.3661,0.4122,-2.1599,-2.0798,-2.0079,-1.9605,-1.9446,-1.9731,-1.9865,-1.9889,-2.0017,-2.0117,-2.009,-1.9694,-1.9427,-1.9243,-1.8817,0.0,0.0,0.0,-1.957,-2.0241,-2.0539,-2.0838,-2.1219,-2.1479,-2.146,-2.12,-2.0939,-2.0583,-2.0101,-1.9621,-1.8908,-1.8071,0.0,0.0,-1.8203,-1.81,-1.8309,-1.8806,-1.8727,-1.8718,-1.8848,-1.8349,-1.7493,-1.6331,-1.563,-1.4955,-1.4269,-1.3425,-1.2716,-1.2269,-1.2008,-1.1533,0.0,0.0,0.0,0.0,0.0,0.0,0.0,0.0,0.0,0.0,0.0,-0.9442,-0.9674,0.0,0.0,0.0,-0.9911,-1.008,-1.0129,-1.0164,0.0,0.0,0.0,0.0,0.0,0.0,0.0,-0.9197,-0.8955,-0.8682,-0.8329,-0.7932,-0.7573,-0.7253,-0.6626,-0.6147,-0.6022,0.0,-0.4912,-0.4703,-0.4275,-0.3854,-0.3658,-0.3412,-0.3214,-0.3025,-0.2597,-0.218,-0.181,-0.1202,-0.0563,-0.0075,0.0335,0.081,0.1487,0.1767,0.1991,0.2269,0.2586,0.2872,0.3158,0.3605,0.4075,-2.3133,-2.3006,-2.1406,-2.0761,-2.072,-2.0939,-2.0994,-2.0941,-2.0669,-2.0518,-2.0483,-2.0042,-1.9618,-1.9194,-1.8841,0.0,-1.9898,-1.9898,-2.0356,-2.1183,-2.1142,-2.1202,-2.124,-2.124,-2.1231,-2.124,-2.1202,-2.0967,-2.0561,-2.0116,-1.972,-1.9315,-1.8911,-1.8713,-1.8693,-1.8646,-1.8665,-1.8703,-1.8703,-1.8666,-1.8619,-1.787,-1.7063,-1.6254,-1.5351,-1.4622,-1.4115,-1.3364,-1.2625,-1.1978,-1.1894,-1.1603,-1.0903,0.0,0.0,0.0,0.0,0.0,0.0,0.0,0.0,0.0,0.0,0.0,0.0,0.0,0.0,0.0,-1.0278,0.0,-1.0272,-1.0206,0.0,0.0,0.0,-0.981,-1.0174,-0.9808,-0.954,-0.9513,0.0,0.0,-0.8428,-0.7954,-0.7635,-0.7443,-0.6847,-0.6299,-0.6062,-0.5658,-0.5273,-0.4826,-0.4552,-0.422,-0.3825,-0.3666,-0.342,-0.2956,-0.2668,-0.239,-0.1959,-0.1333,-0.0706,-0.0157,0.0347,0.0796,0.1363,0.1597,0.1814,0.2273,0.2555,0.2817,0.3111,0.3609,0.4071,-2.3523,-2.3199,-2.2561,-2.2038,-2.1698,-2.1865,-2.1835,-2.1611,-2.1664,-2.1675,-2.164,-2.0807,-2.0027,-1.9329,-1.9251,-1.9437,-1.9838,-1.9838,-2.0222,-2.0893,-2.0902,-2.1154,-2.1579,-2.1588,-2.1588,-2.1561,-2.1256,-2.1087,-2.0933,-2.0336,-1.9861,-1.952,-1.9098,-1.8713,-1.8397,-1.8397,-1.8518,-1.872,-1.8691,-1.8568,-1.8253,-1.7603,-1.6807,-1.5844,-1.4971,-1.4155,-1.3392,-1.277,-1.2083,-1.1309,-1.1242,-1.1063,-1.062,-1.0404,0.0,0.0,0.0,0.0,0.0,0.0,0.0,0.0,0.0,-0.9728,-0.9829,0.0,-1.0142,0.0,-1.0143,-1.0099,-1.002,-1.0224,0.0,0.0,-1.0419,-1.0463,-1.0297,-1.0078,-0.9856,-0.9532,-0.9096,-0.8789,-0.8758,-0.812,-0.7634,-0.7761,-0.7068,-0.6478,-0.6315,-0.5941,-0.555,-0.5233,-0.4824,-0.4426,-0.4259,-0.4026,-0.3626,-0.3113,-0.2863,-0.2552,-0.2005,-0.1375,-0.0746,-0.0275,0.0235,0.0735,0.1179,0.1512,0.1756,0.199,0.2388,0.2787,0.3023,0.3491,0.3992,-2.398,-2.3766,-2.3412,-2.3025,-2.2551,-2.2376,-2.2264,-2.2199,-2.1873,-2.1687,-2.1645,-2.0951,-2.0365,-1.9921,-1.9796,-1.9853,-2.0067,-2.0044,-2.0316,-2.0775,-2.0855,-2.106,-2.1365,-2.1284,-2.1239,-2.123,-2.0918,-2.0766,-2.0704,-2.0201,-1.9832,-1.9604,-1.91,-1.8652,-1.8333,-1.8225,-1.824,-1.8394,-1.8394,-1.8109,-1.7536,-1.7214,-1.6468,-1.5322,-1.4675,-1.3952,-1.3089,-1.2457,-1.1891,-1.1243,-1.1117,-1.0872,-1.0572,-1.0455,-1.0307,0.0,0.0,0.0,0.0,0.0,0.0,0.0,0.0,0.0,0.0,0.0,-1.016,-1.031,-1.0455,-1.051,-1.0454,-1.0548,-1.0607,-1.0515,-1.0553,-1.0592,-1.0623,-1.0227,-0.9964,-0.9852,-0.9292,-0.8936,-0.8886,-0.822,-0.7744,-0.7885,-0.729,-0.6742,-0.6413,-0.6166,-0.5897,-0.5455,-0.5142,-0.4759,-0.4507,-0.4119,-0.3703,-0.319,-0.2943,-0.2591,-0.2004,-0.1336,-0.0786,-0.0354,0.0196,0.0665,0.1002,0.142,0.1706,0.1857,0.228,0.2695,0.2855,0.3355,0.3925,-2.4335,-2.4261,-2.39,-2.362,-2.3258,-2.2601,-2.2482,-2.2609,-2.1727,-2.1254,-2.1139,-2.0769,-2.0597,-2.0531,-2.0266,-2.0204,-2.0406,-2.0339,-2.0406,-2.0633,-2.0753,-2.0817,-2.0817,-2.0654,-2.0564,-2.0564,-2.0292,-2.0155,-2.0147,-1.9788,-1.9565,-1.9506,-1.8923,-1.8514,-1.8259,-1.8004,-1.7841,-1.7838,-1.7829,-1.7468,-1.6786,-1.6689,-1.6044,-1.4811,-1.4396,-1.3807,-1.2925,-1.2352,-1.1858,-1.1485,-1.1254,-1.0989,-1.0725,-1.0711,-1.0551,0.0,-1.0201,0.0,0.0,0.0,0.0,0.0,0.0,0.0,0.0,-1.0089,-1.0228,-1.0635,-1.0895,-1.108,-1.1086,-1.094,-1.0833,-1.0801,-1.0565,-1.0533,-1.0865,-1.0312,-0.9948,-1.0187,-0.9572,-0.9099,-0.8917,-0.8328,-0.79,-0.7856,-0.7445,-0.6908,-0.6517,-0.6384,-0.6166,-0.5549,-0.5359,-0.5041,-0.4526,-0.4057,-0.363,-0.3185,-0.2904,-0.2552,-0.2004,-0.1336,-0.0786,-0.0393,0.0157,0.0628,0.0825,0.132,0.1679,0.171,0.2198,0.2658,0.2753,0.3291,0.3792,-2.3975,-2.363,-2.3327,-2.3263,-2.339,-2.2741,-2.2449,-2.2391,-2.2198,-2.1648,-2.0891,-2.0809,-2.0573,-2.0265,-2.0192,-2.0304,-2.052,-2.0259,-2.0187,-2.0225,-1.9987,-1.9853,-1.9853,-1.9808,-1.9808,-1.9762,-1.9563,-1.9417,-1.9417,-1.9131,-1.8854,-1.858,-1.824,-1.7888,-1.7569,0.0,0.0,0.0,-1.6935,-1.678,-1.6497,-1.598,-1.537,-1.4587,-1.4015,0.0,-1.2402,-1.2248,-1.1936,-1.1465,-1.1357,0.0,0.0,0.0,0.0,0.0,0.0,0.0,0.0,0.0,0.0,0.0,-1.1129,-1.0993,-1.0548,-1.0724,-1.0902,-1.0979,-1.0913,-1.0839,-1.0845,-1.0936,-1.0947,-1.0954,-1.1022,-1.0931,-1.0704,-1.0378,-1.0085,-0.9763,-0.9279,-0.8939,-0.887,-0.8324,-0.79,-0.7856,-0.7452,-0.6918,-0.6473,-0.6428,-0.621,-0.5727,-0.5305,-0.4892,-0.4468,-0.3979,-0.3519,-0.3159,-0.2785,-0.2393,-0.1964,-0.1336,-0.0864,-0.055,0.0079,0.0629,0.0667,0.1208,0.1716,0.1714,0.2097,0.2522,0.2688,0.3291,0.3825,-2.411,-2.3769,-2.3419,-2.3238,0.0,-2.2879,-2.2615,-2.2363,-2.2022,-2.1457,-2.0857,-2.0697,-2.0501,-2.0334,-2.0019,-1.999,-2.0122,-1.9854,-1.9734,-1.9718,-1.9539,-1.9479,-1.9471,-1.9201,-1.9058,-1.9058,-1.8773,-1.8643,-1.8643,-1.8365,-1.8187,-1.8018,-1.7651,-1.7385,-1.7175,-1.6644,-1.6463,-1.649,-1.6358,-1.6141,-1.593,-1.5535,-1.5013,-1.4406,-1.3857,0.0,0.0,0.0,0.0,0.0,0.0,0.0,0.0,-1.143,0.0,-1.1015,-1.1122,-1.1142,-1.1009,-1.1122,-1.1202,-1.1245,-1.1422,-1.1344,-1.087,-1.1082,-1.1246,-1.1394,-1.1348,-1.1303,-1.1323,-1.1313,-1.1256,-1.1123,-1.0976,-1.0827,-1.0715,-1.0274,-0.9908,-0.9752,-0.928,-0.8845,-0.8759,-0.8248,-0.7856,-0.7724,-0.7367,-0.6918,-0.6517,-0.6428,-0.621,-0.5772,-0.5238,-0.4825,-0.4548,-0.4037,-0.3463,-0.312,-0.2668,-0.2276,-0.1965,-0.1258,-0.0707,-0.055,0.0039,0.0589,0.0666,0.1143,0.1629,0.1715,0.2013,0.2359,0.2631,0.3123,0.3594,-2.4344,-2.4051,-2.3647,-2.3322,-2.3101,-2.3046,-2.2759,-2.2387,-2.1644,0.0,0.0,-2.0596,-2.0411,-2.0395,-1.9921,-1.9689,-1.9666,-1.9529,-1.9416,-1.9442,-1.9309,-1.9256,-1.9241,-1.8754,-1.8536,-1.8489,-1.8156,-1.7994,-1.7947,-1.7675,-1.7535,-1.7488,-1.7113,-1.6925,-1.6817,-1.6383,-1.613,-1.6192,-1.59,-1.5677,-1.5461,-1.5219,-1.4823,-1.4252,-1.3754,-1.3408,-1.3108,-1.2476,-1.2141,-1.2134,-1.187,-1.1708,-1.1702,-1.169,-1.1657,-1.1622,-1.1663,-1.1622,-1.1593,-1.164,-1.1561,-1.1349,-1.1605,-1.1681,-1.1375,-1.1418,-1.1544,-1.179,-1.1781,-1.1769,-1.1862,-1.164,-1.1416,-1.1168,-1.0854,-1.0701,-1.0711,-1.0157,-0.9767,-0.9788,-0.9292,-0.8775,-0.8548,-0.816,-0.7808,-0.7547,-0.7279,-0.6918,-0.6517,-0.6299,-0.608,-0.5677,-0.5192,-0.4825,-0.4594,-0.3996,-0.3463,-0.3115,-0.2589,-0.2119,-0.1807,-0.1179,-0.0668,-0.0629,0.0039,0.0511,0.0628,0.1116,0.1544,0.1695,0.1934,0.2264,0.2656,0.293,0.3257,-2.4118,-2.4084,-2.3692,-2.3457,-2.3385,-2.3141,-2.2648,-2.2049,-2.1369,-2.1026,-2.0971,-2.0416,-2.0189,-2.0181,-2.0084,-2.001,-2.0046,-1.9732,-1.9587,-1.9571,-1.9235,-1.9131,-1.9108,-1.8778,-1.8569,-1.8546,-1.8052,-1.7621,-1.7426,-1.7214,-1.6979,-1.6784,-1.6683,-1.6541,-1.6312,-1.6224,-1.6082,-1.5879,-1.5701,-1.5506,-1.5253,-1.5045,-1.4669,-1.4069,-1.3764,-1.344,-1.3199,-1.306,-1.3019,-1.3019,-1.2947,-1.2959,-1.2946,-1.2723,-1.2596,-1.2596,-1.2596,-1.249,-1.2277,-1.2505,-1.2564,-1.233,-1.2203,-1.217,-1.2297,-1.2165,-1.2085,-1.2128,-1.1808,-1.1644,-1.164,-1.1416,-1.1183,-1.0979,-1.0882,-1.0726,-1.0469,-1.011,-0.9778,-0.9423,-0.913,-0.8688,-0.8288,-0.8028,-0.7768,-0.7503,-0.7187,-0.6915,-0.6476,-0.6038,-0.573,-0.545,-0.5148,-0.478,-0.4433,-0.3831,-0.335,-0.3153,-0.2435,-0.1925,-0.1847,-0.1179,-0.0629,-0.0589,0.0079,0.055,0.0628,0.1078,0.1517,0.1726,0.1889,0.211,0.2648,0.2807,0.3029,-2.4008,-2.3793,-2.3433,-2.3181,-2.2995,-2.2653,-2.2363,-2.2002,-2.136,-2.0979,-2.0741,-2.0317,-2.0061,-1.9887,-1.9724,-1.968,-1.9672,-1.9538,-1.9463,-1.9397,-1.9076,-1.892,-1.889,-1.8437,-1.8191,-1.8177,-1.7795,-1.7522,-1.7411,-1.7028,-1.68,-1.6649,-1.634,-1.6116,-1.5981,-1.5974,-1.5927,-1.5818,-1.5589,-1.5441,-1.5304,-1.5065,-1.4737,-1.4291,-1.401,-1.37,-1.342,-1.3253,-1.3206,-1.3206,-1.3206,-1.3206,-1.3206,-1.308,-1.2999,-1.2999,-1.2915,-1.2804,-1.2694,-1.2574,-1.2508,-1.2519,-1.2382,-1.232,-1.2419,-1.2083,-1.194,-1.2079,-1.1805,-1.1617,-1.163,-1.1433,-1.1178,-1.0953,-1.075,-1.0444,-1.0183,-0.982,-0.9476,-0.913,-0.8727,-0.8376,-0.8072,-0.7812,-0.7591,-0.7323,-0.6966,-0.6605,-0.6254,-0.5813,-0.5508,-0.5413,-0.5149,-0.477,-0.437,-0.3775,-0.3282,-0.293,-0.2336,-0.185,-0.1612,-0.1022,-0.0629,-0.0432,0.0157,0.055,0.0629,0.1052,0.1424,0.1742,0.1829,0.208,0.2546,0.2835,0.3253,-2.3832,-2.3566,-2.3345,-2.2986,-2.2604,-2.2146,-2.2002,-2.1972,-2.144,-2.0943,-2.0642,-2.0323,-2.0053,-1.9702,-1.9493,-1.9352,-1.9227,-1.9227,-1.9168,-1.9094,-1.8803,-1.8687,-1.8658,-1.8168,-1.7925,-1.7853,-1.764,-1.7456,-1.7378,-1.6986,-1.6778,-1.6653,-1.6236,-1.5977,-1.6032,-1.5959,-1.5925,-1.5912,-1.5645,-1.5458,-1.5391,-1.5216,-1.4923,-1.4629,-1.4409,-1.4175,-1.39,-1.3667,-1.3507,-1.35,-1.3447,-1.3407,-1.3407,-1.33,-1.33,-1.3307,-1.31,-1.2973,-1.2911,-1.2547,-1.2374,-1.2595,-1.2451,-1.2396,-1.2426,-1.2054,-1.1845,-1.1932,-1.1777,-1.1604,-1.1584,-1.137,-1.1122,-1.0873,-1.0472,-1.0159,-0.9907,-0.9476,-0.913,-0.8823,-0.8464,-0.8113,-0.7856,-0.7639,-0.737,-0.7054,-0.6653,-0.6343,-0.6083,-0.5727,-0.5416,-0.5282,-0.5099,-0.4698,-0.422,-0.3703,-0.3207,-0.2693,-0.2234,-0.1774,-0.1375,-0.0943,-0.0511,-0.0236,0.0236,0.0589,0.0707,0.1021,0.1402,0.1728,0.1823,0.1986,0.259,0.301,0.342,-2.3651,-2.3576,-2.3498,-2.3192,-2.2546,-2.1982,-2.1732,-2.166,-2.1338,-2.1026,-2.0659,-2.0325,-2.0079,-1.9801,-1.9764,-1.9451,-1.8943,-1.8921,-1.881,-1.8527,-1.8447,-1.8433,-1.8397,-1.8117,-1.7983,-1.7948,-1.7659,-1.7412,-1.7168,-1.7107,-1.6923,-1.6717,-1.664,-1.6607,-1.6587,-1.6353,-1.6281,-1.6226,-1.5939,-1.5665,-1.5411,-1.5371,-1.5217,-1.4981,-1.4941,-1.4921,-1.4827,-1.4556,-1.4352,-1.4382,-1.4142,-1.4008,-1.3981,-1.3761,-1.3604,-1.3668,-1.3424,-1.322,-1.3079,-1.2808,-1.2661,-1.27,-1.2674,-1.2647,-1.2648,-1.2462,-1.2215,-1.2005,-1.18,-1.1607,-1.1375,-1.1148,-1.0827,-1.0488,-1.0212,-0.9907,-0.9673,-0.9218,-0.8863,-0.8636,-0.8372,-0.8028,-0.7657,-0.7514,-0.7282,-0.6877,-0.6567,-0.6302,-0.6038,-0.5638,-0.528,-0.5102,-0.4879,-0.4488,-0.397,-0.358,-0.3136,-0.2657,-0.2237,-0.1776,-0.1338,-0.0864,-0.0471,-0.0079,0.0275,0.0629,0.0864,0.11,0.1414,0.1754,0.1921,0.2032,0.2682,0.3129,0.3463,-2.3293,-2.3263,-2.3061,-2.2624,-2.2059,-2.1787,-2.1559,-2.139,-2.1031,-2.0823,-2.0651,-2.0401,-2.0079,-1.9776,-1.9413,-1.9142,-1.8915,-1.8678,-1.8534,-1.8422,-1.8422,-1.8422,-1.8356,-1.8154,-1.7988,-1.7981,-1.7695,-1.7479,-1.7407,-1.7265,-1.6988,-1.672,-1.6707,-1.6707,-1.6693,-1.6587,-1.6526,-1.652,-1.6413,-1.6206,-1.5932,-1.5745,-1.5518,-1.5257,-1.5269,-1.5176,-1.5022,-1.4881,-1.4776,-1.4776,-1.4663,-1.4646,-1.4603,-1.4352,-1.4202,-1.4182,-1.3836,-1.3561,-1.3358,-1.3093,-1.2913,-1.2941,-1.2806,-1.2671,-1.2529,-1.2312,-1.2088,-1.1851,-1.1763,-1.1579,-1.1294,-1.0945,-1.0635,-1.0405,-1.0089,-0.9772,-0.9505,-0.9187,-0.8873,-0.8683,-0.8272,-0.7958,-0.7645,-0.7289,-0.6976,-0.6612,-0.639,-0.6177,-0.5911,-0.546,-0.5144,-0.4968,-0.4569,-0.4113,-0.376,-0.3433,-0.2975,-0.2497,-0.2116,-0.1761,-0.1065,-0.0786,-0.0432,0.0079,0.0393,0.0668,0.0864,0.114,0.1415,0.1763,0.215,0.238,0.2884,0.3057,0.3297,-2.2793,-2.2805,-2.2447,-2.2014,-2.1582,-2.1429,-2.1213,-2.0938,-2.0666,-2.0601,-2.0544,-2.027,-2.0032,-1.9779,-1.9338,-1.9047,-1.8888,-1.8673,-1.8469,-1.8409,-1.834,-1.8291,-1.8232,-1.7984,-1.7911,-1.7852,-1.7681,-1.7628,-1.7562,-1.7434,-1.7154,-1.6974,-1.6947,-1.6941,-1.6934,-1.6881,-1.6827,-1.682,-1.6754,-1.66,-1.6386,-1.6186,-1.5892,-1.5558,-1.5511,-1.5411,-1.5256,-1.513,-1.5129,-1.5129,-1.5055,-1.4963,-1.4867,-1.4681,-1.4546,-1.4366,-1.4018,-1.3656,-1.3377,-1.319,-1.3082,-1.3015,-1.2837,-1.2634,-1.2412,-1.219,-1.1957,-1.1724,-1.1584,-1.1413,-1.1083,-1.0704,-1.0477,-1.0292,-0.9921,-0.96,-0.9317,-0.9045,-0.8796,-0.8524,-0.8124,-0.7837,-0.7629,-0.7252,-0.6873,-0.6553,-0.6317,-0.5981,-0.5649,-0.528,-0.4966,-0.483,-0.421,-0.381,-0.3582,-0.3255,-0.2805,-0.2293,-0.1951,-0.1493,-0.0794,-0.0633,-0.0314,0.0236,0.0471,0.0707,0.0983,0.1258,0.1454,0.1847,0.2196,0.2574,0.2878,0.2983,0.3264,-2.2104,-2.2125,-2.1775,-2.1535,-2.1219,-2.0938,-2.0623,-2.042,-2.0342,-2.0335,-2.0277,-1.9982,-1.9795,-1.9777,-1.9695,-1.9438,-1.8919,-1.8851,-1.8714,-1.848,-1.8197,-1.8029,-1.8009,-1.7729,-1.7655,-1.7722,-1.7728,-1.7649,-1.7675,-1.7582,-1.7555,-1.7535,-1.7502,-1.7522,-1.7468,-1.7293,-1.7179,-1.7152,-1.6901,-1.6714,-1.6687,-1.6673,-1.633,-1.5851,-1.5764,-1.5798,-1.5698,-1.5518,-1.5378,-1.5378,-1.5137,-1.49,-1.4656,-1.4617,-1.4411,-1.3997,-1.368,-1.3441,-1.3225,-1.3145,-1.3049,-1.2871,-1.2781,-1.2674,-1.2443,-1.2319,-1.2078,-1.1638,-1.1356,-1.1029,-1.0632,-1.0506,-1.0301,-0.9923,-0.9622,-0.9303,-0.907,-0.8859,-0.8485,-0.8124,-0.7947,-0.7799,-0.7637,-0.7346,-0.6972,-0.6707,-0.6447,-0.6093,-0.5547,-0.5201,-0.4886,-0.4433,-0.3987,-0.3631,-0.3535,-0.3145,-0.2623,-0.2195,-0.1723,-0.1223,-0.0848,-0.044,0.0,0.0354,0.055,0.0786,0.114,0.1375,0.1533,0.1847,0.2238,0.2577,0.2837,0.2971,0.3225,-2.2104,-2.2097,-2.1992,-2.1768,-2.1474,-2.1301,-2.1033,-2.0578,-2.0337,-2.0168,-1.9952,-1.9649,-1.9533,-1.9526,-1.954,-1.9323,-1.8926,-1.8744,-1.8594,-1.8477,-1.8377,-1.833,-1.8317,-1.821,-1.8163,-1.8163,-1.8163,-1.8163,-1.8136,-1.7976,-1.7829,-1.7836,-1.7675,-1.7589,-1.7569,-1.7482,-1.7474,-1.7408,-1.7308,-1.7174,-1.7007,-1.679,-1.6498,-1.6124,-1.6115,-1.6112,-1.6112,-1.5832,-1.5577,-1.5477,-1.5378,-1.5198,-1.4958,-1.4771,-1.449,-1.4209,-1.3932,-1.3696,-1.3602,-1.3265,-1.3062,-1.2955,-1.2731,-1.2512,-1.2349,-1.2073,-1.1731,-1.1389,-1.11,-1.071,-1.0303,-1.0202,-1.0105,-0.9912,-0.9526,-0.9227,-0.9098,-0.8754,-0.8411,-0.8202,-0.799,-0.7733,-0.7477,-0.7181,-0.682,-0.6543,-0.6301,-0.5966,-0.5603,-0.5294,-0.4908,-0.4403,-0.3898,-0.3496,-0.3136,-0.2857,-0.2477,-0.2092,-0.1708,-0.1211,-0.0782,-0.0365,0.012,0.0435,0.0631,0.0864,0.1218,0.1533,0.1691,0.1847,0.2238,0.255,0.2785,0.2943,0.3217,-2.1796,-2.1796,-2.1796,-2.1617,-2.1293,-2.1286,-2.0997,-2.0543,-2.0344,-2.0069,-1.9832,-1.9616,-1.9459,-1.9437,-1.9424,-1.9272,-1.9065,-1.8865,-1.8771,-1.8764,-1.8671,-1.8631,-1.8611,-1.8537,-1.8497,-1.849,-1.8497,-1.8497,-1.8477,-1.829,-1.8196,-1.817,-1.7969,-1.7929,-1.7876,-1.7876,-1.7842,-1.7756,-1.7676,-1.7477,-1.7179,-1.6879,-1.6633,-1.6426,-1.6356,-1.6259,-1.6173,-1.5976,-1.5722,-1.5553,-1.5492,-1.5358,-1.4994,-1.4742,-1.4496,-1.4298,-1.4064,-1.3835,-1.3738,-1.3346,-1.3044,-1.2856,-1.2613,-1.2322,-1.2175,-1.1731,-1.134,-1.1096,-1.0752,-1.0359,-1.0068,-0.9867,-0.9727,-0.9723,-0.943,-0.9137,-0.8935,-0.8627,-0.8372,-0.8206,-0.8038,-0.7746,-0.7485,-0.7169,-0.6867,-0.653,-0.6236,-0.5905,-0.5577,-0.5235,-0.4833,-0.4219,-0.3825,-0.3366,-0.2959,-0.2551,-0.2189,-0.1853,-0.1435,-0.1023,-0.067,-0.0206,0.0163,0.0519,0.0751,0.0984,0.1297,0.1612,0.1808,0.1925,0.2199,0.2549,0.2746,0.2943,0.3178,-2.1109,-2.1166,-2.1102,-2.1018,-2.0852,-2.0839,-2.0521,-2.0321,-2.0234,-2.0134,-1.9879,-1.98,-1.9673,-1.9459,-1.9497,-1.9444,-1.9424,-1.9299,-1.933,-1.9316,-1.9038,-1.8925,-1.8911,-1.8698,-1.8591,-1.8584,-1.8537,-1.8531,-1.8571,-1.8524,-1.8497,-1.849,-1.8444,-1.8377,-1.8457,-1.839,-1.8303,-1.8001,-1.7766,-1.7473,-1.7225,-1.6914,-1.667,-1.6626,-1.6385,-1.6177,-1.5935,-1.5884,-1.5775,-1.5522,-1.5496,-1.5272,-1.4799,-1.4521,-1.4334,-1.428,-1.4063,-1.3767,-1.3531,-1.3256,-1.2889,-1.2601,-1.2407,-1.2203,-1.1776,-1.1412,-1.1166,-1.0829,-1.0425,-1.0061,-0.997,-0.9581,-0.9321,-0.9187,-0.9183,-0.8935,-0.8584,-0.8432,-0.8283,-0.8084,-0.7968,-0.7885,-0.7637,-0.7301,-0.6996,-0.6626,-0.626,-0.5785,-0.5446,-0.5085,-0.4553,-0.3959,-0.3601,-0.3298,-0.2792,-0.2289,-0.1929,-0.152,-0.1102,-0.0737,-0.0471,-0.0042,0.029,0.0612,0.088,0.1114,0.1336,0.1651,0.1886,0.2004,0.2315,0.251,0.2628,0.2824,0.3022,-2.1102,-2.1102,-2.1102,-2.1062,-2.0982,-2.0975,-2.0808,-2.0548,-2.0541,-2.0368,-2.014,-2.0094,-2.004,-1.9927,-1.9766,-1.9659,-1.9646,-1.9531,-1.9424,-1.9424,-1.933,-1.9219,-1.9199,-1.9189,-1.9098,-1.9149,-1.9092,-1.9149,-1.9045,-1.8885,-1.8791,-1.8758,-1.8591,-1.8497,-1.8517,-1.849,-1.8313,-1.8026,-1.7945,-1.7734,-1.7418,-1.6961,-1.6705,-1.668,-1.6277,-1.598,-1.5894,-1.5915,-1.5771,-1.5526,-1.552,-1.5332,-1.5015,-1.4698,-1.4598,-1.4548,-1.4159,-1.3864,-1.3758,-1.3288,-1.2976,-1.2789,-1.2481,-1.2131,-1.1776,-1.1457,-1.1147,-1.0748,-1.0506,-1.025,-0.9891,-0.9686,-0.9435,-0.9214,-0.8882,-0.8641,-0.8435,-0.8237,-0.8088,-0.8038,-0.7988,-0.7789,-0.7437,-0.7235,-0.7021,-0.6586,-0.6176,-0.5841,-0.5458,-0.5017,-0.4464,-0.3864,-0.359,-0.319,-0.2627,-0.2166,-0.1803,-0.1348,-0.0934,-0.0573,-0.0305,0.0086,0.0423,0.0748,0.0978,0.1206,0.1469,0.1655,0.1894,0.2124,0.2357,0.2473,0.255,0.2707,0.2943,-2.1102,-2.1102,-2.1102,-2.1102,-2.1102,-2.1102,-2.1009,-2.0855,-2.0835,-2.0668,-2.0441,-2.0401,-2.0334,-2.0214,-2.0034,-1.9967,-1.9947,-1.9766,-1.9686,-1.9639,-1.9484,-1.943,-1.9424,-1.9424,-1.9424,-1.9424,-1.9424,-1.9424,-1.9417,-1.9185,-1.9092,-1.9052,-1.8905,-1.8824,-1.8818,-1.8692,-1.8483,-1.8147,-1.7959,-1.7684,-1.7346,-1.6913,-1.6716,-1.6625,-1.629,-1.6048,-1.606,-1.5882,-1.5708,-1.5501,-1.5308,-1.5101,-1.4949,-1.4683,-1.4536,-1.444,-1.414,-1.3833,-1.368,-1.3238,-1.29,-1.2699,-1.2385,-1.2019,-1.1709,-1.1403,-1.104,-1.0681,-1.0356,-1.0108,-0.9791,-0.9481,-0.9331,-0.9103,-0.8765,-0.8453,-0.8307,-0.8088,-0.8038,-0.7988,-0.7892,-0.764,-0.7338,-0.7089,-0.6889,-0.6437,-0.6087,-0.5827,-0.5452,-0.4967,-0.4388,-0.3842,-0.3434,-0.2971,-0.2372,-0.1952,-0.1629,-0.1216,-0.0761,-0.049,-0.0221,0.0262,0.0687,0.0927,0.1159,0.132,0.1551,0.1727,0.1918,0.2143,0.2372,0.2473,0.255,0.2746,0.2943,-2.1102,-2.1102,-2.1102,-2.1102,-2.1102,-2.1102,-2.1096,-2.1096,-2.1082,-2.0929,-2.0735,-2.0702,-2.0568,-2.0341,-2.0294,-2.0261,-2.018,-2.012,-2.014,-2.0027,-1.9733,-1.9564,-1.9571,-1.9519,-1.9526,-1.9551,-1.9537,-1.9466,-1.9512,-1.9479,-1.9477,-1.9446,-1.9439,-1.9392,-1.9294,-1.9068,-1.8737,-1.8281,-1.7849,-1.7502,-1.7179,-1.6899,-1.6718,-1.6706,-1.6403,-1.6247,-1.6102,-1.5761,-1.5512,-1.5431,-1.5009,-1.4818,-1.4657,-1.4424,-1.4265,-1.4282,-1.4043,-1.3767,-1.3483,-1.3174,-1.2796,-1.2442,-1.2234,-1.2011,-1.1547,-1.1207,-1.0941,-1.0621,-1.0136,-0.9805,-0.9651,-0.9346,-0.9008,-0.886,-0.8722,-0.8486,-0.8146,-0.8029,-0.8029,-0.7969,-0.7806,-0.749,-0.7238,-0.6992,-0.6692,-0.6339,-0.5937,-0.5677,-0.5363,-0.487,-0.4279,-0.3838,-0.3405,-0.2841,-0.2281,-0.1972,-0.1646,-0.1091,-0.0677,-0.0448,-0.0134,0.0353,0.0827,0.1069,0.1269,0.1434,0.1629,0.1807,0.1995,0.2237,0.2375,0.2454,0.261,0.2791,0.2994,-2.1102,-2.1102,-2.1102,-2.1102,-2.1102,-2.1102,-2.1102,-2.1102,-2.1102,-2.1056,-2.0995,-2.0995,-2.0935,-2.0855,-2.0641,-2.0561,-2.0521,-2.0347,-2.0173,-2.0153,-2.01,-2.0007,-2.0007,-2.0,-1.9987,-1.9973,-1.9947,-2.0007,-2.0,-1.996,-1.9973,-2.0007,-1.99,-1.9688,-1.9351,-1.9187,-1.8809,-1.8183,-1.7977,-1.7707,-1.7429,-1.7126,-1.6876,-1.6612,-1.6381,-1.6084,-1.5893,-1.5612,-1.5309,-1.5127,-1.4993,-1.4947,-1.4866,-1.4596,-1.4414,-1.4367,-1.4023,-1.3725,-1.3555,-1.3171,-1.2856,-1.271,-1.2287,-1.1904,-1.1576,-1.1248,-1.0978,-1.0712,-1.0337,-1.0,-0.9787,-0.9457,-0.9147,-0.8816,-0.8632,-0.8515,-0.8395,-0.8272,-0.8208,-0.8201,-0.7818,-0.7525,-0.7203,-0.6954,-0.6598,-0.6192,-0.5837,-0.5534,-0.5277,-0.467,-0.4029,-0.3738,-0.3353,-0.2791,-0.2328,-0.2007,-0.157,-0.101,-0.0636,-0.0449,-0.009,0.0402,0.0836,0.1257,0.1297,0.1465,0.1655,0.1836,0.2041,0.2292,0.2479,0.2576,0.2676,0.2818,0.3057,-2.1102,-2.1102,-2.1102,-2.1102,-2.1102,-2.1102,-2.1102,-2.1102,-2.1102,-2.1102,-2.1102,-2.1102,-2.1102,-2.1082,-2.0929,-2.0862,-2.0828,-2.0681,-2.0615,-2.0608,-2.0608,-2.0406,-2.0233,-2.0173,-2.0173,-2.0173,-2.018,-2.0167,-2.0153,-2.0173,-2.0113,-1.9971,-1.9998,-1.9711,-1.932,-1.912,-1.8816,-1.8313,-1.8089,-1.7891,-1.7689,-1.7277,-1.6989,-1.6681,-1.6367,-1.5972,-1.5564,-1.5423,-1.5292,-1.5127,-1.4937,-1.4821,-1.4821,-1.4557,-1.439,-1.4229,-1.3856,-1.364,-1.3374,-1.3044,-1.2767,-1.2545,-1.2169,-1.1841,-1.1446,-1.1181,-1.0966,-1.057,-1.0257,-0.9981,-0.9651,-0.9379,-0.9061,-0.8869,-0.8726,-0.8618,-0.8503,-0.8404,-0.8312,-0.813,-0.7824,-0.7439,-0.719,-0.6875,-0.6491,-0.6107,-0.5787,-0.5489,-0.5188,-0.4483,-0.3972,-0.373,-0.3261,-0.2647,-0.2235,-0.1913,-0.145,-0.0883,-0.0503,-0.0316,0.0045,0.0495,0.0846,0.1235,0.1322,0.1447,0.1644,0.184,0.2089,0.2341,0.2542,0.27,0.2745,0.2804,0.3054,-2.1102,-2.1102,-2.1102,-2.1102,-2.1102,-2.1102,-2.1102,-2.1102,-2.1102,-2.1102,-2.1102,-2.1102,-2.1102,-2.1102,-2.1069,-2.1089,-2.1089,-2.1022,-2.1049,-2.1029,-2.0995,-2.0815,-2.04,-2.0434,-2.0366,-2.0353,-2.028,-2.0313,-2.0305,-2.0265,-2.0049,-1.9924,-1.9788,-1.9582,-1.9244,-1.8925,-1.8735,-1.8496,-1.8197,-1.7925,-1.7751,-1.7375,-1.7008,-1.6726,-1.6279,-1.5838,-1.5515,-1.5337,-1.5282,-1.5399,-1.4914,-1.469,-1.4608,-1.4321,-1.4072,-1.379,-1.3617,-1.3315,-1.2935,-1.2772,-1.255,-1.2114,-1.1946,-1.1673,-1.1236,-1.1017,-1.0747,-1.0417,-0.9981,-0.9655,-0.9379,-0.9051,-0.8989,-0.8906,-0.8913,-0.8794,-0.8611,-0.8516,-0.8401,-0.8082,-0.7815,-0.7427,-0.7102,-0.6787,-0.6497,-0.6014,-0.5735,-0.542,-0.5054,-0.4384,-0.4033,-0.3822,-0.3206,-0.25,-0.2129,-0.1764,-0.1245,-0.0752,-0.0322,-0.0045,0.0271,0.0632,0.0944,0.1207,0.1335,0.1468,0.16,0.1851,0.2141,0.235,0.2559,0.266,0.2767,0.2798,0.2937,-2.1102,-2.1102,-2.1102,-2.1102,-2.1102,-2.1102,-2.1102,-2.1102,-2.1102,-2.1102,-2.1102,-2.1102,-2.1102,-2.1102,-2.1102,-2.1102,-2.1102,-2.1102,-2.1102,-2.1102,-2.1102,-2.1062,-2.0839,-2.0813,-2.0833,-2.0826,-2.0846,-2.0721,-2.0526,-2.0417,-2.0357,-2.0016,-1.9896,-1.9745,-1.9237,-1.9082,-1.8852,-1.8447,-1.8227,-1.8075,-1.7838,-1.7455,-1.7014,-1.656,-1.5996,-1.5687,-1.5541,-1.5326,-1.5207,-1.5161,-1.4988,-1.4729,-1.4447,-1.4264,-1.397,-1.3648,-1.3252,-1.29,-1.2559,-1.236,-1.206,-1.1754,-1.1522,-1.124,-1.1126,-1.0692,-1.0472,-1.0198,-0.9816,-0.9379,-0.9103,-0.8937,-0.8937,-0.8937,-0.8881,-0.8861,-0.878,-0.8676,-0.8511,-0.8217,-0.7827,-0.7481,-0.7188,-0.6871,-0.6498,-0.5992,-0.5639,-0.5362,-0.4877,-0.4295,-0.4034,-0.3835,-0.3124,-0.241,-0.2148,-0.1681,-0.1068,-0.0619,-0.0233,0.0092,0.0413,0.068,0.0903,0.117,0.1389,0.148,0.1569,0.1927,0.2217,0.2395,0.257,0.2727,0.2801,0.2815,0.2942,-2.1102,-2.1102,-2.1102,-2.1102,-2.1102,-2.1102,-2.1102,-2.1102,-2.1102,-2.1102,-2.1102,-2.1102,-2.1102,-2.1102,-2.1102,-2.1102,-2.1102,-2.1102,-2.1102,-2.1046,-2.0982,-2.0856,-2.0799,-2.0729,-2.0672,-2.0792,-2.0659,-2.0545,-2.0418,-2.0354,-2.0138,-1.9909,-1.9845,-1.9567,-1.9202,-1.9171,-1.899,-1.8674,-1.8398,-1.8152,-1.7987,-1.7413,-1.6823,-1.6326,-1.5943,-1.5725,-1.5585,-1.5488,-1.5301,-1.52,-1.5046,-1.4813,-1.4406,-1.4153,-1.3862,-1.3546,-1.3201,-1.2845,-1.2506,-1.2146,-1.1824,-1.1538,-1.1245,-1.0975,-1.0802,-1.0421,-1.0147,-0.9926,-0.9599,-0.9272,-0.8937,-0.8937,-0.8937,-0.8937,-0.8937,-0.8937,-0.8868,-0.8752,-0.8487,-0.8205,-0.7835,-0.7439,-0.7183,-0.6891,-0.6505,-0.5996,-0.5592,-0.531,-0.4818,-0.428,-0.3942,-0.3583,-0.2927,-0.2417,-0.221,-0.1641,-0.0833,-0.0434,-0.0143,0.0141,0.0375,0.06,0.0818,0.1085,0.135,0.1391,0.1525,0.1885,0.22,0.2326,0.2502,0.2735,0.2914,0.285,0.3068,-2.1102,-2.1102,-2.1102,-2.1102,-2.1102,-2.1102,-2.1102,-2.1102,-2.1102,-2.1102,-2.1102,-2.1102,-2.1102,-2.1102,-2.1102,-2.1102,-2.1109,-2.0976,-2.0982,-2.0919,-2.0672,-2.0545,-2.0482,-2.0291,-2.0164,-2.0418,-2.0291,-2.0164,-2.0036,-2.0043,-1.9845,-1.9584,-1.952,-1.9374,-1.9194,-1.9008,-1.8966,-1.8836,-1.8439,-1.8104,-1.7931,-1.7292,-1.6685,-1.6192,-1.6077,-1.5935,-1.5801,-1.5698,-1.5531,-1.5168,-1.5077,-1.4795,-1.4431,-1.4095,-1.3742,-1.3451,-1.3051,-1.2709,-1.2336,-1.2038,-1.1677,-1.1395,-1.1162,-1.0828,-1.0485,-1.02,-0.9909,-0.9607,-0.9323,-0.9217,-0.8937,-0.8937,-0.8937,-0.8937,-0.8937,-0.8881,-0.8768,-0.8598,-0.8306,-0.8085,-0.7773,-0.7445,-0.7138,-0.6839,-0.6442,-0.6049,-0.5693,-0.5207,-0.4663,-0.4268,-0.3933,-0.3445,-0.2786,-0.202,-0.1711,-0.1558,-0.0743,0.0,0.0,0.0,0.0,0.0471,0.0694,0.1045,0.1263,0.1351,0.1482,0.1795,0.2019,0.22,0.2424,0.2694,0.283,0.2875,0.3187,-2.1102,-2.1102,-2.1102,-2.1102,-2.1102,-2.1102,-2.1102,-2.1102,-2.1102,-2.1102,-2.1102,-2.1102,-2.1102,-2.1102,-2.1102,-2.1102,-2.0989,-2.0856,-2.0729,-2.0672,-2.0354,-2.0164,-2.01,-1.9839,-1.9775,-1.9839,-1.9909,-1.9909,-1.9711,-1.9647,-1.952,-1.9264,-1.92,-1.9136,-1.9014,-1.8828,-1.8693,-1.8629,-1.8227,-1.7878,-1.7629,-1.7276,-1.6792,-1.6342,-1.6253,-1.6204,-1.6134,-1.5989,-1.5771,-1.5463,-1.4931,-1.457,-1.4272,-1.4005,-1.3567,-1.3126,-1.2797,-1.2449,-1.2077,-1.1791,-1.1527,-1.129,-1.0947,-1.0697,-1.0397,-1.001,-0.9693,-0.9439,-0.9186,-0.9002,-0.8937,-0.8944,-0.8937,-0.8937,-0.8881,-0.8768,-0.8598,-0.8322,-0.8103,-0.7937,-0.7715,-0.7435,-0.7058,-0.6751,-0.6376,-0.6046,-0.5656,-0.5116,-0.4552,-0.4191,-0.3883,-0.3286,-0.2649,-0.1876,-0.1161,-0.1059,0.0,0.0,0.0,0.0,0.0,0.0,0.0566,0.0931,0.119,0.1361,0.1537,0.1762,0.1946,0.2186,0.24,0.2653,0.2794,0.2936,0.3144,-2.1102,-2.1102,-2.1102,-2.1102,-2.1102,-2.1102,-2.1102,-2.1102,-2.1102,-2.1102,-2.1102,-2.1102,-2.1102,-2.1102,-2.1102,-2.0982,-2.0799,-2.0672,-2.0482,-2.0291,-2.0036,-1.9845,-1.9845,-1.952,-1.9392,-1.9392,-1.9526,-1.9526,-1.9392,-1.9328,-1.927,-1.9136,-1.9136,-1.9014,-1.8892,-1.8699,-1.8437,-1.8238,-1.7916,-1.7658,-1.747,-1.7257,-1.6843,-1.6617,-1.6484,-1.6436,-1.6239,-1.6041,-1.5704,-1.5355,-1.4882,-1.4423,-1.4099,-1.3734,-1.3414,-1.3045,-1.2663,-1.2316,-1.1879,-1.1666,-1.1249,-1.1062,-1.0713,-1.039,-1.0154,-0.9835,-0.9624,-0.9398,-0.9241,-0.9049,-0.9055,-0.8994,-0.8944,-0.8881,-0.8771,-0.866,-0.8429,-0.8045,-0.7881,-0.7771,-0.749,-0.7213,-0.6937,-0.6637,-0.6347,-0.5978,-0.5656,-0.5068,-0.443,-0.4105,-0.3892,-0.3182,-0.2532,-0.179,-0.1068,-0.0863,-0.0607,0.0,0.0,0.0,0.0,0.0,0.0484,0.0816,0.1084,0.1252,0.153,0.1724,0.195,0.2171,0.2392,0.2609,0.2823,0.2994,0.3213,-2.1102,-2.1102,-2.1102,-2.1102,-2.1102,-2.1102,-2.1102,-2.1102,-2.1102,-2.1102,-2.1102,-2.1102,-2.1102,-2.1039,-2.0982,-2.0856,-2.0609,-2.0482,-2.0221,-1.9966,-1.9647,-1.952,-1.9392,-1.927,-1.9078,-1.9014,-1.9014,-1.9014,-1.9142,-1.9078,-1.9014,-1.895,-1.8944,-1.8752,-1.8501,-1.8314,-1.8173,-1.791,-1.7588,-1.74,-1.7335,-1.7125,-1.6926,-1.6759,-1.6732,-1.6646,-1.6339,-1.6039,-1.569,-1.5249,-1.4804,-1.443,-1.3972,-1.3443,-1.3152,-1.2958,-1.2505,-1.2238,-1.1831,-1.1515,-1.1134,-1.0948,-1.0538,-1.0175,-0.9928,-0.9794,-0.9589,-0.9415,-0.9286,-0.9258,-0.9188,-0.9103,-0.9032,-0.8935,-0.8709,-0.8464,-0.8276,-0.7989,-0.766,-0.7493,-0.7268,-0.7046,-0.6771,-0.6548,-0.6255,-0.5859,-0.5482,-0.5088,-0.4494,-0.4219,-0.3848,-0.3076,-0.2362,-0.1708,-0.1181,-0.092,-0.0559,0.0,0.0,0.0,0.0,0.0,0.0445,0.0687,0.088,0.1109,0.1397,0.1671,0.189,0.2112,0.2386,0.2612,0.2881,0.3056,0.3232,-2.1102,-2.1102,-2.1102,-2.1102,-2.1102,-2.1102,-2.1102,-2.1102,-2.1102,-2.1102,-2.1102,-2.1102,-2.1109,-2.0982,-2.0799,-2.0672,-2.0418,-2.003,-1.9769,-1.9641,-1.9328,-1.92,-1.9136,-1.9136,-1.8886,-1.8693,-1.8635,-1.8828,-1.8886,-1.8758,-1.8699,-1.8629,-1.8366,-1.8098,-1.8109,-1.7922,-1.7599,-1.7529,-1.7271,-1.7071,-1.7066,-1.7007,-1.698,-1.6958,-1.6942,-1.6786,-1.6439,-1.6127,-1.579,-1.5189,-1.4891,-1.4471,-1.3862,-1.334,-1.2882,-1.2625,-1.2291,-1.1993,-1.1571,-1.1294,-1.1034,-1.0789,-1.0459,-1.0232,-1.0013,-0.9721,-0.9487,-0.9436,-0.9361,-0.9357,-0.9351,-0.9327,-0.9256,-0.9067,-0.8791,-0.8445,-0.8168,-0.7821,-0.7483,-0.729,-0.7126,-0.689,-0.6662,-0.6439,-0.6158,-0.5764,-0.5312,-0.491,-0.4448,-0.4116,-0.3684,-0.29,-0.2296,-0.1634,-0.1199,-0.0933,-0.0565,-0.0102,0.0,0.0,0.0,0.0,0.0201,0.045,0.0698,0.0989,0.1317,0.1593,0.1819,0.2055,0.2294,0.2621,0.2992,0.312,0.3241,-2.1102,-2.1102,-2.1102,-2.1102,-2.1102,-2.1102,-2.1102,-2.1102,-2.1102,-2.1102,-2.1102,-2.1109,-2.0989,-2.0799,-2.0672,-2.0354,-2.003,-1.9705,-1.952,-1.9328,-1.9142,-1.902,-1.8828,-1.8828,-1.8635,-1.8366,-1.8238,-1.8302,-1.8425,-1.8361,-1.8238,-1.8238,-1.8109,-1.791,-1.7723,-1.7594,-1.74,-1.7265,-1.7066,-1.7001,-1.7001,-1.7001,-1.7001,-1.7001,-1.7001,-1.6812,-1.6467,-1.6162,-1.5827,-1.5277,-1.4797,-1.4306,-1.387,-1.3304,-1.2811,-1.2669,-1.2073,-1.163,-1.1353,-1.116,-1.0853,-1.0547,-1.0243,-0.9963,-0.9901,-0.9786,-0.9618,-0.9635,-0.9554,-0.9517,-0.9486,-0.9425,-0.9245,-0.9073,-0.8823,-0.8437,-0.8025,-0.7624,-0.7325,-0.7124,-0.6926,-0.6751,-0.6456,-0.6163,-0.594,-0.5601,-0.5206,-0.481,-0.4193,-0.362,-0.3243,-0.2714,-0.2161,-0.1612,-0.1223,-0.0843,-0.0574,0.0,0.0,0.0,0.0,0.0,0.0,0.0354,0.0654,0.0946,0.1279,0.1525,0.1771,0.201,0.2247,0.2578,0.2902,0.3106,0.328,-2.1102,-2.1102,-2.1102,-2.1102,-2.1102,-2.1102,-2.1102,-2.1102,-2.1102,-2.1102,-2.1039,-2.0982,-2.0792,-2.0609,-2.0418,-2.003,-1.9641,-1.9514,-1.9328,-1.9142,-1.9014,-1.8828,-1.8635,-1.8507,-1.8238,-1.7905,-1.7916,-1.7846,-1.7776,-1.7781,-1.7781,-1.7846,-1.7717,-1.7588,-1.7464,-1.7335,-1.7271,-1.7066,-1.7001,-1.7001,-1.7001,-1.7001,-1.7001,-1.7007,-1.6877,-1.6753,-1.6369,-1.6034,-1.5714,-1.5214,-1.4665,-1.4185,-1.3895,-1.3369,-1.2758,-1.2522,-1.1944,-1.1503,-1.1195,-1.0875,-1.0504,-1.0243,-1.0001,-0.9815,-0.9812,-0.9819,-0.9815,-0.9785,-0.972,-0.9669,-0.9642,-0.9557,-0.9327,-0.9056,-0.8728,-0.8359,-0.8035,-0.7662,-0.732,-0.7073,-0.6806,-0.6512,-0.6266,-0.5895,-0.5661,-0.5382,-0.5044,-0.4706,-0.4033,-0.3306,-0.2952,-0.2584,-0.2087,-0.1585,-0.1135,-0.0803,-0.0477,0.0,0.0,0.0,0.0,0.0,0.0,0.0305,0.0608,0.0805,0.1097,0.1356,0.1666,0.195,0.2233,0.2476,0.2705,0.3012,0.3337,-2.1102,-2.1102,-2.1102,-2.1102,-2.1102,-2.1102,-2.1102,-2.1102,-2.1102,-2.1109,-2.0982,-2.0799,-2.0666,-2.0412,-2.003,-1.9705,-1.9577,-1.9264,-1.9142,-1.9014,-1.8828,-1.8641,-1.8442,-1.8115,-1.7846,-1.7588,-1.7529,-1.7394,-1.7195,-1.726,-1.733,-1.7464,-1.733,-1.7136,-1.7071,-1.7136,-1.7136,-1.7001,-1.7001,-1.7001,-1.7001,-1.7001,-1.7001,-1.6936,-1.6688,-1.6369,-1.6039,-1.5784,-1.5398,-1.5001,-1.4497,-1.4148,-1.3774,-1.3276,-1.2745,-1.2254,-1.1936,-1.1448,-1.1058,-1.0667,-1.0207,-0.9947,-0.9822,-0.9819,-0.9819,-0.9819,-0.9819,-0.9819,-0.9778,-0.9781,-0.9785,-0.9717,-0.943,-0.9086,-0.8688,-0.8361,-0.8027,-0.7727,-0.7386,-0.7018,-0.6736,-0.6439,-0.61,-0.579,-0.5618,-0.5388,-0.4875,-0.448,-0.3811,-0.3139,-0.2861,-0.2512,-0.2066,-0.1554,-0.1041,-0.0707,-0.0487,0.0,0.0,0.0,0.0,0.0,0.0,0.0205,0.046,0.0661,0.091,0.1315,0.1669,0.197,0.2215,0.2503,0.285,0.3278,0.3575,-2.1102,-2.1102,-2.1102,-2.1102,-2.1102,-2.1102,-2.1102,-2.1102,-2.1102,-2.0982,-2.0799,-2.0672,-2.0348,-2.003,-1.9769,-1.945,-1.9328,-1.92,-1.895,-1.8828,-1.8635,-1.8314,-1.8056,-1.7787,-1.7523,-1.7265,-1.7206,-1.7141,-1.7066,-1.7001,-1.7007,-1.7071,-1.7071,-1.7007,-1.7001,-1.7001,-1.7001,-1.7001,-1.7001,-1.7001,-1.7001,-1.7001,-1.7001,-1.7001,-1.6688,-1.6364,-1.6039,-1.5658,-1.5197,-1.467,-1.4272,-1.3945,-1.3621,-1.3139,-1.2657,-1.2176,-1.1839,-1.1384,-1.0998,-1.0576,-1.0238,-0.989,-0.9819,-0.9822,-0.9825,-0.9819,-0.9819,-0.9819,-0.9819,-0.9819,-0.9819,-0.9633,-0.9294,-0.9029,-0.8693,-0.8359,-0.8016,-0.7717,-0.7393,-0.7082,-0.6718,-0.6471,-0.6074,-0.5745,-0.5564,-0.5338,-0.4823,-0.4201,-0.3586,-0.3027,-0.2748,-0.2356,-0.1907,-0.1514,-0.0997,-0.0718,-0.0496,0.0,0.0,0.0,0.0,0.0,0.0,0.0,0.0414,0.067,0.0974,0.1322,0.1621,0.1821,0.2172,0.2571,0.2975,0.3432,0.3734,-2.1102,-2.1102,-2.1102,-2.1102,-2.1102,-2.1102,-2.1102,-2.1102,-2.1102,-2.0919,-2.0609,-2.0412,-2.0094,-1.9705,-1.945,-1.9328,-1.9142,-1.9014,-1.8822,-1.8571,-1.8308,-1.7992,-1.7664,-1.74,-1.7201,-1.7007,-1.7001,-1.7001,-1.7001,-1.7001,-1.7007,-1.7007,-1.7001,-1.7001,-1.7001,-1.7001,-1.7001,-1.7001,-1.7001,-1.7001,-1.7001,-1.7001,-1.6877,-1.6812,-1.6494,-1.6174,-1.5784,-1.5463,-1.5001,-1.4534,-1.4141,-1.3752,-1.3363,-1.2972,-1.251,-1.2134,-1.1749,-1.1276,-1.0937,-1.0612,-1.0305,-0.9937,-0.9903,-0.9876,-0.9836,-0.9822,-0.9819,-0.9819,-0.9819,-0.9819,-0.9758,-0.9518,-0.9275,-0.8942,-0.8641,-0.8311,-0.7997,-0.7653,-0.7399,-0.708,-0.676,-0.633,-0.6001,-0.5602,-0.5268,-0.5032,-0.4545,-0.3977,-0.3417,-0.2915,-0.2636,-0.2188,-0.1739,-0.1346,-0.0952,-0.0669,0.0,0.0,0.0,0.0,0.0,0.0,0.0,0.0,0.0368,0.0681,0.1044,0.1351,0.1488,0.162,0.2074,0.2579,0.3029,0.3432,0.3684,-2.1102,-2.1102,-2.1102,-2.1109,-2.1046,-2.1109,-2.1109,-2.1046,-2.0982,-2.0799,-2.0482,-1.9966,-1.9711,-1.952,-1.9264,-1.9136,-1.9014,-1.8758,-1.8594,-1.843,-1.806,-1.7633,-1.7466,-1.7299,-1.7223,-1.7033,-1.7087,-1.7136,-1.7071,-1.7125,-1.7098,-1.7028,-1.7033,-1.7001,-1.7001,-1.7001,-1.7001,-1.7001,-1.7001,-1.7001,-1.7001,-1.7001,-1.6877,-1.6558,-1.6299,-1.5979,-1.5593,-1.5132,-1.4735,-1.4338,-1.401,-1.3621,-1.3301,-1.2704,-1.2243,-1.1901,-1.1501,-1.1094,-1.0749,-1.049,-1.0236,-1.008,-1.0046,-1.0005,-0.9883,-0.9839,-0.9852,-0.9876,-0.9836,-0.9822,-0.97,-0.946,-0.9159,-0.8915,-0.8552,-0.8241,-0.7919,-0.7609,-0.7342,-0.7026,-0.6605,-0.6186,-0.58,-0.5452,-0.5042,-0.4678,-0.4281,-0.3759,-0.3205,-0.2859,-0.2581,-0.2019,-0.157,-0.1234,-0.0897,-0.0561,0.0,0.0,0.0,0.0,0.0,0.0,0.0,0.0,0.0374,0.0799,0.1065,0.133,0.1571,0.1854,0.2136,0.2535,0.3035,0.3383,0.3633,-2.1102,-2.1102,-2.1102,-2.0982,-2.0792,-2.0982,-2.0982,-2.0729,-2.0545,-2.0221,-1.996,-1.9641,-1.945,-1.9264,-1.9154,-1.9032,-1.8775,-1.8705,-1.8553,-1.8094,-1.7839,-1.7769,-1.7614,-1.7493,-1.7448,-1.7475,-1.7475,-1.7443,-1.7496,-1.7426,-1.7346,-1.7281,-1.7098,-1.7007,-1.7001,-1.7001,-1.7001,-1.7001,-1.7001,-1.7001,-1.7001,-1.7007,-1.6818,-1.6504,-1.6174,-1.5784,-1.5463,-1.4936,-1.4473,-1.4141,-1.3818,-1.3428,-1.3038,-1.2441,-1.2111,-1.178,-1.1383,-1.1049,-1.0777,-1.0585,-1.046,-1.0304,-1.0195,-1.0175,-1.0124,-1.0019,-0.9992,-0.9883,-0.9883,-0.9859,-0.9761,-0.9278,-0.8976,-0.879,-0.8485,-0.8119,-0.7805,-0.7564,-0.7309,-0.694,-0.6541,-0.6185,-0.5788,-0.536,-0.4911,-0.4546,-0.421,-0.36,-0.3026,-0.282,-0.2526,-0.1907,-0.1458,-0.1121,-0.0841,-0.0504,0.0,0.0,0.0,0.0,0.0,0.0,0.0,0.0,0.0,0.0921,0.1137,0.1457,0.1863,0.2152,0.2339,0.2616,0.311,0.3349,0.3482,-2.0919,-2.0926,-2.0799,-2.0609,-2.0482,-2.0799,-2.0729,-2.0425,-2.01,-1.9775,-1.9647,-1.9514,-1.9328,-1.916,-1.904,-1.8953,-1.8712,-1.8492,-1.8419,-1.8017,-1.7884,-1.7767,-1.7725,-1.7733,-1.7658,-1.7728,-1.7728,-1.7701,-1.7674,-1.7706,-1.7572,-1.7362,-1.7217,-1.7109,-1.705,-1.7001,-1.7001,-1.7001,-1.7001,-1.7001,-1.6936,-1.6877,-1.6623,-1.6304,-1.5979,-1.5654,-1.5197,-1.4735,-1.4207,-1.3879,-1.3555,-1.3169,-1.2708,-1.2312,-1.1978,-1.1582,-1.1251,-1.0916,-1.0714,-1.0711,-1.0585,-1.0473,-1.0395,-1.0331,-1.0287,-1.0178,-1.0144,-1.0086,-0.992,-0.9808,-0.9661,-0.9164,-0.8873,-0.8689,-0.8372,-0.8005,-0.775,-0.7505,-0.7143,-0.6837,-0.6462,-0.6109,-0.5718,-0.529,-0.4836,-0.4482,-0.4136,-0.3514,-0.2956,-0.2746,-0.2434,-0.1867,-0.1352,-0.1068,-0.073,-0.0392,0.0,0.0,0.0,0.0,0.0,0.0,0.0,0.0,0.0,0.0936,0.1266,0.1586,0.1952,0.2259,0.2454,0.2786,0.3202,0.3336,0.3429,-2.0609,-2.0545,-2.0234,-2.0106,-2.017,-2.0348,-2.0354,-2.0049,-1.9711,-1.9577,-1.9577,-1.92,-1.9102,-1.9092,-1.896,-1.887,-1.8713,-1.8384,-1.8278,-1.8127,-1.7936,-1.7844,-1.7798,-1.7825,-1.7879,-1.7819,-1.7814,-1.79,-1.7776,-1.7793,-1.7663,-1.748,-1.7378,-1.7238,-1.712,-1.7028,-1.7017,-1.7001,-1.7001,-1.6942,-1.6877,-1.6688,-1.6369,-1.6044,-1.5719,-1.5332,-1.4936,-1.4469,-1.4141,-1.3818,-1.3494,-1.2968,-1.2441,-1.1982,-1.1582,-1.1247,-1.085,-1.0784,-1.0721,-1.0721,-1.0714,-1.0626,-1.0561,-1.0443,-1.0361,-1.0324,-1.0287,-1.0239,-1.0151,-0.9847,-0.9623,-0.9233,-0.8854,-0.8535,-0.8211,-0.7955,-0.7752,-0.7447,-0.7021,-0.6655,-0.6285,-0.5896,-0.5523,-0.5091,-0.477,-0.4384,-0.4038,-0.3476,-0.2961,-0.273,-0.2362,-0.1782,-0.1314,-0.096,-0.062,-0.0282,0.0,0.0,0.0,0.0,0.0,0.0,0.0,0.0,0.0,0.1006,0.1391,0.1722,0.2053,0.2311,0.2617,0.2898,0.3267,0.3369,0.347,-2.0482,-2.0234,-2.0106,-1.9979,-1.9711,-1.9584,-1.9584,-1.9705,-1.9392,-1.9264,-1.9264,-1.9136,-1.904,-1.8971,-1.8917,-1.8662,-1.8467,-1.8256,-1.8186,-1.8126,-1.8055,-1.8089,-1.8153,-1.8186,-1.8143,-1.8207,-1.8202,-1.809,-1.8169,-1.8089,-1.7976,-1.7889,-1.7577,-1.7389,-1.7233,-1.7093,-1.7044,-1.7001,-1.7001,-1.6877,-1.6753,-1.6564,-1.6174,-1.5784,-1.5528,-1.5137,-1.467,-1.4207,-1.3884,-1.356,-1.3165,-1.2704,-1.2375,-1.1978,-1.1582,-1.092,-1.0721,-1.0721,-1.0721,-1.0721,-1.0721,-1.0721,-1.0666,-1.0663,-1.0578,-1.0493,-1.0432,-1.0385,-1.024,-0.9979,-0.9627,-0.9249,-0.886,-0.8448,-0.8121,-0.7919,-0.7709,-0.7301,-0.6931,-0.6469,-0.6037,-0.5732,-0.5423,-0.5112,-0.4792,-0.4367,-0.3928,-0.3416,-0.2959,-0.2724,-0.2285,-0.1695,-0.1277,-0.0919,-0.0572,0.0,0.0,0.0,0.0,0.0,0.0,0.0,0.0,0.0392,0.0785,0.1234,0.1681,0.1958,0.2179,0.2517,0.2829,0.3058,0.329,0.3393,0.3652,-2.0094,-1.9903,-1.9781,-1.9584,-1.9392,-1.92,-1.9142,-1.92,-1.9136,-1.9014,-1.8886,-1.8892,-1.8841,-1.8673,-1.8608,-1.8518,-1.8411,-1.835,-1.8264,-1.8255,-1.8212,-1.8293,-1.8401,-1.8433,-1.8401,-1.8433,-1.8433,-1.8374,-1.8396,-1.832,-1.8202,-1.8046,-1.7749,-1.7566,-1.7389,-1.7233,-1.7109,-1.7044,-1.6942,-1.6812,-1.6623,-1.6369,-1.5979,-1.5528,-1.5267,-1.48,-1.4403,-1.401,-1.3625,-1.3301,-1.2968,-1.2441,-1.2045,-1.1644,-1.1251,-1.0721,-1.0721,-1.0721,-1.0721,-1.0721,-1.0721,-1.0721,-1.0721,-1.0711,-1.069,-1.0622,-1.0595,-1.0558,-1.0317,-1.0037,-0.9627,-0.9276,-0.8825,-0.8446,-0.8174,-0.7969,-0.7603,-0.7239,-0.6763,-0.6293,-0.5914,-0.5609,-0.5364,-0.5056,-0.4687,-0.4192,-0.3698,-0.3321,-0.2927,-0.2646,-0.2147,-0.1605,-0.118,-0.0818,-0.0466,0.0,0.0,0.0,0.0,0.0,0.0,0.0,0.0,0.0561,0.0953,0.1402,0.1739,0.2019,0.2241,0.2636,0.2917,0.3161,0.3407,0.3626,0.3888,-1.9577,-1.9514,-1.92,-1.9136,-1.9072,-1.9014,-1.8886,-1.8635,-1.8816,-1.8822,-1.8571,-1.8565,-1.8476,-1.8436,-1.834,-1.8394,-1.8416,-1.8394,-1.8384,-1.8428,-1.8385,-1.8417,-1.8417,-1.8433,-1.8433,-1.8433,-1.8433,-1.8433,-1.8433,-1.8379,-1.8282,-1.8126,-1.8056,-1.7868,-1.7577,-1.7448,-1.7308,-1.713,-1.6957,-1.6817,-1.6439,-1.6104,-1.5779,-1.5398,-1.487,-1.4338,-1.4211,-1.3822,-1.3371,-1.3104,-1.277,-1.2177,-1.1648,-1.1181,-1.0853,-1.0721,-1.0721,-1.0721,-1.0721,-1.0721,-1.0721,-1.0721,-1.0721,-1.0721,-1.0704,-1.0697,-1.067,-1.0528,-1.0231,-0.9866,-0.9515,-0.9222,-0.884,-0.8464,-0.8175,-0.7885,-0.7514,-0.7081,-0.6531,-0.6118,-0.5902,-0.5586,-0.5179,-0.4872,-0.4566,-0.4011,-0.3517,-0.3085,-0.2826,-0.2554,-0.1999,-0.1449,-0.1142,-0.0775,-0.0355,0.0,0.0,0.0,0.0,0.0,0.0,0.0,0.0,0.0674,0.1121,0.1458,0.1795,0.2076,0.2413,0.2637,0.2973,0.3251,0.3522,0.3789,0.4058,-1.945,-1.9206,-1.9136,-1.8956,-1.8699,-1.8699,-1.8501,-1.8168,-1.8232,-1.8232,-1.8168,-1.8144,-1.8171,-1.8206,-1.8155,-1.8268,-1.8432,-1.8444,-1.8422,-1.8433,-1.8433,-1.8433,-1.8433,-1.8433,-1.8433,-1.8433,-1.8433,-1.8433,-1.8433,-1.8358,-1.8347,-1.8331,-1.8229,-1.7997,-1.7857,-1.7733,-1.7523,-1.7237,-1.6947,-1.6671,-1.6186,-1.5809,-1.5398,-1.5066,-1.46,-1.4207,-1.4015,-1.3625,-1.3099,-1.2638,-1.2441,-1.1978,-1.1383,-1.092,-1.0721,-1.0721,-1.0721,-1.0721,-1.0721,-1.0721,-1.0721,-1.0721,-1.0721,-1.0721,-1.0717,-1.0721,-1.0581,-1.0376,-1.0094,-0.9738,-0.9384,-0.9082,-0.8784,-0.8475,-0.8107,-0.7796,-0.7424,-0.6858,-0.6364,-0.6068,-0.5839,-0.5428,-0.5019,-0.4692,-0.4319,-0.3887,-0.3393,-0.2961,-0.2715,-0.2454,-0.1839,-0.1346,-0.1165,-0.0792,0.0,0.0,0.0,0.0,0.0,0.0,0.0,0.0,0.0571,0.0902,0.129,0.1575,0.1915,0.2301,0.2582,0.275,0.3085,0.3419,0.3642,0.3911,0.4195,-1.9264,-1.9078,-1.895,-1.8764,-1.8571,-1.8437,-1.8109,-1.7846,-1.7781,-1.7717,-1.7582,-1.7686,-1.7861,-1.7948,-1.7998,-1.8181,-1.8358,-1.8428,-1.8433,-1.8433,-1.8433,-1.8433,-1.8433,-1.8433,-1.8433,-1.8433,-1.8433,-1.8433,-1.8433,-1.8433,-1.8428,-1.8417,-1.8282,-1.8186,-1.8116,-1.7933,-1.7698,-1.7278,-1.6995,-1.6501,-1.6074,-1.5666,-1.5221,-1.48,-1.4342,-1.4019,-1.3687,-1.3363,-1.2836,-1.2309,-1.1978,-1.1578,-1.1118,-1.0787,-1.0721,-1.0721,-1.0721,-1.0721,-1.0721,-1.0721,-1.0721,-1.0721,-1.0721,-1.0721,-1.0654,-1.0588,-1.0455,-1.025,-0.9984,-0.963,-0.9229,-0.8935,-0.8797,-0.8503,-0.8152,-0.779,-0.7273,-0.6699,-0.6316,-0.6194,-0.5843,-0.5501,-0.5089,-0.4686,-0.43,-0.3765,-0.3209,-0.2899,-0.2653,-0.2284,-0.1667,-0.1173,-0.105,0.0,0.0,0.0,0.0,0.0,0.0,0.0,0.0,0.0,0.0926,0.109,0.131,0.1647,0.1987,0.2378,0.2586,0.2693,0.3141,0.3587,0.3814,0.4049,0.4326,-1.9106,-1.9078,-1.8764,-1.8571,-1.8442,-1.8109,-1.7717,-1.7464,-1.7464,-1.7271,-1.7136,-1.7335,-1.7495,-1.7617,-1.7739,-1.8051,-1.8282,-1.8396,-1.8352,-1.8433,-1.8433,-1.8433,-1.8433,-1.8433,-1.8433,-1.8433,-1.8433,-1.8433,-1.8433,-1.8433,-1.8433,-1.8433,-1.8396,-1.8336,-1.8196,-1.811,-1.7882,-1.736,-1.6953,-1.6521,-1.6086,-1.57,-1.5181,-1.4645,-1.4152,-1.3822,-1.3439,-1.3017,-1.2686,-1.213,-1.1604,-1.1118,-1.092,-1.0721,-1.0721,-1.0721,-1.0721,-1.0721,-1.0721,-1.0721,-1.0721,-1.0721,-1.0721,-1.0654,-1.0588,-1.0455,-1.0256,-0.9924,-0.9724,-0.9458,-0.912,-0.8851,-0.8715,-0.8379,-0.8033,-0.769,-0.7035,-0.6526,-0.6402,-0.6208,-0.5857,-0.5449,-0.5093,-0.4747,-0.4204,-0.3603,-0.3211,-0.29,-0.2529,-0.2037,-0.1544,-0.1112,-0.0926,0.0,0.0,0.0,0.0,0.0,0.0,0.0,0.0,0.0,0.0884,0.0996,0.1281,0.1734,0.207,0.2409,0.2561,0.2771,0.3243,0.3714,0.3822,0.4051,0.436,-1.8885,-1.9078,-1.8699,-1.8437,-1.8103,-1.7723,-1.74,-1.7136,-1.7136,-1.7071,-1.7007,-1.7023,-1.7184,-1.7453,-1.7653,-1.7916,-1.8186,-1.8336,-1.8352,-1.8433,-1.8433,-1.8433,-1.8433,-1.8433,-1.8433,-1.8433,-1.8433,-1.8433,-1.8433,-1.8433,-1.8433,-1.8433,-1.8433,-1.8412,-1.8396,-1.8245,-1.8026,-1.7453,-1.7026,-1.6653,-1.6167,-1.5769,-1.5334,-1.4959,-1.4548,-1.4214,-1.3709,-1.3049,-1.2527,-1.1937,-1.1326,-1.0881,-1.0721,-1.0721,-1.0721,-1.0721,-1.0721,-1.0721,-1.0721,-1.0721,-1.0721,-1.0721,-1.0654,-1.0588,-1.0455,-1.0256,-0.999,-0.9452,-0.9253,-0.9053,-0.8787,-0.8653,-0.852,-0.8053,-0.7646,-0.7243,-0.6685,-0.6533,-0.6436,-0.6126,-0.5762,-0.5458,-0.521,-0.4664,-0.4055,-0.3513,-0.3231,-0.2854,-0.2414,-0.1918,-0.136,-0.1112,-0.0803,0.0,0.0,0.0,0.0,0.0,0.0,0.0,0.0,0.0,0.0838,0.0954,0.142,0.1879,0.2221,0.2502,0.279,0.3013,0.3438,0.38,0.3902,0.4115,0.4488]},{"header":{"parameterUnit":"m.s-1","parameterCategory":1,"la1":31.0,"la2":29.5877,"lo1":-88.7671,"lo2":-86.6584,"dy":0.0162,"dx":0.0185,"nx":115,"ny":88,"refTime":"2024-02-06T06:00:00:Z","depth":0,"parameterNumber":3,"parameterNumberName":"V-component_of_WINDS"},"data":[0.0,0.0,0.0,0.0,0.0,0.0,0.0,0.0,0.0,0.0,0.0,0.0,0.0,0.0,0.0,0.0,0.0,0.0,0.0,0.0,0.0,0.0,0.0,0.0,0.0,0.0,0.0,0.0,0.0,0.0,0.0,0.0,0.0,0.0,0.0,0.0,0.0,0.0,0.0,0.0,0.0,0.0,0.0,0.0,0.0,0.0,0.0,0.0,0.0,0.0,0.0,0.0,0.0,0.0,0.0,0.0,0.0,0.0,0.0,0.0,0.0,0.0,0.0,0.0,0.0,0.0,0.0,0.0,0.0,0.0,0.0,0.0,0.0,0.0,0.0,0.0,0.0,0.0,0.0,0.0,0.0,0.0,0.0,0.0,0.0,0.0,0.0,0.0,0.0,0.0,0.0,0.0,0.0,0.0,0.0,0.0,0.0,0.0,0.0,0.0,0.0,0.0,0.0,0.0,0.0,0.0,0.0,0.0,0.0,0.0,0.0,0.0,0.0,0.0,0.0,0.0,0.0,0.0,0.0,0.0,0.0,0.0,0.0,0.0,0.0,0.0,0.0,0.0,0.0,0.0,0.0,0.0,0.0,0.0,0.0,0.0,0.0,0.0,0.0,0.0,0.0,0.0,0.0,0.0,0.0,0.0,0.0,0.0,0.0,0.0,0.0,0.0,0.0,0.0,0.0,0.0,0.0,0.0,0.0,0.0,0.0,0.0,0.0,0.0,0.0,0.0,0.0,0.0,0.0,0.0,0.0,0.0,0.0,0.0,0.0,0.0,0.0,0.0,0.0,0.0,0.0,0.0,0.0,0.0,0.0,0.0,0.0,0.0,0.0,0.0,0.0,0.0,0.0,0.0,0.0,0.0,0.0,0.0,0.0,0.0,0.0,0.0,0.0,0.0,0.0,0.0,0.0,0.0,0.0,0.0,0.0,0.0,0.0,0.0,0.0,0.0,0.0,0.0,0.0,0.0,0.0,0.0,0.0,0.0,0.0,0.0,0.0,0.0,0.0,0.0,0.0,0.0,0.0,0.0,0.0,0.0,0.0,0.0,0.0,0.0,0.0,0.0,0.0,0.0,0.0,0.0,0.0,0.0,0.0,0.0,0.0,0.0,0.0,0.0,0.0,0.0,0.0,0.0,0.0,0.0,0.0,0.0,0.0,0.0,0.0,0.0,0.0,0.0,0.0,0.0,0.0,0.0,0.0,0.0,0.0,0.0,0.0,0.0,0.0,0.0,0.0,0.0,0.0,0.0,0.0,0.0,0.0,0.0,0.0,0.0,0.0,0.0,0.0,0.0,0.0,0.0,0.0,0.0,0.0,0.0,0.0,0.0,0.0,0.0,0.0,0.0,0.0,0.0,0.0,0.0,0.0,0.0,0.0,0.0,0.0,0.0,0.0,0.0,0.0,0.0,0.0,0.0,0.0,0.0,0.0,0.0,0.0,0.0,0.0,0.0,0.0,0.0,0.0,0.0,0.0,0.0,0.0,0.0,0.0,0.0,0.0,0.0,0.0,0.0,0.0,0.0,0.0,0.0,0.0,0.0,0.0,0.0,0.0,0.0,0.0,0.0,0.0,0.0,0.0,0.0,0.0,0.0,0.0,0.0,0.0,0.0,0.0,0.0,0.0,0.0,0.0,0.0,0.0,0.0,0.0,0.0,0.0,0.0,0.0,0.0,0.0,0.0,0.0,0.0,0.0,0.0,0.0,0.0,0.0,0.0,0.0,0.0,0.0,0.0,0.0,0.0,0.0,0.0,0.0,0.0,0.0,0.0,0.0,0.0,0.0,0.0,0.0,0.0,0.0,0.0,0.0,0.0,0.0,0.0,0.0,0.0,0.0,0.0,0.0,0.0,0.0,0.0,0.0,0.0,0.0,0.0,0.0,0.0,0.0,0.0,0.0,0.0,0.0,0.0,0.0,0.0,0.0,0.0,0.0,0.0,0.0,0.0,0.0,0.0,0.0,0.0,0.0,0.0,0.0,0.0,0.0,0.0,0.0,0.0,0.0,0.0,0.0,0.0,0.0,0.0,0.0,0.0,0.0,0.0,0.0,0.0,0.0,0.0,0.0,0.0,0.0,0.0,0.0,0.0,0.0,0.0,0.0,0.0,0.0,0.0,0.0,0.0,0.0,0.0,0.0,0.0,0.0,0.0,0.0,0.0,0.0,0.0,0.0,0.0,0.0,0.0,0.0,0.0,0.0,0.0,0.0,0.0,0.0,0.0,0.0,0.0,0.0,0.0,0.0,0.0,0.0,0.0,0.0,0.0,0.0,0.0,0.0,0.0,0.0,0.0,0.0,0.0,0.0,0.0,0.0,0.0,0.0,0.0,0.0,0.0,0.0,0.0,0.0,0.0,0.0,0.0,0.0,0.0,0.0,0.0,0.0,0.0,0.0,0.0,0.0,0.0,0.0,0.0,0.0,0.0,0.0,0.0,0.0,0.0,0.0,0.0,0.0,0.0,0.0,0.0,0.0,0.0,0.0,0.0,0.0,0.0,0.0,0.0,0.0,0.0,0.0,0.0,0.0,0.0,0.0,0.0,0.0,0.0,0.0,0.0,0.0,0.0,0.0,0.0,0.0,0.0,0.0,0.0,0.0,0.0,0.0,0.0,0.0,0.0,0.0,0.0,0.0,0.0,0.0,0.0,0.0,0.0,0.0,0.0,0.0,0.0,0.0,0.0,0.0,0.0,0.0,0.0,0.0,0.0,0.0,0.0,0.0,0.0,0.0,0.0,0.0,0.0,0.0,0.0,0.0,0.0,0.0,0.0,0.0,0.0,0.0,0.0,0.0,0.0,0.0,0.0,0.0,0.0,0.0,0.0,0.0,0.0,0.0,0.0,0.0,0.0,0.0,0.0,0.0,0.0,0.0,0.0,0.0,0.0,0.0,0.0,0.0,0.0,0.0,0.0,0.0,0.0,0.0,0.0,0.0,0.0,0.0,0.0,0.0,0.0,0.0,0.0,0.0,0.0,0.0,0.0,0.0,0.0,0.0,0.0,0.0,0.0,0.0,0.0,0.0,0.0,0.0,0.0,0.0,0.0,0.0,0.0,0.0,0.0,0.0,0.0,0.0,0.0,0.0,0.0,0.0,0.0,0.0,0.0,0.0,0.0,0.0,0.0,0.0,0.0,0.0,0.0,0.0,0.0,0.0,0.0,0.0,0.0,0.0,0.0,0.0,0.0,0.0,0.0,0.0,0.0,0.0,0.0,0.0,0.0,0.0,0.0,0.0,0.0,0.0,0.0,0.0,0.0,0.0,0.0,0.0,0.0,0.0,0.0,0.0,0.0,0.0,0.0,0.0,0.0,0.0,0.0,0.0,0.0,0.0,0.0,0.0,0.0,0.0,0.0,0.0,0.0,0.0,0.0,0.0,0.0,0.0,0.0,0.0,0.0,0.0,0.0,0.0,0.0,0.0,0.0,0.0,0.0,0.0,0.0,0.0,0.0,0.0,0.0,0.0,0.0,0.0,0.0,0.0,0.0,0.0,0.0,0.0,0.0,0.0,0.0,0.0,0.0,0.0,0.0,0.0,0.0,0.0,0.0,0.0,0.0,0.0,0.0,0.0,0.0,0.0,0.0,0.0,0.0,0.0,0.0,0.0,0.0,0.0,0.0,0.0,0.0,0.0,0.0,0.0,0.0,0.0,0.0,0.0,0.0,0.0,0.0,0.0,0.0,0.0,0.0,0.0,0.0,0.0,0.0,0.0,0.0,0.0,0.0,0.0,0.0,0.0,0.0,0.0,0.0,0.0,0.0,0.0,0.0,0.0,0.0,0.0,0.0,0.0,0.0,0.0,0.0,0.0,0.0,0.0,0.0,0.0,0.0,0.0,0.0,0.0,0.0,0.0,0.0,0.0,0.0,0.0,0.0,0.0,0.0,0.0,0.0,0.0,0.0,0.0,0.0,0.0,0.0,0.0,0.0,0.0,0.0,0.0,0.0,0.0,0.0,0.0,0.0,0.0,0.0,0.0,0.0,0.0,0.0,0.0,0.0,0.0,0.0,0.0,0.0,0.0,0.0,0.0,0.0,0.0,0.0,0.0,0.0,0.0,0.0,0.0,0.0,0.0,0.0,0.0,0.0,0.0,0.0,0.0,0.0,0.0,0.0,0.0,0.0,0.0,0.0,0.0,0.0,0.0,0.0,0.0,0.0,0.0,0.0,0.0,0.0,0.0,0.0,0.0,0.0,0.0,0.0,0.0,0.0,0.0,0.0,0.0,0.0,0.0,0.0,0.0,0.0,0.0,0.0,0.0,0.0,1.5804,0.0,0.0,0.0,0.0,0.0,0.0,0.0,0.0,0.0,0.0,0.0,0.0,0.0,0.0,0.0,0.0,0.0,0.0,0.0,0.0,0.0,0.0,0.0,0.0,0.0,0.0,0.0,0.0,0.0,0.0,0.0,0.0,0.0,0.0,0.0,0.0,0.0,0.0,0.0,0.0,0.0,0.0,0.0,0.0,0.0,0.0,0.0,0.0,0.0,0.0,0.0,0.0,0.0,0.0,0.0,0.0,0.0,0.0,0.0,0.0,0.0,0.0,0.0,0.0,0.0,0.0,0.0,0.0,0.0,0.0,0.0,0.0,0.0,0.0,0.0,0.0,0.0,0.0,0.0,0.0,0.0,0.0,0.0,0.0,0.0,0.0,0.0,0.0,0.0,0.0,0.0,0.0,0.0,0.0,0.0,0.0,0.0,0.0,0.0,0.0,0.0,0.0,0.0,0.0,0.0,0.0,0.0,0.0,0.0,0.0,1.4837,1.5148,1.5577,1.5927,1.6212,0.0,0.0,0.0,0.0,0.0,0.0,0.0,0.0,0.0,0.0,0.0,0.0,0.0,0.0,0.0,0.0,0.0,0.0,0.0,0.0,0.0,0.0,0.0,0.0,0.0,0.0,0.0,0.0,0.0,0.0,0.0,0.0,0.0,0.0,0.0,0.0,0.0,0.0,0.0,0.0,0.0,0.0,0.0,0.0,0.0,0.0,0.0,0.0,0.0,0.0,0.0,0.0,0.0,0.0,0.0,0.0,0.0,0.0,0.0,0.0,0.0,0.0,0.0,0.0,0.0,0.0,0.0,0.0,0.0,0.0,0.0,0.0,0.0,0.0,0.0,0.0,0.0,0.0,0.0,0.0,0.0,0.0,0.0,0.0,0.0,0.0,0.0,0.0,0.0,0.0,0.0,0.0,0.0,0.0,0.0,0.0,0.0,0.0,0.0,0.0,0.0,0.0,0.0,0.0,0.0,0.0,0.0,0.0,0.0,0.0,0.0,0.0,1.6027,1.6336,1.6722,0.0,0.0,0.0,0.0,0.0,0.0,0.0,0.0,0.0,0.0,0.0,0.0,0.0,0.0,0.0,0.0,0.0,0.0,0.0,0.0,0.0,0.0,0.0,0.0,0.0,0.0,0.0,0.0,0.0,0.0,0.0,0.0,0.0,0.0,0.0,0.0,0.0,0.0,0.0,0.0,0.0,0.0,0.0,0.0,0.0,0.0,0.0,0.0,0.0,0.0,0.0,0.0,0.0,0.0,0.0,0.0,0.0,0.0,0.0,0.0,0.0,0.0,0.0,0.0,0.0,0.0,0.0,0.0,0.0,0.0,0.0,0.0,0.0,0.0,0.0,0.0,0.0,0.0,0.0,0.0,0.0,0.0,0.0,0.0,0.0,0.0,0.0,0.0,0.0,0.0,0.0,0.0,0.0,0.0,0.0,0.0,0.0,0.0,0.0,0.0,0.0,0.0,0.0,0.0,0.0,0.0,0.0,0.0,0.0,0.0,1.5685,1.5815,1.6683,0.0,1.7204,0.0,0.0,0.0,0.0,0.0,0.0,0.0,0.0,0.0,0.0,0.0,0.0,0.0,0.0,0.0,0.0,0.0,0.0,0.0,0.0,0.0,0.0,0.0,0.0,0.0,0.0,0.0,0.0,0.0,0.0,0.0,0.0,0.0,0.0,0.0,0.0,0.0,0.0,0.0,0.0,0.0,0.0,0.0,0.0,0.0,0.0,0.0,0.0,0.0,0.0,0.0,0.0,0.0,0.0,0.0,0.0,0.0,0.0,0.0,0.0,0.0,0.0,0.0,0.0,0.0,0.0,0.0,0.0,0.0,0.0,0.0,0.0,0.0,0.0,0.0,0.0,0.0,0.0,0.0,0.0,0.0,0.0,0.0,0.0,0.0,0.0,0.0,0.0,0.0,0.0,0.0,0.0,0.0,0.0,0.0,0.0,0.0,0.0,0.0,0.0,0.0,0.0,0.0,0.0,0.0,0.0,0.0,0.0,0.0,0.0,1.6248,1.6677,1.7168,1.7412,0.0,0.0,0.0,0.0,0.0,0.0,0.0,0.0,0.0,0.0,0.0,0.0,0.0,0.0,0.0,0.0,0.0,0.0,0.0,0.0,0.0,0.0,0.0,0.0,0.0,0.0,0.0,0.0,0.0,0.0,0.0,0.0,0.0,0.0,0.0,0.0,0.0,0.0,0.0,0.0,0.0,0.0,0.0,0.0,0.0,0.0,0.0,0.0,0.0,0.0,0.0,0.0,0.0,0.0,0.0,0.0,0.0,0.0,0.0,0.0,0.0,0.0,0.0,0.0,0.0,0.0,0.0,0.0,0.0,0.0,0.0,0.0,0.0,0.0,0.0,0.0,0.0,0.0,0.0,0.0,0.0,0.0,0.0,0.0,0.0,0.0,0.0,0.0,0.0,0.0,0.0,0.0,0.0,0.0,0.0,0.0,0.0,0.0,0.0,0.0,0.0,0.0,0.0,0.0,0.0,0.0,0.0,0.0,0.0,0.0,1.5655,1.6631,1.7312,1.7453,1.7516,1.7546,0.0,0.0,0.0,0.0,0.0,0.0,0.0,0.0,0.0,0.0,0.0,0.0,0.0,0.0,0.0,0.0,0.0,0.0,0.0,0.0,0.0,0.0,0.0,0.0,0.0,0.0,0.0,0.0,0.0,0.0,0.0,0.0,0.0,0.0,0.0,0.0,0.0,0.0,0.0,0.0,0.0,0.0,0.0,0.0,0.0,0.0,0.0,0.0,0.0,0.0,0.0,0.0,0.0,0.0,0.0,0.0,0.0,0.0,0.0,0.0,0.0,0.0,0.0,0.0,0.0,0.0,0.0,0.0,0.0,0.0,0.0,0.0,0.0,0.0,0.0,0.0,0.0,0.0,0.0,0.0,0.0,0.0,0.0,0.0,0.0,0.0,0.0,0.0,0.0,0.0,0.0,0.0,0.0,0.0,0.0,0.0,0.0,0.0,0.0,0.0,0.0,0.0,0.0,0.0,0.0,0.0,0.0,0.0,1.4417,1.5644,1.6684,1.7453,1.7478,1.7551,0.0,0.0,0.0,0.0,0.0,0.0,0.0,0.0,0.0,0.0,0.0,0.0,0.0,0.0,0.0,0.0,0.0,0.0,0.0,0.0,0.0,0.0,0.0,0.0,0.0,0.0,0.0,0.0,0.0,0.0,0.0,0.0,0.0,0.0,0.0,0.0,0.0,0.0,0.0,0.0,0.0,0.0,0.0,0.0,0.0,0.0,0.0,0.0,0.0,0.0,0.0,0.0,0.0,0.0,0.0,0.0,0.0,0.0,0.0,0.0,0.0,0.0,0.0,0.0,0.0,0.0,0.0,0.0,0.0,0.0,0.0,0.0,0.0,0.0,0.0,0.0,0.0,0.0,0.0,0.0,0.0,0.0,0.0,0.0,0.0,0.0,0.0,0.0,0.0,0.0,0.0,0.0,0.0,0.0,0.0,0.0,0.0,0.0,0.0,0.0,0.0,0.0,0.0,0.0,0.0,0.0,0.0,0.0,0.0,1.4347,1.6077,1.7208,1.7511,1.7676,1.7775,0.0,0.0,0.0,0.0,0.0,0.0,0.0,0.0,0.0,0.0,0.0,0.0,0.0,0.0,0.0,0.0,0.0,0.0,0.0,0.0,0.0,0.0,0.0,0.0,0.0,0.0,0.0,0.0,0.0,0.0,0.0,0.0,0.0,0.0,0.0,0.0,0.0,0.0,0.0,0.0,0.0,0.0,0.0,0.0,0.0,0.0,0.0,0.0,0.0,0.0,0.0,0.0,0.0,0.0,0.0,0.0,0.0,0.0,0.0,0.0,0.0,0.0,0.0,0.0,0.0,0.0,0.0,0.0,0.0,0.0,0.0,0.0,0.0,0.0,0.0,0.0,0.0,0.0,0.0,0.0,0.0,0.0,0.0,0.0,0.0,0.0,0.0,0.0,0.0,0.0,0.0,0.0,0.0,0.0,0.0,0.0,0.0,0.0,0.0,0.0,0.0,0.0,0.0,0.0,0.0,0.0,0.0,0.0,0.0,1.4897,0.0,1.7524,1.7577,1.7824,1.7938,0.0,0.0,0.0,0.0,0.0,0.0,0.0,0.0,0.0,0.0,0.0,0.0,0.0,0.0,0.0,0.0,0.0,0.0,0.0,0.0,0.0,0.0,0.0,0.0,0.0,0.0,0.0,0.0,0.0,0.0,0.0,0.0,0.0,0.0,0.0,0.0,0.0,0.0,0.0,0.0,0.0,0.0,0.0,0.0,0.0,0.0,0.0,0.0,0.0,0.0,0.0,0.0,0.0,0.0,0.0,0.0,0.0,0.0,0.0,0.0,0.0,0.0,0.0,0.0,0.0,0.0,0.0,0.0,0.0,0.0,0.0,0.0,0.0,0.0,0.0,0.0,0.0,0.0,0.0,0.0,0.0,0.0,0.0,0.0,0.0,0.0,0.0,0.0,0.0,0.0,0.0,0.0,0.0,0.0,0.0,0.0,0.0,0.0,0.0,0.0,0.0,0.0,0.0,0.0,0.0,0.0,0.0,0.0,1.4643,1.6234,1.7056,1.7605,1.7709,1.7983,1.8088,0.0,0.0,0.0,0.0,0.0,0.0,0.0,0.0,0.0,0.0,0.0,0.0,0.0,0.0,0.0,0.0,0.0,0.0,0.0,0.0,0.0,0.0,0.0,0.0,0.0,0.0,0.0,0.0,0.0,0.0,0.0,0.0,0.0,0.0,0.0,0.0,0.0,0.0,0.0,0.0,0.0,0.0,0.0,0.0,0.0,0.0,0.0,0.0,0.0,0.0,0.0,0.0,0.0,0.0,0.0,0.0,0.0,0.0,0.0,0.0,0.0,0.0,0.0,0.0,0.0,0.0,0.0,0.0,0.0,0.0,0.0,0.0,0.0,0.0,0.0,0.0,0.0,0.0,0.0,0.0,0.0,0.0,0.0,0.0,0.0,0.0,0.0,0.0,0.0,0.0,0.0,0.0,0.0,0.0,0.0,0.0,0.0,0.0,0.0,0.0,0.0,0.0,0.0,0.0,0.0,0.0,0.0,0.0,0.0,1.6616,1.7484,1.7932,1.7977,1.8226,1.8331,0.0,0.0,0.0,0.0,0.0,0.0,0.0,0.0,0.0,0.0,0.0,0.0,0.0,0.0,0.0,0.0,0.0,0.0,0.0,0.0,0.0,0.0,0.0,0.0,0.0,0.0,0.0,0.0,0.0,0.0,0.0,0.0,0.0,0.0,0.0,0.0,0.0,0.0,0.0,0.0,0.0,0.0,0.0,0.0,0.0,0.0,0.0,0.0,0.0,0.0,0.0,0.0,0.0,0.0,0.0,0.0,0.0,0.0,0.0,0.0,0.0,0.0,0.0,0.0,0.0,0.0,0.0,0.0,0.0,0.0,0.0,0.0,0.0,0.0,0.0,0.0,0.0,0.0,0.0,0.0,0.0,0.0,0.0,0.0,0.0,0.0,0.0,0.0,0.0,0.0,0.0,0.0,0.0,0.0,0.0,0.0,0.0,0.0,0.0,0.0,0.0,0.0,0.0,0.0,0.0,0.0,0.0,0.0,0.0,1.757,1.7988,1.8386,1.8875,1.8717,1.8686,1.8816,0.0,0.0,0.0,0.0,0.0,0.0,0.0,0.0,0.0,0.0,0.0,0.0,0.0,0.0,0.0,0.0,0.0,0.0,0.0,0.0,0.0,0.0,0.0,0.0,0.0,0.0,0.0,0.0,0.0,0.0,0.0,0.0,0.0,0.0,0.0,0.0,0.0,0.0,0.0,0.0,0.0,0.0,0.0,0.0,0.0,0.0,0.0,0.0,0.0,0.0,0.0,0.0,0.0,0.0,0.0,0.0,0.0,0.0,0.0,0.0,0.0,0.0,0.0,0.0,0.0,0.0,0.0,0.0,0.0,0.0,0.0,0.0,0.0,0.0,0.0,0.0,0.0,0.0,0.0,0.0,0.0,0.0,0.0,0.0,0.0,0.0,0.0,0.0,0.0,0.0,0.0,0.0,0.0,0.0,0.0,0.0,0.0,0.0,0.0,0.0,0.0,0.0,0.0,0.0,0.0,0.0,0.0,0.0,1.9016,1.8669,1.9044,2.0197,1.9392,1.9159,0.0,0.0,0.0,0.0,0.0,0.0,0.0,0.0,0.0,0.0,0.0,0.0,0.0,0.0,0.0,0.0,0.0,0.0,0.0,0.0,0.0,0.0,0.0,0.0,0.0,0.0,0.0,0.0,0.0,0.0,0.0,0.0,0.0,0.0,0.0,0.0,0.0,0.0,0.0,0.0,0.0,0.0,0.0,0.0,0.0,0.0,0.0,0.0,0.0,0.0,0.0,0.0,0.0,0.0,0.0,0.0,0.0,0.0,0.0,0.0,0.0,0.0,0.0,0.0,0.0,0.0,0.0,0.0,0.0,0.0,0.0,0.0,0.0,0.0,0.0,0.0,0.0,0.0,0.0,0.0,0.0,0.0,0.0,0.0,0.0,0.0,0.0,0.0,0.0,0.0,0.0,0.0,0.0,0.0,0.0,0.0,0.0,0.0,0.0,0.0,0.0,0.0,0.0,0.0,0.0,0.0,0.0,0.0,0.0,2.067,2.0705,2.0715,2.0789,2.0648,2.0435,0.0,0.0,0.0,0.0,0.0,0.0,0.0,0.0,0.0,0.0,0.0,0.0,0.0,0.0,0.0,0.0,0.0,0.0,0.0,0.0,0.0,0.0,0.0,0.0,0.0,0.0,0.0,0.0,0.0,0.0,0.0,0.0,0.0,0.0,0.0,0.0,0.0,0.0,0.0,0.0,0.0,0.0,0.0,0.0,0.0,0.0,0.0,0.0,0.0,0.0,0.0,0.0,0.0,0.0,0.0,0.0,0.0,0.0,0.0,0.0,0.0,0.0,0.0,0.0,0.0,0.0,0.0,0.0,0.0,0.0,0.0,0.0,0.0,0.0,0.0,0.0,0.0,0.0,0.0,0.0,0.0,0.0,0.0,0.0,0.0,0.0,0.0,0.0,0.0,0.0,0.0,0.0,0.0,0.0,0.0,0.0,0.0,0.0,0.0,0.0,0.0,0.0,0.0,0.0,0.0,0.0,0.0,0.0,2.035,2.2017,2.2338,2.2508,2.2653,2.18,2.1188,0.0,0.0,0.0,0.0,0.0,0.0,0.0,0.0,0.0,0.0,0.0,0.0,0.0,0.0,0.0,0.0,0.0,0.0,0.0,0.0,0.0,0.0,0.0,0.0,0.0,0.0,0.0,0.0,0.0,0.0,0.0,0.0,0.0,0.0,0.0,0.0,0.0,0.0,0.0,0.0,0.0,0.0,0.0,0.0,0.0,0.0,0.0,0.0,0.0,0.0,0.0,0.0,0.0,0.0,0.0,0.0,0.0,0.0,0.0,0.0,0.0,0.0,0.0,0.0,0.0,0.0,0.0,0.0,0.0,0.0,0.0,0.0,0.0,0.0,0.0,0.0,0.0,0.0,0.0,0.0,0.0,0.0,0.0,0.0,0.0,0.0,0.0,0.0,0.0,0.0,0.0,0.0,0.0,0.0,0.0,0.0,0.0,0.0,0.0,0.0,0.0,0.0,0.0,0.0,0.0,0.0,0.0,0.0,2.144,2.311,2.3667,2.43,2.495,2.2961,2.1769,0.0,0.0,0.0,0.0,0.0,0.0,0.0,0.0,0.0,0.0,0.0,0.0,0.0,0.0,0.0,0.0,0.0,0.0,0.0,0.0,0.0,0.0,0.0,0.0,0.0,0.0,0.0,0.0,0.0,0.0,0.0,0.0,0.0,0.0,0.0,0.0,0.0,0.0,0.0,0.0,0.0,0.0,0.0,0.0,0.0,0.0,0.0,0.0,0.0,0.0,0.0,0.0,0.0,0.0,0.0,0.0,0.0,0.0,0.0,0.0,0.0,0.0,0.0,0.0,0.0,0.0,0.0,0.0,0.0,0.0,0.0,0.0,0.0,0.0,0.0,0.0,0.0,0.0,0.0,0.0,0.0,0.0,0.0,0.0,0.0,0.0,0.0,0.0,0.0,0.0,0.0,0.0,0.0,0.0,0.0,0.0,0.0,0.0,0.0,0.0,0.0,0.0,0.0,0.0,0.0,0.0,0.0,0.0,2.2572,2.4121,2.4753,2.5376,2.5972,2.4436,2.3112,0.0,0.0,0.0,0.0,0.0,0.0,0.0,0.0,0.0,0.0,0.0,0.0,0.0,0.0,0.0,0.0,0.0,0.0,0.0,0.0,0.0,0.0,0.0,0.0,0.0,0.0,0.0,0.0,0.0,0.0,0.0,0.0,0.0,0.0,0.0,0.0,0.0,0.0,0.0,0.0,0.0,0.0,0.0,0.0,0.0,0.0,0.0,0.0,1.9826,0.0,0.0,0.0,0.0,0.0,0.0,0.0,0.0,0.0,0.0,0.0,0.0,0.0,0.0,0.0,0.0,0.0,0.0,0.0,0.0,0.0,0.0,0.0,0.0,0.0,0.0,0.0,0.0,0.0,0.0,0.0,0.0,0.0,0.0,0.0,0.0,0.0,0.0,0.0,0.0,0.0,0.0,0.0,0.0,0.0,0.0,0.0,0.0,0.0,0.0,0.0,0.0,0.0,0.0,0.0,0.0,0.0,0.0,0.0,2.3419,2.5275,2.5591,2.614,2.6943,2.5412,2.3947,0.0,0.0,0.0,0.0,0.0,0.0,0.0,0.0,0.0,0.0,0.0,0.0,0.0,0.0,0.0,0.0,0.0,0.0,0.0,0.0,0.0,0.0,0.0,0.0,0.0,0.0,0.0,0.0,0.0,0.0,0.0,0.0,0.0,0.0,0.0,0.0,0.0,0.0,0.0,0.0,0.0,0.0,0.0,0.0,0.0,0.0,0.0,0.0,0.0,0.0,0.0,0.0,0.0,0.0,0.0,0.0,0.0,0.0,0.0,0.0,0.0,0.0,0.0,0.0,0.0,0.0,0.0,0.0,0.0,0.0,0.0,0.0,0.0,0.0,0.0,0.0,0.0,0.0,0.0,0.0,0.0,0.0,0.0,0.0,0.0,0.0,0.0,0.0,0.0,0.0,0.0,0.0,0.0,0.0,0.0,0.0,0.0,0.0,0.0,0.0,0.0,0.0,0.0,0.0,0.0,0.0,0.0,2.2596,2.4141,2.631,2.6369,2.6883,2.791,2.6067,2.4476,2.3327,0.0,0.0,0.0,0.0,0.0,0.0,0.0,0.0,0.0,0.0,0.0,0.0,0.0,0.0,0.0,0.0,0.0,0.0,0.0,0.0,0.0,0.0,0.0,0.0,0.0,0.0,0.0,0.0,0.0,0.0,0.0,0.0,0.0,0.0,0.0,0.0,0.0,0.0,1.8568,1.9908,0.0,0.0,0.0,0.0,0.0,0.0,0.0,0.0,2.0977,0.0,0.0,0.0,0.0,0.0,0.0,0.0,0.0,0.0,0.0,0.0,0.0,0.0,0.0,0.0,0.0,0.0,0.0,0.0,0.0,0.0,0.0,0.0,0.0,0.0,0.0,0.0,0.0,0.0,0.0,0.0,0.0,0.0,0.0,0.0,0.0,0.0,0.0,0.0,0.0,0.0,0.0,0.0,0.0,0.0,0.0,0.0,0.0,0.0,0.0,0.0,0.0,0.0,0.0,0.0,0.0,2.2226,2.3591,2.5148,2.6909,2.727,2.7723,2.8211,2.6261,2.4663,2.3633,0.0,0.0,0.0,0.0,0.0,0.0,0.0,0.0,0.0,0.0,0.0,0.0,0.0,0.0,0.0,0.0,0.0,0.0,0.0,0.0,0.0,0.0,0.0,0.0,0.0,0.0,0.0,0.0,0.0,0.0,0.0,0.0,0.0,0.0,0.0,0.0,0.0,0.0,0.0,2.1153,2.1857,0.0,0.0,0.0,0.0,0.0,0.0,0.0,0.0,2.134,0.0,0.0,0.0,0.0,0.0,0.0,0.0,0.0,0.0,0.0,0.0,0.0,0.0,0.0,0.0,0.0,0.0,0.0,0.0,0.0,0.0,0.0,0.0,0.0,0.0,0.0,0.0,0.0,0.0,0.0,0.0,0.0,0.0,0.0,0.0,0.0,0.0,0.0,0.0,0.0,0.0,0.0,0.0,0.0,0.0,0.0,0.0,0.0,0.0,0.0,0.0,0.0,0.0,0.0,0.0,2.2923,2.4422,2.5811,2.71,2.7542,2.7763,2.7786,2.6327,2.4837,0.0,0.0,0.0,0.0,0.0,0.0,0.0,0.0,0.0,0.0,0.0,0.0,0.0,0.0,0.0,0.0,0.0,0.0,0.0,0.0,0.0,0.0,0.0,0.0,0.0,0.0,0.0,0.0,0.0,0.0,0.0,0.0,0.0,0.0,0.0,0.0,0.0,0.0,0.0,0.0,2.2185,2.2921,2.3401,0.0,0.0,0.0,0.0,0.0,0.0,2.2713,2.2076,0.0,0.0,0.0,0.0,0.0,0.0,0.0,0.0,0.0,0.0,0.0,0.0,0.0,0.0,0.0,0.0,0.0,0.0,0.0,0.0,0.0,0.0,0.0,0.0,0.0,0.0,0.0,0.0,0.0,0.0,0.0,0.0,0.0,0.0,0.0,0.0,0.0,0.0,0.0,0.0,0.0,0.0,0.0,0.0,0.0,0.0,0.0,0.0,0.0,0.0,0.0,0.0,0.0,0.0,0.0,2.3668,2.5128,2.6367,2.7335,2.7761,2.7789,2.7427,2.6423,2.5045,0.0,0.0,0.0,0.0,0.0,0.0,0.0,0.0,0.0,0.0,0.0,0.0,0.0,0.0,0.0,0.0,0.0,0.0,0.0,0.0,0.0,0.0,0.0,0.0,0.0,0.0,0.0,0.0,0.0,0.0,0.0,0.0,0.0,0.0,0.0,0.0,0.0,0.0,0.0,0.0,0.0,2.4176,2.4858,2.5186,0.0,0.0,0.0,0.0,2.4546,2.3865,0.0,0.0,0.0,0.0,0.0,0.0,0.0,0.0,0.0,0.0,0.0,0.0,0.0,0.0,0.0,0.0,0.0,0.0,0.0,0.0,0.0,0.0,0.0,0.0,0.0,0.0,0.0,0.0,0.0,0.0,0.0,0.0,0.0,0.0,0.0,0.0,0.0,0.0,0.0,0.0,0.0,0.0,0.0,0.0,0.0,0.0,0.0,0.0,0.0,0.0,0.0,0.0,0.0,0.0,0.0,0.0,2.4326,2.5709,2.692,2.7962,2.839,2.8351,2.7855,2.6801,2.5336,0.0,0.0,0.0,0.0,0.0,0.0,0.0,0.0,0.0,0.0,0.0,0.0,0.0,0.0,0.0,0.0,0.0,0.0,0.0,0.0,0.0,0.0,0.0,0.0,0.0,0.0,0.0,0.0,0.0,0.0,0.0,0.0,0.0,0.0,0.0,0.0,0.0,0.0,0.0,0.0,0.0,2.5737,2.5844,2.6628,2.7224,0.0,0.0,2.7035,2.6408,2.563,0.0,0.0,0.0,0.0,0.0,0.0,0.0,0.0,0.0,0.0,0.0,0.0,0.0,0.0,0.0,0.0,0.0,0.0,0.0,0.0,0.0,0.0,0.0,0.0,0.0,0.0,0.0,0.0,0.0,0.0,0.0,0.0,0.0,0.0,0.0,0.0,0.0,0.0,0.0,0.0,0.0,0.0,0.0,0.0,0.0,0.0,0.0,0.0,0.0,0.0,0.0,0.0,0.0,0.0,0.0,2.3106,2.4878,2.6438,2.749,2.803,2.8474,2.8216,2.7242,2.6874,2.5582,0.0,0.0,0.0,0.0,0.0,0.0,0.0,0.0,0.0,0.0,0.0,0.0,0.0,0.0,0.0,0.0,0.0,0.0,0.0,0.0,0.0,0.0,0.0,0.0,0.0,0.0,0.0,0.0,0.0,0.0,0.0,0.0,0.0,0.0,0.0,0.0,0.0,0.0,0.0,0.0,0.0,0.0,2.6787,2.725,0.0,0.0,0.0,2.7717,2.7385,0.0,0.0,0.0,0.0,0.0,0.0,0.0,0.0,0.0,0.0,0.0,0.0,0.0,0.0,0.0,0.0,0.0,0.0,0.0,0.0,0.0,0.0,0.0,0.0,0.0,0.0,0.0,0.0,0.0,0.0,0.0,0.0,0.0,0.0,0.0,0.0,0.0,0.0,0.0,0.0,0.0,0.0,0.0,0.0,0.0,0.0,0.0,0.0,0.0,0.0,0.0,0.0,0.0,0.0,0.0,0.0,0.0,2.542,2.7097,2.8048,2.818,2.8661,2.8261,2.691,2.7084,0.0,0.0,0.0,0.0,0.0,0.0,0.0,0.0,0.0,0.0,0.0,0.0,0.0,0.0,0.0,0.0,0.0,0.0,0.0,0.0,0.0,0.0,0.0,0.0,0.0,0.0,0.0,1.6501,0.0,0.0,0.0,0.0,0.0,0.0,0.0,0.0,0.0,0.0,0.0,0.0,0.0,0.0,2.7149,2.8024,2.8377,2.8669,0.0,0.0,2.8786,2.8606,2.7899,2.7028,0.0,0.0,0.0,0.0,0.0,0.0,0.0,0.0,0.0,0.0,0.0,0.0,0.0,0.0,0.0,0.0,0.0,0.0,0.0,0.0,0.0,0.0,0.0,0.0,0.0,0.0,0.0,0.0,0.0,0.0,0.0,0.0,0.0,0.0,0.0,0.0,0.0,0.0,0.0,0.0,0.0,0.0,0.0,0.0,0.0,0.0,0.0,0.0,0.0,0.0,0.0,0.0,0.0,0.0,2.5108,2.5986,2.7595,2.8527,2.8661,2.9175,2.8738,2.7306,2.7524,2.6302,0.0,0.0,0.0,0.0,0.0,0.0,0.0,0.0,0.0,0.0,0.0,0.0,0.0,0.0,0.0,0.0,0.0,0.0,0.0,0.0,0.0,0.0,0.0,0.0,0.0,0.0,0.0,0.0,0.0,0.0,0.0,0.0,0.0,0.0,0.0,0.0,0.0,0.0,0.0,0.0,0.0,2.886,2.9815,3.0629,3.1458,0.0,3.1911,3.1201,3.0516,2.9684,2.8616,2.7065,0.0,0.0,0.0,0.0,0.0,0.0,0.0,0.0,0.0,0.0,0.0,0.0,0.0,0.0,0.0,0.0,0.0,0.0,0.0,0.0,0.0,0.0,0.0,0.0,0.0,0.0,0.0,0.0,0.0,0.0,0.0,0.0,0.0,0.0,0.0,0.0,0.0,0.0,0.0,0.0,0.0,0.0,0.0,0.0,0.0,0.0,0.0,0.0,0.0,0.0,0.0,0.0,0.0,2.575,2.655,2.8259,2.9136,2.922,2.9621,2.9146,2.7766,2.7907,2.6665,0.0,0.0,0.0,0.0,0.0,0.0,0.0,0.0,0.0,0.0,0.0,0.0,0.0,0.0,0.0,0.0,0.0,0.0,0.0,0.0,0.0,0.0,0.0,0.0,0.0,0.0,0.0,0.0,1.8117,1.8554,1.9162,0.0,0.0,0.0,0.0,0.0,0.0,0.0,0.0,0.0,0.0,2.987,3.0782,3.1722,0.0,0.0,3.2744,3.2297,3.1521,3.0718,2.9784,2.8609,2.7748,0.0,0.0,0.0,0.0,0.0,0.0,0.0,0.0,0.0,0.0,0.0,0.0,0.0,0.0,0.0,0.0,0.0,0.0,0.0,0.0,0.0,0.0,0.0,0.0,0.0,0.0,0.0,0.0,0.0,0.0,0.0,0.0,0.0,0.0,0.0,0.0,0.0,0.0,0.0,0.0,0.0,0.0,0.0,0.0,0.0,0.0,0.0,0.0,0.0,0.0,0.0,0.0,2.6509,2.7094,2.8772,2.9671,2.9732,2.9995,2.9604,2.8527,2.8395,2.7216,0.0,0.0,0.0,0.0,0.0,0.0,0.0,0.0,0.0,0.0,0.0,0.0,0.0,0.0,0.0,0.0,0.0,0.0,0.0,0.0,0.0,0.0,0.0,0.0,0.0,0.0,0.0,0.0,1.8889,1.9311,1.9984,0.0,0.0,0.0,0.0,0.0,0.0,0.0,0.0,0.0,0.0,3.0911,3.2072,3.2827,3.341,3.372,3.3613,3.3297,3.2757,3.179,3.0794,2.9956,0.0,0.0,0.0,0.0,0.0,0.0,0.0,0.0,0.0,0.0,0.0,0.0,0.0,0.0,0.0,0.0,0.0,0.0,0.0,0.0,0.0,0.0,0.0,0.0,0.0,0.0,0.0,2.533,0.0,0.0,2.434,0.0,0.0,0.0,0.0,0.0,0.0,0.0,0.0,0.0,0.0,0.0,0.0,0.0,0.0,0.0,0.0,0.0,0.0,0.0,0.0,0.0,0.0,2.7405,2.7504,2.914,3.006,3.0189,3.038,3.0182,2.9559,2.8973,2.7977,2.6435,0.0,0.0,0.0,0.0,0.0,0.0,0.0,0.0,0.0,0.0,0.0,0.0,0.0,0.0,0.0,0.0,0.0,0.0,0.0,0.0,0.0,0.0,0.0,0.0,0.0,0.0,1.9477,2.0256,2.0776,0.0,0.0,0.0,0.0,0.0,0.0,0.0,0.0,0.0,0.0,3.0806,3.2046,3.3833,3.4154,3.4486,3.5364,3.486,3.4381,3.4392,3.306,3.1718,0.0,0.0,0.0,0.0,0.0,0.0,0.0,0.0,0.0,0.0,0.0,0.0,0.0,0.0,0.0,0.0,0.0,0.0,0.0,0.0,0.0,0.0,0.0,0.0,0.0,0.0,0.0,2.7788,2.7771,0.0,0.0,0.0,0.0,0.0,0.0,0.0,0.0,0.0,0.0,0.0,2.9323,2.9841,0.0,0.0,0.0,0.0,0.0,0.0,0.0,0.0,0.0,0.0,0.0,0.0,2.8099,2.8727,2.9885,3.0485,3.0526,3.0692,3.0463,2.9808,2.9179,2.7957,2.6146,0.0,0.0,0.0,0.0,0.0,0.0,0.0,0.0,0.0,0.0,0.0,0.0,0.0,0.0,0.0,0.0,0.0,0.0,0.0,0.0,0.0,0.0,0.0,0.0,0.0,2.0311,0.0,0.0,0.0,0.0,0.0,0.0,0.0,0.0,0.0,0.0,0.0,2.925,3.0,3.1888,3.3444,3.4115,3.4731,3.527,0.0,0.0,0.0,0.0,0.0,0.0,0.0,0.0,0.0,0.0,0.0,0.0,0.0,0.0,2.7427,2.7447,2.6907,2.6461,2.646,0.0,0.0,0.0,0.0,0.0,0.0,0.0,0.0,0.0,0.0,0.0,0.0,0.0,0.0,3.0257,3.0223,2.9985,0.0,0.0,0.0,0.0,0.0,0.0,0.0,0.0,3.0693,3.1066,3.1063,3.155,3.1517,3.1046,3.0796,2.9671,0.0,0.0,0.0,0.0,0.0,0.0,0.0,0.0,2.8874,2.947,3.0325,3.0773,3.0814,3.0875,3.076,3.0391,2.9538,2.8202,2.6372,2.5118,2.403,0.0,0.0,0.0,0.0,0.0,0.0,0.0,0.0,0.0,0.0,0.0,0.0,0.0,0.0,0.0,0.0,0.0,0.0,0.0,0.0,0.0,0.0,0.0,2.1395,0.0,0.0,0.0,0.0,0.0,0.0,0.0,0.0,0.0,2.7236,2.8743,3.026,3.1318,3.3006,3.4255,3.4636,0.0,0.0,0.0,0.0,0.0,0.0,0.0,3.4402,3.3849,3.3081,3.253,3.2553,3.1643,3.074,3.0175,0.0,0.0,2.8481,2.779,2.735,2.7346,2.6844,2.6414,2.6382,2.6329,2.6285,0.0,0.0,0.0,0.0,3.4145,0.0,0.0,0.0,3.3023,3.2698,0.0,3.1946,0.0,0.0,0.0,0.0,3.0394,3.1057,0.0,0.0,3.3102,3.3474,3.3508,3.3537,3.3541,3.3457,3.2763,3.1945,3.1055,2.9576,0.0,0.0,0.0,0.0,0.0,0.0,2.9705,2.9917,3.061,3.1002,3.1116,3.1083,3.1131,3.1213,3.005,2.8682,2.7238,2.6454,2.5472,2.4104,2.3271,0.0,0.0,0.0,0.0,0.0,0.0,0.0,0.0,0.0,0.0,0.0,0.0,0.0,0.0,0.0,0.0,0.0,0.0,0.0,0.0,2.1911,0.0,0.0,0.0,0.0,0.0,0.0,0.0,0.0,0.0,0.0,2.9961,3.0094,3.1097,3.367,0.0,0.0,0.0,0.0,3.5795,3.582,3.5827,3.5889,3.5933,3.522,3.4646,3.4637,0.0,0.0,3.3399,3.3363,3.3318,3.3359,3.2574,3.1352,2.891,2.8384,2.8247,2.8237,2.8093,2.8055,2.8016,2.7832,2.7832,4.0197,0.0,0.0,0.0,0.0,3.5739,3.5656,3.5618,3.5227,3.5023,3.4972,3.4254,0.0,0.0,0.0,0.0,0.0,0.0,3.3414,3.4062,3.4788,3.535,3.5847,3.6366,3.6332,3.5791,3.503,3.4247,3.3482,3.2632,3.0993,2.8676,0.0,0.0,0.0,0.0,3.0351,3.1379,3.1766,3.2202,3.2842,3.2334,3.1674,3.088,3.0023,2.9158,2.8331,2.7116,2.6006,2.504,2.4287,0.0,0.0,0.0,0.0,0.0,0.0,0.0,0.0,0.0,0.0,0.0,0.0,0.0,0.0,0.0,0.0,0.0,0.0,0.0,2.2887,2.3714,2.4316,0.0,0.0,0.0,0.0,0.0,0.0,0.0,0.0,0.0,3.3325,3.3033,3.3255,0.0,0.0,3.6376,3.725,3.7489,3.754,3.755,3.7083,0.0,3.6748,3.6066,3.5535,3.5525,3.4809,3.4077,3.3511,3.3382,3.3395,3.3398,3.3201,3.2567,3.1292,2.9963,2.9206,2.9087,2.8588,2.8123,2.8069,2.8043,2.7999,4.4161,4.2291,4.0163,3.9002,3.8579,3.8412,3.8365,3.8309,3.7845,3.7637,3.7585,3.6844,3.6345,3.6,3.5297,0.0,0.0,0.0,3.5578,3.6144,3.6581,3.7019,3.7409,3.7868,3.7834,3.7375,3.6916,3.6288,3.5528,3.4857,3.342,3.1221,0.0,0.0,3.1371,3.143,3.1873,3.2737,3.2849,3.3169,3.3656,3.3017,3.2217,3.1287,3.0594,2.9994,2.9417,2.8306,2.7193,2.6087,2.5605,2.4663,0.0,0.0,0.0,0.0,0.0,0.0,0.0,0.0,0.0,0.0,0.0,2.0659,2.1476,0.0,0.0,0.0,2.3419,2.4111,2.4682,2.5237,0.0,0.0,0.0,0.0,0.0,0.0,0.0,3.0438,3.2155,3.3724,3.4859,3.5231,3.563,3.6254,3.687,3.7488,3.8022,0.0,3.828,3.8306,3.7885,3.7458,3.7144,3.6697,3.6284,3.5927,3.5471,3.501,3.4542,3.4432,3.4429,3.4394,3.4158,3.376,3.3228,3.1728,3.0384,3.009,2.9555,2.9156,2.9126,2.9094,2.8992,4.7694,4.7299,4.3647,4.1983,4.1786,4.1654,4.1539,4.1434,4.0675,4.0379,4.0309,3.9547,3.8711,3.7875,3.7178,0.0,3.762,3.762,3.7885,3.8413,3.8436,3.8448,3.8516,3.8516,3.8499,3.8516,3.8448,3.802,3.7285,3.6571,3.5852,3.5116,3.447,3.4021,3.3809,3.3813,3.3847,3.3915,3.3915,3.3936,3.3939,3.3345,3.2778,3.2248,3.1649,3.1002,3.0355,2.9754,2.8693,2.7142,2.703,2.6369,2.4927,0.0,0.0,0.0,0.0,0.0,0.0,0.0,0.0,0.0,0.0,0.0,0.0,0.0,0.0,0.0,2.5844,0.0,2.6329,2.6501,0.0,0.0,0.0,2.7606,2.9134,2.9527,3.0373,3.2117,0.0,0.0,3.5277,3.6827,3.795,3.8068,3.8101,3.8155,3.8273,3.8433,3.8429,3.8606,3.8462,3.8146,3.7579,3.7222,3.6775,3.6051,3.5897,3.5858,3.5884,3.5913,3.597,3.5898,3.533,3.4737,3.47,3.3243,3.1941,3.105,3.0753,3.0652,3.0565,3.049,3.0412,5.0018,4.9329,4.7837,4.6075,4.4243,4.4095,4.3674,4.3109,4.2864,4.277,4.2701,4.1393,4.0058,3.8769,3.8611,3.8562,3.8621,3.8621,3.895,3.9502,3.952,3.9784,4.0266,4.0283,4.0283,4.0231,3.9663,3.9244,3.9061,3.8449,3.775,3.7003,3.6981,3.5948,3.3971,3.3882,3.4194,3.484,3.4877,3.4921,3.5065,3.4455,3.3894,3.3406,3.2197,3.124,3.0617,2.9992,2.8904,2.7386,2.7308,2.6874,2.5958,2.5751,0.0,0.0,0.0,0.0,0.0,0.0,0.0,0.0,0.0,2.3559,2.4404,0.0,2.5583,0.0,2.6253,2.6396,2.6447,2.7621,0.0,0.0,2.9628,3.0604,3.1114,3.1842,3.2748,3.3941,3.5171,3.6435,3.7747,3.8409,3.9046,3.9698,3.9331,3.9234,3.9874,4.005,4.0126,4.0089,3.9649,3.9224,3.8888,3.7912,3.6814,3.6038,3.5882,3.5925,3.5999,3.6009,3.6008,3.6014,3.5859,3.5442,3.4843,3.3794,3.2824,3.1969,3.1217,3.0694,3.0691,3.0642,3.058,5.1572,5.1112,5.035,4.8957,4.728,4.6519,4.5901,4.5389,4.4723,4.4466,4.4378,4.3195,4.222,4.1415,4.1041,4.0818,4.0692,4.0311,4.0306,4.0555,4.0492,4.0672,4.1041,4.1105,4.1129,4.1111,4.0723,4.0537,4.0525,3.9861,3.9347,3.8893,3.873,3.7927,3.6472,3.5673,3.5511,3.6003,3.6003,3.5928,3.5756,3.5391,3.4818,3.4013,3.3253,3.2376,3.1405,3.0736,2.9805,2.8633,2.8221,2.7688,2.6925,2.6886,2.6504,0.0,0.0,0.0,0.0,0.0,0.0,0.0,0.0,0.0,0.0,0.0,2.6728,2.7485,2.8244,2.8682,2.8723,2.9582,3.0162,3.0215,3.109,3.2004,3.2816,3.3452,3.4325,3.5676,3.6754,3.7766,3.868,3.9306,3.984,4.033,4.0065,4.0022,4.0491,4.0648,4.0668,4.075,4.0416,3.9834,3.9175,3.7607,3.6374,3.6011,3.5895,3.5922,3.5979,3.601,3.6007,3.6014,3.6015,3.5873,3.5318,3.4228,3.3237,3.2701,3.1617,3.08,3.0707,3.0637,3.0589,5.2635,5.2475,5.1695,5.0943,5.0163,4.8746,4.7939,4.7534,4.633,4.571,4.5462,4.4794,4.4422,4.428,4.3585,4.3205,4.3023,4.2167,4.1722,4.1611,4.1398,4.13,4.13,4.1426,4.1471,4.1471,4.1604,4.167,4.1653,4.1024,4.0676,4.0553,4.0008,3.9704,3.9607,3.8174,3.73,3.7085,3.7068,3.6829,3.6307,3.6201,3.5616,3.4473,3.4436,3.375,3.2295,3.166,3.0992,3.0215,2.9509,2.8815,2.8122,2.8085,2.7666,0.0,2.6837,0.0,0.0,0.0,0.0,0.0,0.0,0.0,0.0,2.6984,2.7724,2.9219,3.0661,3.1507,3.1525,3.1659,3.1799,3.1934,3.2157,3.2906,3.446,3.4813,3.5569,3.7205,3.8214,3.8831,3.9013,3.9822,4.0407,4.0415,4.0414,4.0469,4.0574,4.0595,4.0648,4.0776,4.0703,3.9976,3.8603,3.7044,3.6048,3.5953,3.5898,3.5925,3.5979,3.601,3.6007,3.6013,3.6015,3.5991,3.6006,3.4565,3.3434,3.3315,3.1936,3.0764,3.0697,3.0664,3.0606,5.3378,5.2763,5.1935,5.1493,5.1177,5.0336,4.9117,4.7745,4.7468,4.669,4.5577,4.5399,4.5013,4.4467,4.4307,4.417,4.4005,4.32,4.2803,4.2763,4.2141,4.1858,4.1858,4.188,4.188,4.1902,4.1952,4.1998,4.1998,4.1979,4.1611,4.1007,4.0967,4.0653,4.0046,0.0,0.0,0.0,3.7485,3.7469,3.7381,3.6861,3.6209,3.5435,3.4909,0.0,3.252,3.2328,3.1924,3.1182,3.0992,0.0,0.0,0.0,0.0,0.0,0.0,0.0,0.0,0.0,0.0,0.0,3.0473,2.9898,2.8689,2.9768,3.0679,3.1004,3.1359,3.1591,3.1609,3.2218,3.2956,3.3714,3.4431,3.534,3.6429,3.6645,3.7151,3.8266,3.8648,3.9108,3.9805,4.0242,4.0407,4.0415,4.0452,4.0527,4.0581,4.0588,4.0641,4.0752,4.0297,3.9483,3.8472,3.7465,3.655,3.6112,3.5888,3.5916,3.5981,3.601,3.6005,3.6011,3.6015,3.601,3.599,3.4588,3.3432,3.3393,3.2002,3.0756,3.0722,3.0664,3.0602,5.4152,5.3385,5.26,5.204,0.0,5.1237,5.035,4.907,4.8324,4.7358,4.63,4.635,4.6181,4.5806,4.5497,4.5297,4.5195,4.4331,4.3936,4.39,4.3124,4.2743,4.2725,4.2376,4.2184,4.2184,4.229,4.2369,4.2369,4.249,4.2332,4.1938,4.2093,4.1971,4.1593,4.1325,4.0492,3.9086,3.8654,3.8491,3.8578,3.7854,3.716,3.6456,3.5748,0.0,0.0,0.0,0.0,0.0,0.0,0.0,0.0,3.1403,0.0,3.0265,3.0558,3.0613,3.0246,3.0558,3.0987,3.1428,3.2256,3.2035,3.0379,3.1403,3.2318,3.2742,3.3192,3.3661,3.4087,3.4563,3.5033,3.5546,3.6041,3.6698,3.7523,3.7849,3.831,3.9115,3.941,3.969,4.0129,4.0317,4.0415,4.0441,4.0487,4.0527,4.0574,4.0588,4.0641,4.0745,4.0128,3.9295,3.8423,3.7616,3.681,3.6115,3.5897,3.5924,3.6001,3.6013,3.6009,3.6011,3.6016,3.6011,3.5912,3.4923,3.3906,3.3413,3.234,3.1278,3.0845,3.0681,3.0649,5.4839,5.4179,5.3268,5.2536,5.1886,5.1762,5.1269,5.043,4.89,0.0,0.0,4.7228,4.7223,4.7187,4.6647,4.6385,4.6331,4.5455,4.5057,4.4982,4.4145,4.3763,4.3727,4.3002,4.2629,4.2649,4.2643,4.2649,4.2668,4.2803,4.286,4.2879,4.303,4.3105,4.3105,4.254,4.1884,4.1105,4.0108,3.9545,3.9504,3.8885,3.8118,3.7249,3.6665,3.5981,3.5176,3.3931,3.3243,3.3225,3.2614,3.2278,3.226,3.2118,3.2027,3.2039,3.2045,3.2039,3.207,3.2199,3.231,3.2385,3.3702,3.3924,3.2459,3.3044,3.3765,3.4485,3.521,3.5955,3.6643,3.6776,3.6907,3.7106,3.7239,3.7629,3.8458,3.875,3.9172,3.981,4.0049,4.0206,4.0215,4.0335,4.0405,4.0474,4.0503,4.0527,4.0574,4.0628,4.0681,4.0719,4.0115,3.9295,3.8457,3.762,3.681,3.6057,3.5903,3.5934,3.599,3.6016,3.6009,3.601,3.6016,3.6012,3.5951,3.5256,3.4497,3.3746,3.2795,3.1873,3.1137,3.0779,3.0667,5.5302,5.5061,5.3526,5.284,5.2679,5.1976,5.1318,5.0557,4.9,4.8212,4.8087,4.7519,4.7276,4.7258,4.7172,4.714,4.7082,4.6345,4.6004,4.5968,4.5177,4.4797,4.4743,4.3971,4.3614,4.356,4.3048,4.2804,4.2862,4.3011,4.3104,4.316,4.3178,4.3233,4.334,4.3248,4.3156,4.3043,4.1442,4.0262,3.9606,3.9581,3.8846,3.7381,3.7308,3.6927,3.6142,3.5881,3.5771,3.5771,3.5693,3.5605,3.5569,3.4839,3.4491,3.4491,3.4491,3.455,3.4668,3.5312,3.5726,3.5808,3.6078,3.611,3.584,3.5967,3.6118,3.6247,3.6476,3.6652,3.6776,3.6907,3.7305,3.7976,3.8106,3.8515,3.9415,3.9629,3.9773,4.0019,4.0147,4.0225,4.0289,4.0362,4.0432,4.0482,4.05,4.0508,4.06,4.0707,4.0771,4.0711,4.012,3.9281,3.8535,3.7637,3.6899,3.6034,3.5953,3.5984,3.5988,3.6016,3.601,3.6011,3.6015,3.6011,3.5991,3.5296,3.4752,3.4371,3.3267,3.2196,3.1863,3.13,3.075,5.5881,5.5379,5.4215,5.3473,5.3043,5.2254,5.1741,5.1365,5.0322,4.9274,4.8421,4.8155,4.7839,4.7425,4.7472,4.7511,4.7493,4.7168,4.6988,4.6973,4.6197,4.5818,4.5745,4.5066,4.4744,4.4708,4.4462,4.4339,4.4341,4.4071,4.3907,4.3944,4.3559,4.3393,4.3464,4.3445,4.3463,4.3461,4.2255,4.1435,4.1069,4.07,3.9946,3.8737,3.8362,3.7768,3.6997,3.6538,3.6285,3.6285,3.6285,3.6285,3.6285,3.5936,3.5716,3.5716,3.5725,3.5786,3.5846,3.6261,3.6717,3.7146,3.7275,3.7501,3.7941,3.7188,3.6885,3.7312,3.7441,3.7704,3.819,3.829,3.8508,3.8999,3.9096,3.932,3.9731,3.9943,4.0046,4.0147,4.0196,4.0271,4.0353,4.0424,4.0466,4.0495,4.0539,4.0559,4.0635,4.072,4.0802,4.0775,4.0474,3.9931,3.9112,3.833,3.7513,3.6719,3.6253,3.6046,3.6019,3.6021,3.601,3.6013,3.6015,3.6011,3.601,3.5707,3.5264,3.4683,3.4189,3.3412,3.2811,3.2003,3.1277,5.6487,5.5857,5.4996,5.4151,5.3253,5.2492,5.215,5.2078,5.1602,5.0561,4.9226,4.9063,4.8562,4.7861,4.7946,4.7898,4.7738,4.7738,4.7741,4.7708,4.713,4.6839,4.6767,4.6121,4.5797,4.5762,4.5656,4.5622,4.5568,4.5132,4.4876,4.4839,4.4306,4.4047,4.4048,4.3846,4.3754,4.3718,4.2983,4.247,4.2286,4.1664,4.1001,4.0194,3.9588,3.8946,3.8319,3.7551,3.711,3.7092,3.6945,3.6835,3.6835,3.6666,3.6666,3.6809,3.6738,3.6762,3.6971,3.7096,3.7524,3.8336,3.8464,3.8872,3.9559,3.8673,3.8001,3.8281,3.837,3.8708,3.9264,3.9489,3.9601,3.971,3.9777,3.9818,3.9922,4.0046,4.0147,4.0215,4.0252,4.0325,4.0415,4.0477,4.0507,4.0523,4.0571,4.0621,4.07,4.0752,4.0794,4.0812,4.0796,4.0451,3.9737,3.8906,3.8088,3.7344,3.6533,3.6109,3.6009,3.6003,3.6012,3.6015,3.6015,3.6011,3.6009,3.5982,3.5695,3.5172,3.4776,3.4317,3.3376,3.2753,3.1868,5.6923,5.6742,5.5865,5.4637,5.3277,5.2582,5.2305,5.2293,5.232,5.1878,5.0972,5.0307,4.9543,4.8855,4.8764,4.8448,4.7936,4.7881,4.7904,4.7951,4.7899,4.7862,4.7771,4.7042,4.6696,4.6605,4.6004,4.5806,4.5919,4.5754,4.5718,4.5773,4.5718,4.5626,4.5571,4.4929,4.4581,4.458,4.3791,4.3039,4.2341,4.2231,4.1809,4.1022,4.0912,4.0857,4.06,3.9992,3.9567,3.9515,3.8854,3.8487,3.8414,3.7808,3.7761,3.8464,3.7908,3.7856,3.8668,3.8841,3.9259,4.0128,4.0198,4.0574,4.1371,4.1407,4.0747,3.973,3.9363,3.9502,3.9508,3.9695,3.9885,4.0015,4.0026,3.9922,4.01,4.0127,4.0186,4.0196,4.0471,4.0362,4.0573,4.054,4.0523,4.0554,4.0605,4.0647,4.0707,4.0764,4.0792,4.0815,4.0842,4.0573,3.9861,3.8957,3.825,3.7406,3.6572,3.6148,3.6049,3.6005,3.6012,3.6015,3.6014,3.601,3.6005,3.6018,3.5988,3.5699,3.5182,3.4452,3.3604,3.3252,3.2609,5.7112,5.704,5.6194,5.4959,5.3586,5.3255,5.2862,5.2446,5.2549,5.2359,5.2091,5.1791,5.0973,4.9727,4.9283,4.8907,4.8639,4.8186,4.797,4.7992,4.7992,4.7992,4.7975,4.776,4.7635,4.7616,4.7327,4.722,4.7184,4.68,4.636,4.5938,4.5902,4.5902,4.5865,4.5571,4.5406,4.5388,4.5094,4.4525,4.3773,4.3259,4.2635,4.1919,4.1811,4.1554,4.1132,4.0747,4.0598,4.0598,4.0286,4.0104,4.012,3.9837,3.9829,4.0188,4.004,4.0093,4.0511,4.0597,4.0798,4.1199,4.1241,4.1446,4.1795,4.19,4.164,4.116,4.1022,4.1055,4.1073,4.1208,4.1309,4.1348,4.1426,4.1502,4.1584,4.1655,4.1743,4.1743,4.1826,4.1669,4.1251,4.0819,4.0596,4.0598,4.0633,4.0725,4.0765,4.0788,4.079,4.0832,4.0898,4.0848,4.0431,3.9735,3.889,3.8102,3.7264,3.6657,3.6137,3.6026,3.6013,3.6015,3.6013,3.6009,3.6005,3.6017,3.6007,3.5894,3.5795,3.5134,3.4254,3.4082,3.3471,5.7313,5.7162,5.6442,5.5353,5.4096,5.3883,5.3339,5.2649,5.2631,5.2635,5.2658,5.2806,5.2186,5.1027,5.0213,4.9781,4.9528,4.8963,4.8747,4.8749,4.8567,4.8439,4.844,4.8262,4.8226,4.8228,4.8249,4.8268,4.8251,4.7736,4.7131,4.6636,4.6562,4.6544,4.6526,4.6379,4.6232,4.6214,4.603,4.5608,4.5021,4.447,4.3663,4.2745,4.2616,4.2341,4.1774,4.157,4.1425,4.1425,4.1224,4.1111,4.1126,4.1172,4.122,4.1283,4.1443,4.1564,4.1634,4.1673,4.181,4.2076,4.2151,4.2314,4.2583,4.2688,4.2754,4.2818,4.2857,4.2781,4.2283,4.234,4.2416,4.2462,4.255,4.2644,4.2686,4.2785,4.2757,4.2852,4.279,4.2804,4.2187,4.1659,4.1347,4.1082,4.104,4.0933,4.0842,4.0792,4.0812,4.0809,4.0917,4.0975,4.0937,4.024,3.949,3.8878,3.8016,3.6981,3.6398,3.6264,3.6014,3.6015,3.6012,3.6009,3.6022,3.6013,3.6006,3.5988,3.5909,3.5688,3.5097,3.4971,3.469,5.7583,5.7449,5.6726,5.5918,5.5098,5.4369,5.3549,5.2852,5.282,5.2802,5.2824,5.2915,5.2944,5.2721,5.1813,5.1137,5.0602,5.0419,5.0387,5.0431,4.9828,4.9536,4.9481,4.871,4.8342,4.8525,4.8544,4.8489,4.8397,4.8306,4.8233,4.8177,4.8086,4.8141,4.7994,4.7351,4.7039,4.6966,4.6434,4.592,4.5847,4.581,4.502,4.3698,4.346,4.3406,4.3276,4.2635,4.2249,4.2249,4.1589,4.1217,4.1243,4.1277,4.1412,4.1533,4.1638,4.1675,4.1785,4.1851,4.2188,4.2936,4.3147,4.3483,4.4119,4.4234,4.4301,4.46,4.4512,4.403,4.2841,4.2731,4.2701,4.277,4.2739,4.2849,4.2899,4.3063,4.2899,4.3049,4.3141,4.3129,4.3038,4.303,4.2518,4.2047,4.1889,4.1706,4.1092,4.0881,4.09,4.0893,4.0939,4.0992,4.0922,4.0523,4.0012,3.9411,3.8497,3.7363,3.7002,3.6677,3.6328,3.6014,3.6011,3.6007,3.6017,3.6009,3.6022,3.5988,3.5946,3.5727,3.5551,3.5756,3.5518,5.7583,5.7565,5.7291,5.6708,5.5942,5.5673,5.4793,5.3608,5.3679,5.3409,5.301,5.3082,5.3124,5.3106,5.2789,5.2202,5.1474,5.098,5.0743,5.0765,5.049,5.0362,5.0325,5.0031,4.9903,4.9903,4.9903,4.9903,4.9829,4.9389,4.9151,4.9003,4.8563,4.8324,4.8269,4.8031,4.7846,4.7829,4.7553,4.7186,4.6728,4.6765,4.6268,4.5219,4.4579,4.4268,4.4268,4.3497,4.3091,4.3106,4.2831,4.277,4.2834,4.2899,4.2995,4.3089,4.3199,4.3275,4.3305,4.3388,4.3572,4.391,4.4036,4.418,4.453,4.4667,4.4757,4.4846,4.4938,4.4611,4.4406,4.4189,4.4211,4.4255,4.434,4.4363,4.4469,4.4518,4.4565,4.4524,4.4186,4.3855,4.38,4.3493,4.3057,4.2823,4.28,4.2454,4.1853,4.1618,4.1468,4.1034,4.0948,4.0984,4.0993,4.0857,4.0491,3.9926,3.9123,3.8282,3.7726,3.7205,3.6797,3.6228,3.6127,3.6005,3.6014,3.6002,3.6015,3.5988,3.5946,3.5906,3.5888,3.5895,3.5872,5.7721,5.7721,5.7721,5.7246,5.6575,5.6556,5.5789,5.4582,5.4594,5.4217,5.3576,5.3531,5.3463,5.3222,5.3185,5.2949,5.238,5.183,5.1573,5.1555,5.1298,5.1187,5.1132,5.093,5.082,5.0802,5.082,5.082,5.0765,5.0251,4.9994,4.9921,4.937,4.9094,4.9114,4.9114,4.9022,4.8783,4.8729,4.8344,4.7683,4.7666,4.7463,4.6873,4.6028,4.544,4.5201,4.465,4.4243,4.4074,4.4054,4.3977,4.3855,4.3899,4.3961,4.4005,4.4101,4.4214,4.4244,4.4344,4.4393,4.4468,4.4537,4.4619,4.4659,4.4757,4.4858,4.4919,4.5003,4.5095,4.5181,4.5205,4.5275,4.5256,4.5338,4.5418,4.5438,4.5438,4.5446,4.5377,4.501,4.4784,4.4729,4.4326,4.3979,4.3694,4.3678,4.3389,4.2723,4.2255,4.2008,4.1446,4.1131,4.1054,4.1026,4.0975,4.0918,4.0426,3.9857,3.9069,3.8412,3.7851,3.7246,3.6617,3.6223,3.608,3.6012,3.6019,3.6009,3.5984,3.5948,3.5886,3.5891,3.5895,3.5875,5.7997,5.7955,5.7978,5.7551,5.6905,5.6868,5.6381,5.5644,5.5592,5.513,5.4433,5.4399,5.4051,5.3463,5.3387,5.324,5.3185,5.3023,5.2928,5.2892,5.2307,5.1995,5.1958,5.1371,5.1077,5.1059,5.093,5.0912,5.1022,5.0894,5.082,5.0802,5.0674,5.049,5.071,5.0527,5.0288,4.9795,4.9652,4.9341,4.8642,4.8606,4.8587,4.8457,4.7755,4.698,4.6279,4.6131,4.5652,4.5078,4.5004,4.4668,4.423,4.4199,4.4116,4.4278,4.4265,4.4337,4.4431,4.4574,4.4763,4.4866,4.4737,4.4955,4.5129,4.5142,4.5204,4.5326,4.538,4.5382,4.5442,4.5566,4.556,4.5408,4.5389,4.5438,4.5486,4.5495,4.5522,4.5558,4.5479,4.5593,4.5635,4.5452,4.5125,4.4667,4.4543,4.4311,4.3567,4.2962,4.2432,4.208,4.1681,4.1333,4.1214,4.1108,4.1087,4.0968,4.0415,3.9759,3.9255,3.8711,3.8026,3.7397,3.6669,3.6467,3.601,3.6017,3.5986,3.5979,3.5921,3.5889,3.59,3.5885,3.5889,5.7978,5.7978,5.7978,5.7868,5.7648,5.7629,5.7171,5.6455,5.6436,5.5959,5.5335,5.5207,5.506,5.4748,5.4308,5.4014,5.3977,5.3479,5.3185,5.3185,5.2928,5.2803,5.2747,5.2543,5.2472,5.2433,5.2454,5.2433,5.2325,5.1885,5.1628,5.1536,5.1077,5.082,5.0875,5.0802,5.0659,5.0554,5.05,5.043,5.023,4.9788,4.9565,4.9491,4.8823,4.8284,4.8024,4.6884,4.6128,4.5902,4.5884,4.5823,4.5702,4.5744,4.5775,4.5791,4.5954,4.6064,4.6076,4.6152,4.6201,4.6313,4.6377,4.649,4.6581,4.66,4.6655,4.6789,4.6904,4.6961,4.7038,4.708,4.6633,4.5542,4.5429,4.5515,4.5514,4.555,4.5577,4.5586,4.5594,4.5629,4.5668,4.568,4.5615,4.5423,4.5382,4.5131,4.4451,4.4031,4.3384,4.2559,4.2093,4.1694,4.146,4.133,4.1289,4.1169,4.0751,4.0406,3.996,3.9433,3.8767,3.8079,3.735,3.6836,3.6377,3.6095,3.6142,3.6012,3.5958,3.5931,3.5906,3.5894,3.5895,5.7978,5.7978,5.7978,5.7978,5.7978,5.7978,5.7721,5.7299,5.7244,5.6785,5.6161,5.6051,5.5868,5.5537,5.5042,5.4858,5.4803,5.4308,5.4087,5.3959,5.335,5.3203,5.3185,5.3185,5.3185,5.3185,5.3185,5.3185,5.3167,5.2711,5.2454,5.2344,5.194,5.172,5.1701,5.1706,5.1656,5.1423,5.1427,5.1357,5.1101,5.0731,5.0509,5.0416,4.9765,4.9392,4.9244,4.7987,4.7118,4.6837,4.6593,4.6475,4.6525,4.6568,4.6635,4.6685,4.6797,4.6889,4.6934,4.6938,4.7113,4.7188,4.7251,4.7326,4.7403,4.7498,4.7584,4.7686,4.7697,4.781,4.7856,4.7938,4.7451,4.656,4.6167,4.5888,4.5656,4.5577,4.5586,4.5594,4.5631,4.5654,4.5684,4.5723,4.5754,4.58,4.5848,4.5803,4.5219,4.4902,4.4059,4.3365,4.3027,4.2494,4.1769,4.1575,4.1472,4.1291,4.1048,4.0837,4.0527,3.998,3.9349,3.8641,3.7931,3.7809,3.739,3.6795,3.659,3.6343,3.6192,3.5931,3.5906,3.5891,3.5895,5.7978,5.7978,5.7978,5.7978,5.7978,5.7978,5.796,5.796,5.7923,5.7501,5.6969,5.6877,5.651,5.5886,5.5757,5.5666,5.5633,5.5467,5.5335,5.5023,5.4216,5.357,5.3589,5.3628,5.3647,5.3534,5.3497,5.3482,5.361,5.3518,5.3332,5.3427,5.3408,5.328,5.3191,5.3293,5.2913,5.2349,5.2395,5.212,5.1528,5.1436,5.1454,5.1416,5.0673,5.019,5.0113,4.9423,4.8641,4.7847,4.7243,4.6997,4.6842,4.6813,4.7025,4.7081,4.703,4.7234,4.7214,4.7504,4.7546,4.7681,4.7734,4.7509,4.7865,4.8066,4.8107,4.8159,4.8204,4.8192,4.8243,4.8363,4.8308,4.8097,4.7348,4.6637,4.5904,4.5825,4.5825,4.5776,4.5725,4.5679,4.57,4.5758,4.5803,4.5833,4.5867,4.5821,4.5741,4.5384,4.4953,4.4424,4.3872,4.3344,4.2634,4.2004,4.1901,4.1665,4.1362,4.1052,4.0957,4.0467,3.9894,3.9204,3.8749,3.8645,3.8266,3.7613,3.729,3.7237,3.6857,3.6226,3.6195,3.6475,3.6518,5.7978,5.7978,5.7978,5.7978,5.7978,5.7978,5.7978,5.7978,5.7978,5.785,5.7685,5.7685,5.7519,5.7299,5.6712,5.6492,5.6381,5.5904,5.5614,5.5559,5.5225,5.4968,5.4968,5.495,5.4913,5.4876,5.4803,5.4968,5.495,5.484,5.4876,5.4968,5.4861,5.4648,5.427,5.4183,5.3861,5.3374,5.3341,5.3308,5.305,5.2512,5.2326,5.2288,5.1562,5.1205,5.1183,5.0473,4.9687,4.8905,4.866,4.8511,4.8434,4.8496,4.8468,4.8503,4.8705,4.8871,4.8878,4.8942,4.9046,4.9145,4.9051,4.9346,4.9404,4.946,4.952,4.9598,4.9698,4.9707,4.9769,4.9813,4.9653,4.9058,4.8337,4.7683,4.7308,4.6913,4.6547,4.6509,4.61,4.5891,4.5804,4.5843,4.5856,4.5873,4.588,4.5898,4.5869,4.5876,4.5486,4.4982,4.4463,4.4052,4.3512,4.2765,4.2315,4.2097,4.1675,4.113,4.1074,4.0916,4.0343,3.9726,3.9608,3.9484,3.8871,3.8218,3.8148,3.8154,3.7829,3.7431,3.7678,3.7923,3.7787,5.7978,5.7978,5.7978,5.7978,5.7978,5.7978,5.7978,5.7978,5.7978,5.7978,5.7978,5.7978,5.7978,5.7923,5.7501,5.7317,5.7226,5.6822,5.6638,5.662,5.662,5.6257,5.578,5.5614,5.5614,5.5614,5.5633,5.5596,5.5559,5.5614,5.5636,5.5625,5.5698,5.5469,5.5131,5.5138,5.5036,5.4732,5.4457,5.4255,5.4239,5.3572,5.3274,5.3106,5.2508,5.2038,5.1712,5.1245,5.0611,4.9865,4.9433,4.9244,4.9244,4.9343,4.9371,4.9418,4.9544,4.9604,4.9697,4.9764,4.9816,4.9852,4.9965,5.0044,5.0076,5.0175,5.0243,5.0268,5.0412,5.0468,5.0532,5.0603,5.0423,4.9981,4.949,4.8875,4.8221,4.7663,4.7441,4.7314,4.7069,4.6637,4.6379,4.6348,4.6187,4.6002,4.5886,4.5943,4.5978,4.6032,4.5981,4.5492,4.5214,4.4883,4.4495,4.3825,4.2866,4.2588,4.1891,4.1346,4.123,4.1227,4.0831,4.0411,4.0369,4.0189,3.9634,3.9195,3.9046,3.8973,3.8784,3.8617,3.8653,3.8883,3.8806,5.7978,5.7978,5.7978,5.7978,5.7978,5.7978,5.7978,5.7978,5.7978,5.7978,5.7978,5.7978,5.7978,5.7978,5.7886,5.7941,5.7941,5.7758,5.7831,5.7776,5.7685,5.7189,5.6239,5.6143,5.6147,5.611,5.5908,5.6,5.6169,5.6059,5.6033,5.6264,5.627,5.6074,5.6087,5.6154,5.6197,5.5886,5.5388,5.5169,5.504,5.4484,5.4149,5.4074,5.3455,5.2833,5.2379,5.1984,5.1593,5.0763,4.995,4.9792,4.9714,4.9737,4.9686,4.9725,4.9732,4.9692,4.9792,4.9835,4.9871,4.9978,4.9999,5.0063,5.0163,5.0212,5.029,5.0359,5.0468,5.0551,5.0603,5.0682,5.0654,5.051,5.0548,4.9875,4.8836,4.8298,4.8259,4.8293,4.8317,4.7904,4.7519,4.717,4.6975,4.6468,4.6287,4.6226,4.615,4.6061,4.6093,4.5994,4.5845,4.5791,4.536,4.4907,4.3869,4.306,4.2167,4.1582,4.1464,4.1382,4.12,4.0978,4.0779,4.0755,4.073,4.0368,4.0021,3.9853,3.9703,3.9265,3.8964,3.9393,3.952,5.7978,5.7978,5.7978,5.7978,5.7978,5.7978,5.7978,5.7978,5.7978,5.7978,5.7978,5.7978,5.7978,5.7978,5.7978,5.7978,5.7978,5.7978,5.7978,5.7978,5.7978,5.7868,5.745,5.7377,5.7432,5.7414,5.7469,5.7514,5.7563,5.7457,5.7685,5.7722,5.7577,5.7547,5.708,5.7029,5.6755,5.6354,5.6097,5.6044,5.5935,5.536,5.5007,5.5023,5.4437,5.4039,5.3755,5.3228,5.2815,5.2442,5.1842,5.1367,5.1224,5.0789,5.0587,5.0493,5.0113,4.9882,4.9909,5.0039,4.9992,5.0165,5.0158,5.0182,5.0188,5.0302,5.0348,5.0404,5.05,5.0603,5.0653,5.0683,5.0683,5.0683,5.0693,5.0577,5.0115,4.9519,4.9211,4.9102,4.8731,4.8252,4.8099,4.8125,4.7743,4.7101,4.6771,4.6607,4.6404,4.6187,4.6113,4.6149,4.6125,4.5991,4.577,4.5301,4.4479,4.3628,4.2792,4.2168,4.2049,4.1576,4.1396,4.1233,4.107,4.1106,4.1083,4.1048,4.0604,4.0613,4.0563,4.0259,4.0058,4.0253,4.0185,5.7978,5.7978,5.7978,5.7978,5.7978,5.7978,5.7978,5.7978,5.7978,5.7978,5.7978,5.7978,5.7978,5.7978,5.7978,5.7978,5.7978,5.7978,5.7978,5.802,5.8042,5.8088,5.8129,5.8133,5.8174,5.8111,5.8138,5.8219,5.8264,5.8286,5.8279,5.844,5.8462,5.8267,5.8018,5.7925,5.78,5.7472,5.7048,5.6922,5.6831,5.6294,5.5678,5.5561,5.5144,5.4841,5.4352,5.4015,5.3804,5.367,5.3348,5.2744,5.2168,5.1691,5.1507,5.145,5.1277,5.1045,5.1109,5.0835,5.071,5.0736,5.0461,5.0281,5.0278,5.0379,5.0435,5.0478,5.0562,5.0642,5.0683,5.0683,5.0683,5.0683,5.0683,5.0683,5.0616,5.0279,5.0047,5.0035,4.9817,4.9404,4.9165,4.903,4.859,4.7966,4.7248,4.7065,4.6823,4.6581,4.6219,4.617,4.6196,4.6128,4.6002,4.5576,4.4934,4.4236,4.3632,4.3183,4.2967,4.232,4.1633,4.1431,4.1228,4.1109,4.1104,4.1109,4.1113,4.0969,4.09,4.1042,4.1029,4.076,4.0685,5.7978,5.7978,5.7978,5.7978,5.7978,5.7978,5.7978,5.7978,5.7978,5.7978,5.7978,5.7978,5.7978,5.7978,5.7978,5.7978,5.7997,5.8024,5.8042,5.8065,5.8174,5.8219,5.8242,5.8308,5.8353,5.8264,5.8308,5.8353,5.8396,5.8415,5.8462,5.8529,5.8551,5.8537,5.8638,5.8719,5.8589,5.8405,5.804,5.7859,5.7749,5.723,5.6555,5.6007,5.5837,5.5573,5.5103,5.4747,5.4612,5.4693,5.4597,5.3804,5.2931,5.2375,5.2428,5.2483,5.2343,5.2185,5.2134,5.1883,5.1605,5.1668,5.114,5.0672,5.0685,5.0703,5.0681,5.06,5.0613,5.0653,5.0683,5.0683,5.0683,5.0683,5.0683,5.0693,5.0693,5.0702,5.0652,5.0687,5.0499,5.0193,5.0001,4.9845,4.9347,4.8826,4.8102,4.7548,4.7349,4.7014,4.671,4.6356,4.6381,4.6264,4.612,4.6048,4.5384,4.498,4.4433,4.4121,4.3808,4.3142,4.2397,4.1627,4.1348,4.1267,4.1165,4.1113,4.1103,4.1113,4.11,4.1103,4.1114,4.111,4.1068,5.7978,5.7978,5.7978,5.7978,5.7978,5.7978,5.7978,5.7978,5.7978,5.7978,5.7978,5.7978,5.7978,5.7978,5.7978,5.7978,5.8061,5.8088,5.8133,5.8174,5.8286,5.8353,5.8375,5.8443,5.8465,5.8443,5.844,5.844,5.8486,5.8508,5.8551,5.8635,5.8656,5.8677,5.8737,5.8818,5.884,5.886,5.87,5.8705,5.8576,5.8091,5.7378,5.6757,5.6681,5.6512,5.6267,5.5761,5.5457,5.5524,5.5002,5.4613,5.4207,5.3671,5.3421,5.339,5.3048,5.287,5.2836,5.2641,5.2539,5.2551,5.2344,5.1997,5.1679,5.1497,5.1359,5.0929,5.0797,5.0731,5.0683,5.0721,5.0683,5.0683,5.0693,5.0693,5.0702,5.0748,5.0803,5.0829,5.0863,5.0885,5.0623,5.0429,5.0123,4.9692,4.9168,4.8677,4.838,4.7903,4.736,4.6995,4.6644,4.6446,4.6255,4.6238,4.5976,4.5742,4.5312,4.4961,4.4551,4.3965,4.3258,4.2666,4.1936,4.156,4.1417,4.1388,4.1458,4.172,4.1473,4.1165,4.1253,4.1341,4.1091,5.7978,5.7978,5.7978,5.7978,5.7978,5.7978,5.7978,5.7978,5.7978,5.7978,5.7978,5.7978,5.7978,5.7978,5.7978,5.8042,5.8129,5.8174,5.8242,5.8308,5.8396,5.8462,5.8462,5.8551,5.8593,5.8593,5.8569,5.8569,5.8593,5.8614,5.8654,5.8677,5.8677,5.8737,5.8797,5.8859,5.8921,5.8962,5.9061,5.9139,5.9215,5.8728,5.8259,5.7714,5.7488,5.7319,5.6867,5.6639,5.6389,5.6323,5.5783,5.552,5.5261,5.4829,5.4305,5.4335,5.4044,5.3884,5.3862,5.3729,5.3498,5.3477,5.3249,5.2836,5.2543,5.2425,5.2246,5.197,5.1422,5.1318,5.1356,5.101,5.0721,5.0693,5.0712,5.0731,5.071,5.0793,5.0838,5.0855,5.0877,5.0917,5.0975,5.0838,5.0777,5.0507,5.0131,4.9782,4.9391,4.8753,4.8104,4.7746,4.7335,4.686,4.6628,4.6515,4.6363,4.6152,4.6016,4.5664,4.5351,4.4785,4.4411,4.3977,4.3189,4.2501,4.2472,4.2699,4.2533,4.2308,4.212,4.1911,4.1682,4.1513,4.1399,5.7978,5.7978,5.7978,5.7978,5.7978,5.7978,5.7978,5.7978,5.7978,5.7978,5.7978,5.7978,5.7978,5.8001,5.8042,5.8088,5.8197,5.8242,5.8312,5.84,5.8508,5.8551,5.8593,5.8654,5.8716,5.8737,5.8737,5.8737,5.8696,5.8716,5.8737,5.8758,5.8739,5.8801,5.8901,5.898,5.8982,5.9042,5.9139,5.9215,5.9234,5.9234,5.9027,5.8445,5.8351,5.8051,5.7692,5.735,5.7305,5.7161,5.6733,5.6305,5.63,5.5726,5.5313,5.5299,5.5263,5.5203,5.5071,5.4759,5.442,5.4417,5.3901,5.3593,5.3242,5.3168,5.3027,5.3058,5.2664,5.2173,5.2106,5.1625,5.1221,5.1,5.102,5.0922,5.0815,5.0801,5.0872,5.0897,5.0909,5.0941,5.0998,5.1027,5.0945,5.0933,5.0563,5.0526,5.0111,4.9469,4.8892,4.8555,4.8086,4.743,4.7075,4.6846,4.6598,4.6269,4.6211,4.6035,4.5859,4.5625,4.531,4.4995,4.4796,4.4205,4.4138,4.3738,4.3298,4.2995,4.2844,4.2713,4.2539,4.237,4.224,5.7978,5.7978,5.7978,5.7978,5.7978,5.7978,5.7978,5.7978,5.7978,5.7978,5.7978,5.7978,5.7997,5.8042,5.8129,5.8174,5.8264,5.8378,5.8446,5.8489,5.8614,5.8656,5.8677,5.8677,5.8779,5.884,5.8879,5.8818,5.8779,5.882,5.8859,5.886,5.8922,5.8965,5.9002,5.908,5.9177,5.9177,5.9253,5.929,5.9272,5.9309,5.9215,5.914,5.9084,5.9027,5.8779,5.84,5.8168,5.8207,5.7578,5.7242,5.7191,5.6654,5.6359,5.6077,5.5731,5.5236,5.5326,5.5204,5.5157,5.5185,5.509,5.4874,5.4359,5.3757,5.3462,5.3173,5.3087,5.3068,5.3029,5.2895,5.2491,5.2088,5.1838,5.15,5.1208,5.1183,5.1214,5.1064,5.1107,5.1041,5.1032,5.106,5.1075,5.1082,5.1072,5.0994,5.0841,5.0202,4.957,4.9172,4.8911,4.8312,4.7778,4.751,4.7086,4.6621,4.6523,4.6445,4.6152,4.6035,4.6113,4.5857,4.5717,4.5321,4.4707,4.4229,4.3868,4.378,4.3768,4.3632,4.3471,4.3266,4.2983,5.7978,5.7978,5.7978,5.7978,5.7978,5.7978,5.7978,5.7978,5.7978,5.7978,5.7978,5.7997,5.8061,5.8129,5.8174,5.8286,5.8378,5.8468,5.8551,5.8614,5.8696,5.8756,5.8818,5.8818,5.8879,5.8922,5.8962,5.8942,5.8884,5.8904,5.8962,5.8962,5.9002,5.9042,5.9119,5.9158,5.9215,5.9234,5.9272,5.929,5.929,5.929,5.929,5.929,5.929,5.9364,5.938,5.9282,5.9068,5.9072,5.853,5.8189,5.8053,5.7625,5.7196,5.7148,5.6498,5.5913,5.5491,5.547,5.5511,5.5551,5.5607,5.544,5.5094,5.4797,5.4549,5.4645,5.4184,5.3972,5.3799,5.3453,5.3107,5.28,5.2724,5.253,5.214,5.1785,5.171,5.1502,5.1312,5.1276,5.1196,5.1114,5.114,5.1139,5.1142,5.1122,5.1137,5.0965,5.0325,4.9711,4.9504,4.9231,4.8735,4.8313,4.7868,4.7441,4.7207,4.7012,4.6426,4.6269,4.6387,4.6346,4.6089,4.5635,4.5099,4.5072,4.5063,4.4916,4.4748,4.4535,4.428,4.3737,4.349,5.7978,5.7978,5.7978,5.7978,5.7978,5.7978,5.7978,5.7978,5.7978,5.7978,5.8001,5.8042,5.8111,5.8197,5.8264,5.8378,5.8489,5.8532,5.8614,5.8696,5.8737,5.8818,5.8879,5.892,5.8962,5.9024,5.9061,5.9062,5.9063,5.9081,5.9081,5.9062,5.9101,5.9139,5.9196,5.9234,5.9253,5.9272,5.929,5.929,5.929,5.929,5.929,5.9309,5.9346,5.9401,5.9529,5.9579,5.9685,5.9633,5.9368,5.9083,5.9011,5.8491,5.8148,5.7979,5.7423,5.6856,5.628,5.5945,5.5658,5.5607,5.5651,5.5665,5.5645,5.5684,5.5665,5.5491,5.5126,5.4838,5.4684,5.4203,5.3926,5.3754,5.3591,5.3531,5.3363,5.2846,5.25,5.2396,5.2136,5.1642,5.1495,5.1244,5.1172,5.1202,5.1217,5.121,5.1248,5.13,5.1008,5.0363,5.0328,5.0072,4.9518,4.9056,4.8611,4.8281,4.8027,4.7598,4.7051,4.6719,4.668,4.6581,4.6441,4.6126,4.569,4.6015,4.6259,4.5818,4.5453,4.5343,4.5036,4.4468,4.4249,5.7978,5.7978,5.7978,5.7978,5.7978,5.7978,5.7978,5.7978,5.7978,5.7997,5.8042,5.8129,5.8156,5.8246,5.8378,5.8468,5.8511,5.8635,5.8696,5.8737,5.8818,5.8898,5.894,5.9021,5.9062,5.9139,5.9177,5.9196,5.9234,5.9215,5.9215,5.9196,5.9215,5.9272,5.929,5.9272,5.9272,5.929,5.929,5.929,5.929,5.929,5.929,5.9309,5.942,5.9529,5.9598,5.9686,5.9807,5.9888,5.9811,5.9794,5.9661,5.9273,5.901,5.8915,5.8342,5.7883,5.7561,5.6522,5.5753,5.5701,5.5703,5.5684,5.5684,5.5684,5.5684,5.5684,5.5453,5.5472,5.5491,5.5464,5.4879,5.466,5.4468,5.4321,5.4115,5.3705,5.3398,5.3309,5.2952,5.2438,5.2026,5.1826,5.1295,5.126,5.1214,5.1211,5.1284,5.133,5.1366,5.113,5.1169,5.0855,5.0223,4.9819,4.9587,4.9199,4.8848,4.832,4.7734,4.7461,4.7324,4.6992,4.6873,4.6577,4.6319,4.6348,4.6357,4.6286,4.6119,4.585,4.5771,4.5448,4.5426,5.7978,5.7978,5.7978,5.7978,5.7978,5.7978,5.7978,5.7978,5.7978,5.8042,5.8129,5.8174,5.8268,5.8378,5.8446,5.8553,5.8614,5.8656,5.8758,5.8818,5.8879,5.898,5.9059,5.91,5.9158,5.9234,5.9272,5.929,5.9272,5.929,5.9309,5.929,5.929,5.9309,5.929,5.929,5.929,5.929,5.929,5.929,5.929,5.929,5.929,5.929,5.942,5.951,5.9598,5.974,5.9839,5.995,6.0026,6.0103,6.0197,5.9884,5.9868,5.9848,5.9179,5.891,5.8626,5.7413,5.6264,5.5731,5.5684,5.5703,5.5722,5.5684,5.5684,5.5684,5.5684,5.5684,5.5684,5.5696,5.5536,5.5441,5.5277,5.5112,5.4867,5.4476,5.4323,5.4247,5.3742,5.3182,5.2796,5.246,5.1851,5.1325,5.1258,5.1234,5.1281,5.1336,5.1372,5.1391,5.139,5.1384,5.0791,5.0639,5.0544,5.0137,4.9668,4.9141,4.8613,4.8437,4.8242,4.7812,4.74,4.7261,4.7002,4.6602,4.6417,4.6351,4.6277,4.6159,4.6154,4.6181,4.6158,5.7978,5.7978,5.7978,5.7978,5.7978,5.7978,5.7978,5.7978,5.7978,5.8065,5.8197,5.8246,5.8356,5.8468,5.8553,5.8614,5.8696,5.8737,5.8799,5.8899,5.8961,5.9079,5.9157,5.9215,5.9253,5.9309,5.929,5.929,5.929,5.929,5.9309,5.9309,5.929,5.929,5.929,5.929,5.929,5.929,5.929,5.929,5.929,5.929,5.9346,5.9364,5.9474,5.9582,5.9686,5.9791,5.9888,5.9963,6.0057,6.0167,6.0275,6.038,6.0477,6.0315,6.0093,5.9746,5.9372,5.832,5.6986,5.6357,5.6165,5.6011,5.578,5.5703,5.5684,5.5684,5.5684,5.5684,5.5695,5.5756,5.5797,5.5673,5.574,5.5613,5.558,5.5332,5.5269,5.5172,5.4563,5.3986,5.3709,5.33,5.2313,5.1669,5.1303,5.1252,5.1273,5.1343,5.1378,5.1399,5.1396,5.1389,5.1339,5.1128,5.0918,5.0879,5.043,5.0039,4.9629,4.9433,4.9023,4.8476,4.8163,4.8022,4.784,4.7637,4.7027,4.6378,4.634,4.6315,4.6209,4.6181,4.6162,5.7978,5.7978,5.7978,5.7997,5.802,5.7997,5.7997,5.802,5.8042,5.8129,5.8242,5.84,5.8486,5.8551,5.8635,5.8677,5.8737,5.882,5.8974,5.9128,5.9303,5.9289,5.944,5.9591,5.9816,5.9403,5.9591,5.976,5.9534,5.9722,5.9628,5.9384,5.9403,5.929,5.929,5.929,5.929,5.929,5.929,5.929,5.929,5.929,5.9346,5.9456,5.9528,5.9634,5.9757,5.9855,5.9934,6.001,6.0087,6.0197,6.0308,6.0417,6.0512,6.052,6.0578,6.0594,6.0577,5.9115,5.805,5.7165,5.6973,5.6742,5.6049,5.5799,5.5876,5.6011,5.578,5.5703,5.5724,5.5785,5.5855,5.5895,5.5971,5.5979,5.5907,5.591,5.5769,5.5711,5.529,5.4828,5.4615,5.414,5.2964,5.2154,5.1522,5.1347,5.1482,5.1346,5.14,5.1386,5.1402,5.1391,5.1398,5.1384,5.1308,5.1328,5.1152,5.0703,5.0449,5.0254,4.9766,4.9199,4.8963,4.8841,4.8816,4.8771,4.7982,4.719,4.6592,4.6435,4.6307,4.6204,4.6166,5.7978,5.7978,5.7978,5.8042,5.8111,5.8042,5.8042,5.8133,5.8219,5.8312,5.8381,5.8489,5.8553,5.8635,5.8733,5.8793,5.8875,5.8877,5.9069,5.9884,5.9982,6.0471,6.0679,6.0754,6.0848,6.0942,6.0942,6.083,6.1017,6.0773,6.0492,6.0266,5.9628,5.9309,5.929,5.929,5.929,5.929,5.929,5.929,5.929,5.9309,5.9383,5.9512,5.9582,5.9686,5.9791,5.9904,5.9998,6.0057,6.0152,6.026,6.0366,6.0472,6.0539,6.0604,6.068,6.0722,6.0731,6.0031,5.9319,5.8434,5.7819,5.7703,5.7415,5.6819,5.6665,5.6406,5.6049,5.5915,5.5714,5.5816,5.5885,5.5895,5.5942,5.5996,5.5982,5.6035,5.599,5.6017,5.579,5.5359,5.5068,5.5032,5.4094,5.3302,5.2762,5.2298,5.2276,5.1661,5.1422,5.139,5.1385,5.1394,5.1399,5.1384,5.1387,5.1367,5.1348,5.1211,5.1035,5.0859,5.0762,5.0312,4.998,4.9679,4.9635,4.9471,4.8773,4.8077,4.7618,4.6978,4.6674,4.6442,4.6177,5.8065,5.8084,5.8129,5.8197,5.8242,5.8129,5.8133,5.8282,5.8375,5.8465,5.8508,5.8532,5.8614,5.8751,5.9037,5.9208,5.9346,5.9783,6.001,6.0825,6.0864,6.1204,6.1561,6.1844,6.1581,6.1825,6.1825,6.1731,6.1637,6.175,6.128,6.0548,6.0041,5.9666,5.9459,5.929,5.929,5.929,5.929,5.929,5.9309,5.9346,5.9438,5.9546,5.9634,5.9721,5.9839,5.9934,6.0041,6.0118,6.0212,6.0337,6.0436,6.0518,6.0565,6.0642,6.0704,6.0746,6.0762,6.0742,6.0031,5.9396,5.8954,5.8588,5.8338,5.7723,5.753,5.7203,5.6618,5.634,5.6227,5.627,5.602,5.6049,5.6018,5.6072,5.6029,5.6062,5.6149,5.6187,5.6172,5.578,5.5566,5.5569,5.5277,5.466,5.4061,5.3615,5.3082,5.2389,5.1857,5.1841,5.1623,5.1532,5.1479,5.1385,5.1387,5.1387,5.1387,5.1387,5.1367,5.1172,5.1308,5.1387,5.0879,5.0479,5.0433,5.0131,4.9688,4.9265,4.8864,4.8142,4.7274,4.6971,4.6828,5.8197,5.8219,5.8349,5.8393,5.8371,5.8268,5.8286,5.8433,5.8486,5.8511,5.8511,5.8656,5.8791,5.8979,5.9678,6.0075,6.0267,6.1082,6.1461,6.1689,6.1785,6.1974,6.2069,6.2163,6.235,6.2144,6.2125,6.2426,6.1994,6.205,6.1599,6.0961,6.0604,6.0116,5.9703,5.9384,5.9347,5.929,5.929,5.9327,5.9346,5.942,5.9529,5.9617,5.9704,5.9824,5.9904,5.9979,6.0057,6.0152,6.0245,6.0361,6.0472,6.0584,6.0642,6.0685,6.0757,6.0769,6.08,6.08,6.0762,6.0262,5.9896,5.9223,5.8761,5.855,5.8338,5.8069,5.7569,5.7305,5.7125,5.6694,5.63,5.627,5.62,5.6158,5.6048,5.609,5.6164,5.6228,5.6251,5.6097,5.6076,5.6078,5.593,5.5707,5.5145,5.487,5.4236,5.3211,5.2779,5.2665,5.2347,5.1768,5.1656,5.1757,5.1484,5.1504,5.1406,5.1387,5.1387,5.1387,5.1387,5.1387,5.1387,5.122,5.0977,5.0908,5.0837,5.0416,4.9931,4.9133,4.8229,4.8183,4.8117,5.8242,5.8349,5.8393,5.8437,5.8486,5.8529,5.8529,5.8468,5.8593,5.8635,5.8635,5.8677,5.9037,5.9715,5.9998,6.0569,6.1118,6.163,6.214,6.2442,6.2706,6.3083,6.3308,6.3421,6.3534,6.3496,6.3477,6.3346,6.3364,6.3083,6.2688,6.2388,6.1299,6.0642,6.0097,5.9609,5.944,5.929,5.929,5.9346,5.9401,5.9475,5.9582,5.9686,5.9774,5.9874,5.995,6.0041,6.0137,6.0231,6.0318,6.0417,6.0485,6.0565,6.0642,6.0765,6.08,6.08,6.08,6.08,6.08,6.08,6.0492,6.0473,5.9992,5.9511,5.9165,5.8896,5.8446,5.8075,5.7916,5.7582,5.7149,5.6955,5.6884,5.6794,5.6646,5.6404,5.6451,5.6231,5.6259,5.631,5.6321,5.6311,5.6183,5.6276,5.6171,5.5853,5.5311,5.4248,5.3682,5.3567,5.3188,5.2648,5.2419,5.2461,5.1953,5.1601,5.1601,5.1523,5.1387,5.1387,5.1387,5.1385,5.14,5.1391,5.134,5.1271,5.1184,5.1227,5.08,5.0004,4.9363,4.9297,4.9142,5.8356,5.8422,5.8483,5.8529,5.8593,5.8656,5.8696,5.8656,5.8677,5.8737,5.8779,5.8797,5.9305,6.0136,6.0627,6.1287,6.2155,6.2702,6.3174,6.3401,6.3514,6.3796,6.4172,6.4284,6.4172,6.4284,6.4284,6.4078,6.4153,6.389,6.3477,6.2932,6.19,6.1262,6.0642,6.0097,5.9666,5.944,5.9327,5.9364,5.9438,5.9529,5.9634,5.9774,5.9841,5.9918,5.9994,6.0087,6.0216,6.0308,6.0361,6.0472,6.0552,6.061,6.0704,6.08,6.08,6.08,6.08,6.08,6.08,6.08,6.08,6.0742,6.0627,6.0242,6.0089,5.9877,5.9265,5.8798,5.8708,5.8567,5.8182,5.7804,5.7705,5.7615,5.7271,5.6905,5.6609,5.6329,5.6272,5.6323,5.6347,5.6375,5.6407,5.6407,5.6422,5.6308,5.5841,5.5093,5.4645,5.4488,5.4069,5.3587,5.3396,5.3164,5.2734,5.2344,5.2129,5.1973,5.1641,5.1426,5.1445,5.1423,5.1397,5.1387,5.1396,5.1386,5.1338,5.1378,5.1362,5.078,5.0295,5.0279,5.0103,5.8511,5.8532,5.8656,5.8677,5.8698,5.8737,5.8779,5.8879,5.8781,5.8799,5.8899,5.8881,5.9502,6.0536,6.1177,6.2098,6.2927,6.3625,6.3851,6.4265,6.4115,6.4228,6.4228,6.4284,6.4284,6.4284,6.4284,6.4284,6.4284,6.4096,6.3759,6.3214,6.297,6.2313,6.1299,6.0848,6.036,5.9741,5.9628,5.9627,5.953,5.9581,5.9668,5.9807,5.9921,6.001,6.006,6.0171,6.0313,6.0352,6.0403,6.0525,6.0629,6.0697,6.0777,6.08,6.08,6.08,6.08,6.08,6.08,6.08,6.08,6.08,6.0704,6.0666,6.0512,6.0477,5.9934,5.9757,5.9656,5.9485,5.9148,5.8828,5.8632,5.8415,5.8051,5.7672,5.7324,5.7016,5.6745,5.6718,5.6364,5.6391,5.6437,5.6479,5.6492,5.6498,5.6277,5.5703,5.5511,5.5332,5.5105,5.4682,5.4257,5.3984,5.3613,5.3242,5.291,5.2656,5.248,5.2031,5.1504,5.146,5.1394,5.1385,5.1394,5.1403,5.1408,5.1397,5.1359,5.1323,5.1168,5.0992,5.0854,5.8553,5.8675,5.8677,5.8777,5.8859,5.8859,5.8901,5.8964,5.8944,5.8944,5.8964,5.9114,5.9902,6.1217,6.1538,6.2421,6.3756,6.4058,6.4247,6.4284,6.4284,6.4284,6.4284,6.4284,6.4284,6.4284,6.4284,6.4284,6.4284,6.4286,6.4248,6.3928,6.3571,6.2763,6.2275,6.1844,6.1111,6.036,6.0341,6.0114,5.9882,5.9781,5.9807,5.9872,5.9947,6.0041,6.0106,6.0216,6.0332,6.0431,6.0472,6.0565,6.068,6.0765,6.08,6.08,6.08,6.08,6.08,6.08,6.08,6.08,6.08,6.08,6.0781,6.08,6.0785,6.0781,6.0729,6.0629,6.0527,6.0316,6.0123,5.9832,5.9568,5.9215,5.887,5.8486,5.8109,5.7729,5.736,5.7027,5.6653,5.6465,5.6456,5.6468,5.648,5.6504,5.6517,5.6216,5.6181,5.6077,5.6199,5.5854,5.5312,5.4863,5.4531,5.4121,5.375,5.3535,5.3301,5.2832,5.2301,5.1652,5.139,5.1558,5.1605,5.1413,5.1419,5.1391,5.1353,5.1312,5.1277,5.112,5.1156,5.8635,5.8716,5.8758,5.8838,5.8899,5.8921,5.9002,5.9062,5.9081,5.9101,5.912,5.9232,6.0056,6.1578,6.1747,6.2629,6.4021,6.4265,6.4284,6.4284,6.4284,6.4284,6.4284,6.4284,6.4284,6.4284,6.4284,6.4284,6.4284,6.4284,6.4265,6.4228,6.3759,6.3421,6.3177,6.2538,6.1976,6.1262,6.1281,6.1051,6.0519,6.0303,5.9933,5.9918,6.0029,6.0125,6.0182,6.0275,6.0389,6.0499,6.0565,6.0623,6.0729,6.0788,6.08,6.08,6.08,6.08,6.08,6.08,6.08,6.08,6.08,6.08,6.0812,6.0823,6.0846,6.0842,6.0886,6.0804,6.0847,6.0693,6.0674,6.0499,6.039,6.0181,5.9774,5.9369,5.8861,5.8324,5.8027,5.7786,5.7451,5.7152,5.7025,5.6496,5.651,5.6488,5.652,5.6555,5.6596,5.6609,5.6611,5.6582,5.6094,5.5742,5.5508,5.5078,5.4609,5.4219,5.3887,5.3535,5.3078,5.2586,5.219,5.2044,5.2013,5.1859,5.1497,5.1394,5.1349,5.13,5.1323,5.1442,5.1381,5.8584,5.8716,5.8838,5.8899,5.894,5.9002,5.9101,5.9196,5.9196,5.9253,5.9272,5.9234,6.0266,6.1186,6.1862,6.2951,6.3759,6.4153,6.4267,6.4284,6.4284,6.4284,6.4284,6.4284,6.4284,6.4284,6.4284,6.4284,6.4284,6.4284,6.4284,6.4284,6.4153,6.3946,6.3458,6.3158,6.2878,6.2335,6.2183,6.2199,6.1647,6.098,6.0608,6.0418,6.0395,6.0472,6.0618,6.059,6.066,6.0634,6.0757,6.0729,6.0765,6.08,6.08,6.08,6.08,6.08,6.08,6.08,6.08,6.08,6.08,6.0812,6.0823,6.0846,6.088,6.0935,6.0967,6.1009,6.1021,6.1041,6.1041,6.1068,6.1016,6.0982,6.0569,6.0194,5.9657,5.9069,5.881,5.8595,5.8215,5.7892,5.7424,5.6878,5.6549,5.6508,5.6506,5.6565,5.66,5.661,5.6613,5.6562,5.6523,5.6348,5.6055,5.5898,5.539,5.4902,5.4492,5.4277,5.4036,5.3702,5.3363,5.2979,5.2694,5.2542,5.2125,5.1801,5.2087,5.229,5.2204,5.2206,5.1789,5.8122,5.8716,5.8859,5.8921,5.8983,5.9119,5.9215,5.9272,5.9272,5.929,5.9309,5.9365,5.9929,6.0867,6.1562,6.2482,6.3421,6.3946,6.4267,6.4284,6.4284,6.4284,6.4284,6.4284,6.4284,6.4284,6.4284,6.4284,6.4284,6.4284,6.4284,6.4284,6.4284,6.4209,6.4153,6.3891,6.3649,6.3201,6.2993,6.2972,6.2513,6.2091,6.2079,6.201,6.2088,6.2185,6.2158,6.1721,6.1571,6.1409,6.1108,6.093,6.08,6.08,6.08,6.08,6.08,6.08,6.08,6.08,6.08,6.08,6.0812,6.0823,6.0846,6.088,6.0924,6.0971,6.1001,6.1031,6.107,6.1089,6.1108,6.1171,6.1164,6.1194,6.1041,6.0881,6.0597,6.0177,5.984,5.9398,5.8813,5.8447,5.7983,5.7432,5.69,5.6823,5.6706,5.6686,5.6663,5.663,5.6635,5.6601,5.6582,5.6582,5.6387,5.6328,5.6191,5.5683,5.5332,5.5156,5.4896,5.466,5.422,5.3795,5.3548,5.3301,5.3228,5.3059,5.3346,5.3498,5.3295,5.3024,5.2621]}]]